GFSWCAN_850_thetae_000.txt.gz
Theta_e
311 313 313 312 313 312 313 313 313 314 315 315 316 316 316 316 315 316 315 315 316 316 315 315 314 315 313 314 317 313 314 312 310 312 313 314 313 316 315 315 317 317 316 315 315 317 318 312 308 313 313 313 313 312
309 312 312 312 311 313 312 312 312 313 313 313 315 316 316 316 315 315 316 316 315 315 315 314 314 313 313 314 313 313 314 313 313 315 312 312 310 309 314 315 312 314 314 319 316 317 315 313 311 312 313 313 312 312
305 308 311 312 313 312 311 312 312 311 312 312 313 314 315 316 315 315 315 315 315 314 314 314 313 313 313 312 312 313 312 312 312 312 312 308 311 310 314 314 314 312 312 313 314 313 314 313 313 313 312 312 311 311
303 304 306 309 311 312 313 314 313 312 311 312 312 313 313 314 315 314 314 314 314 313 311 312 313 313 312 312 312 312 313 313 313 313 312 306 310 310 312 312 312 312 310 311 313 313 312 312 312 312 311 311 311 310
302 303 303 305 307 309 311 312 313 312 311 311 311 312 313 314 314 313 313 313 313 313 309 310 311 312 312 311 312 312 312 312 313 311 306 309 311 310 311 311 312 311 311 312 315 313 313 313 311 310 310 310 310 309
300 302 303 304 305 306 307 309 310 312 312 312 311 310 310 311 312 312 309 310 311 310 311 305 309 310 311 311 311 311 311 311 312 312 310 311 312 310 307 312 312 312 311 311 312 311 310 310 310 310 310 310 309 309
300 301 302 303 304 305 306 308 310 310 311 311 310 311 311 311 309 311 307 307 309 309 308 303 305 306 309 309 309 310 310 310 310 311 310 310 310 310 306 311 311 311 310 309 309 310 310 309 309 309 308 305 304 304
300 300 301 301 301 303 304 304 304 304 304 305 305 306 305 306 306 307 306 306 306 306 304 301 304 304 303 305 306 307 307 308 308 308 309 309 309 309 310 310 308 308 308 308 308 309 309 308 307 303 301 300 300 301
300 300 300 300 300 300 301 301 302 302 302 302 302 301 302 301 301 301 302 303 302 303 301 300 305 307 303 304 304 304 305 306 307 306 308 309 310 310 309 307 307 307 307 307 308 306 305 301 300 300 299 299 300 301
300 299 299 299 299 300 300 300 300 300 300 300 300 300 299 300 299 300 300 300 300 300 300 301 303 306 305 303 303 304 303 304 307 307 306 306 308 307 307 307 306 307 307 305 302 300 300 299 299 299 299 299 299 298
300 300 300 299 299 299 299 300 300 299 299 299 299 299 299 301 299 300 300 300 300 302 301 302 303 304 302 303 305 303 306 303 307 307 307 308 307 306 305 305 303 302 299 298 298 298 298 298 298 298 297 298 298 296
297 298 298 298 298 299 298 298 298 297 297 296 298 299 299 300 300 300 301 301 301 303 302 302 301 301 302 302 304 302 305 305 307 299 302 304 306 301 301 299 299 299 299 298 298 297 296 297 298 297 296 296 294 294
296 296 297 298 297 297 296 296 295 295 295 296 297 298 299 298 300 299 300 303 304 301 299 299 301 300 300 299 299 301 304 305 298 302 304 305 301 299 298 298 298 298 298 298 298 296 296 297 296 295 295 295 294 293
295 296 296 296 296 295 294 293 293 295 295 296 296 297 297 299 299 300 301 301 298 298 298 296 298 298 299 300 301 304 303 300 303 302 304 302 299 298 298 298 297 297 298 298 296 295 296 297 296 295 295 292 290 289
294 295 294 294 294 293 292 292 292 294 294 295 295 297 297 296 295 295 295 296 297 297 296 298 297 297 299 299 300 301 301 301 302 303 303 300 297 296 297 297 297 297 297 297 295 295 295 295 294 292 289 290 289 289
292 293 293 292 292 291 291 291 291 292 293 293 293 295 294 294 296 293 294 295 295 296 296 295 295 296 298 300 300 301 301 300 302 301 300 297 297 296 296 296 297 297 297 297 295 295 294 294 292 289 290 290 289 289
292 292 293 292 292 291 291 291 291 291 292 292 292 292 294 293 293 294 292 294 294 294 296 295 295 296 297 297 298 299 300 302 299 298 297 297 295 295 294 295 296 297 297 296 295 294 294 292 290 289 290 289 289 289
292 292 292 291 291 292 291 291 291 291 291 291 292 293 292 292 293 292 292 292 292 294 293 294 295 296 297 296 298 300 297 297 296 296 296 295 295 294 295 295 295 296 296 296 295 294 293 291 289 290 289 289 289 289
292 291 291 290 291 292 291 291 291 291 291 291 291 291 291 292 292 291 292 291 292 293 293 294 295 295 297 296 297 296 296 296 296 296 295 295 294 294 295 295 294 295 295 294 293 293 292 289 290 289 289 289 290 290
292 291 291 291 291 291 290 290 290 290 291 291 291 292 292 292 292 291 291 291 292 292 293 294 294 294 294 294 293 293 293 294 294 295 295 294 294 295 295 294 295 294 293 293 292 291 291 290 289 289 289 290 290 290
292 291 291 291 291 291 291 290 290 290 291 291 292 291 292 291 291 292 292 292 293 293 293 293 293 292 292 292 292 292 292 292 293 294 294 294 294 293 294 294 294 293 292 292 292 291 291 289 289 289 289 290 290 290
293 292 291 291 291 291 290 291 291 291 290 291 290 291 292 292 292 291 291 292 292 293 293 293 292 292 292 292 292 292 292 292 292 292 292 292 292 293 294 293 292 292 292 291 291 291 291 289 288 289 289 289 289 288
292 292 292 291 292 292 292 290 291 291 292 292 290 291 291 290 291 289 291 291 291 291 291 291 291 291 291 291 291 291 291 291 291 291 292 292 293 293 293 292 291 291 291 291 291 290 289 289 290 290 289 289 287 286
291 291 291 291 291 292 289 290 291 291 291 290 290 291 291 290 289 290 292 291 291 291 291 291 291 291 291 291 291 291 291 292 291 291 292 293 293 293 292 291 291 291 291 291 289 289 290 290 290 288 288 287 286 285
291 291 291 292 292 290 290 291 291 290 291 290 291 291 292 288 292 292 292 292 291 291 291 291 292 292 292 292 292 292 293 293 292 292 293 294 293 292 292 291 291 290 289 289 290 290 290 290 288 287 285 285 285 285
292 292 292 292 291 291 291 290 289 290 291 290 291 291 287 291 291 292 292 292 291 291 291 292 292 293 292 292 292 293 293 291 292 293 293 293 293 292 291 290 290 290 290 290 290 289 289 288 286 285 285 285 284 284
292 292 291 291 290 290 290 286 288 291 290 290 291 289 290 291 292 292 291 291 291 291 292 292 292 292 292 293 293 293 293 293 293 293 292 291 291 291 291 291 291 290 290 290 289 288 287 287 286 286 285 285 285 285
292 292 292 290 289 289 291 290 289 290 292 291 290 290 291 292 293 292 291 291 291 291 292 292 292 292 292 292 293 293 293 293 293 291 291 291 291 291 290 290 291 291 291 290 289 288 287 287 287 286 286 285 285 285
292 291 291 289 289 289 290 292 293 291 291 290 292 293 292 291 291 291 291 291 291 291 292 292 292 292 291 291 292 292 293 292 291 290 290 291 291 291 290 290 291 291 290 290 289 288 287 286 286 286 285 285 285 284
292 291 291 291 290 291 292 291 291 292 291 291 291 291 291 291 291 291 290 290 291 291 292 292 291 290 291 290 290 290 291 291 290 290 290 291 291 291 291 291 291 290 289 289 289 288 287 286 285 285 285 284 283 283
291 289 290 290 291 292 292 291 291 290 290 290 291 289 290 291 290 290 290 291 291 291 290 290 289 289 290 290 290 289 289 289 289 289 289 290 290 290 290 289 289 287 286 286 286 285 284 284 284 284 283 282 282 282
288 289 290 290 290 289 289 289 288 288 289 288 289 288 288 288 290 289 289 289 288 288 287 288 288 288 288 288 288 288 288 288 288 288 289 289 289 289 288 287 286 285 284 284 283 283 283 282 282 282 281 281 281 281
289 289 289 289 290 289 288 288 288 290 287 288 288 287 287 289 290 286 285 286 286 286 287 287 287 287 287 287 287 287 287 287 286 286 286 287 287 286 286 285 284 284 283 283 283 282 282 282 281 281 281 280 280 280

GFSWCAN_850_thetae_003.txt.gz
Theta_e
310 311 312 314 313 313 313 315 316 316 316 316 316 316 316 317 316 316 317 316 316 317 317 317 317 318 317 317 320 316 316 316 315 316 314 315 316 316 316 315 317 317 317 316 316 318 320 315 314 315 315 315 314 314
310 311 311 310 311 313 313 313 313 313 314 315 316 316 316 316 316 315 315 316 316 316 317 317 317 316 316 316 316 316 316 315 315 317 314 314 314 312 313 314 314 315 316 319 317 318 316 316 315 314 314 314 313 312
307 309 310 310 311 312 311 313 313 313 313 313 313 313 315 316 316 316 315 315 316 316 316 314 316 314 315 315 315 316 315 315 314 314 315 312 312 314 314 314 313 313 313 317 317 315 315 314 313 314 314 312 311 311
303 304 306 309 311 312 311 311 311 313 312 312 313 313 313 313 314 315 315 315 316 314 312 313 314 313 315 315 315 315 315 314 314 314 314 305 308 310 312 312 313 313 313 313 315 315 313 313 313 312 312 310 311 311
301 302 303 305 307 310 311 311 313 312 312 312 313 312 313 313 313 313 314 315 315 314 310 311 311 312 313 314 314 314 314 314 314 314 308 310 311 311 311 311 312 311 313 313 313 312 314 313 311 310 310 310 310 309
300 300 301 302 304 305 307 309 311 312 312 313 313 313 313 312 313 313 309 312 313 313 312 307 309 310 311 311 313 314 313 314 314 313 311 311 312 311 309 312 311 312 312 312 313 313 312 311 310 310 310 309 305 303
300 300 301 302 303 303 304 306 308 310 311 313 313 313 312 312 313 311 310 309 310 311 310 307 305 305 309 310 312 313 313 313 312 312 311 311 310 310 308 311 311 310 311 310 310 311 310 309 310 309 306 303 302 302
300 300 300 301 302 303 303 304 306 308 310 311 312 312 312 311 310 308 307 307 309 308 307 304 304 305 306 307 308 309 309 310 310 309 309 309 309 309 310 310 309 308 308 308 307 308 309 309 307 303 303 301 301 301
299 300 300 301 300 301 302 302 303 304 305 306 306 307 307 305 305 304 304 304 304 304 301 300 307 308 304 306 306 305 305 305 307 308 309 309 311 312 310 308 308 307 307 308 308 307 305 303 303 302 301 301 300 299
299 300 300 299 300 300 300 301 301 302 303 303 303 303 301 302 302 302 301 301 301 300 300 300 303 306 306 304 303 303 302 304 306 307 307 310 310 307 307 307 307 307 306 305 304 303 302 301 301 301 300 300 298 297
299 300 299 299 299 299 299 300 299 299 299 300 299 300 301 299 301 301 300 300 300 301 300 301 303 305 303 305 304 302 305 306 308 306 309 309 308 307 305 306 305 302 301 301 301 301 300 300 300 300 300 298 296 294
299 300 300 300 299 299 299 300 300 299 299 299 299 299 299 300 300 301 302 301 302 304 303 304 303 302 303 303 304 304 305 305 306 304 303 306 305 303 303 302 301 300 300 300 299 299 299 299 299 299 297 294 295 295
298 298 298 298 298 299 299 299 298 297 296 297 297 298 300 299 301 300 301 303 306 303 300 299 300 299 300 300 299 302 304 307 301 304 306 306 304 302 300 300 299 299 299 298 298 299 298 297 297 298 297 296 296 294
296 297 297 298 298 298 298 297 296 295 297 295 297 298 300 300 300 301 301 303 298 298 298 299 299 299 299 301 301 302 304 302 304 304 306 306 301 299 299 298 298 298 297 297 297 298 297 296 296 297 296 295 293 289
295 295 296 297 297 296 295 294 294 295 294 296 296 299 298 298 299 298 297 298 298 297 297 298 298 298 298 299 300 300 301 301 303 302 305 302 300 299 298 298 297 295 296 296 297 297 297 296 294 295 294 291 289 290
293 293 294 296 295 294 293 292 294 295 293 294 294 297 296 297 297 295 296 297 297 297 296 296 297 297 297 300 300 300 300 298 303 305 300 299 298 298 297 296 295 294 295 296 296 296 296 296 294 294 292 289 290 289
292 293 293 293 292 291 292 293 293 291 293 293 294 294 297 295 296 296 295 297 296 296 296 296 296 297 297 298 298 298 299 302 299 298 298 297 296 296 297 296 295 295 296 296 296 296 295 294 293 293 289 290 290 289
293 293 293 292 291 291 292 293 292 292 293 293 293 294 293 294 295 295 293 295 295 294 294 295 294 295 296 295 298 300 297 296 296 296 296 294 295 296 295 295 295 295 296 295 295 294 294 292 292 290 289 290 289 289
293 292 292 292 292 292 292 291 292 293 293 293 292 292 293 294 294 294 294 294 294 294 294 294 295 295 297 296 297 296 296 296 296 295 294 294 294 295 295 295 295 295 295 294 294 293 292 292 291 290 291 290 289 290
291 291 290 291 291 292 291 292 291 292 293 292 292 293 293 294 294 294 293 292 293 293 293 294 294 294 294 294 294 294 294 294 294 294 294 293 293 294 294 294 295 295 294 293 293 292 291 291 289 290 290 289 289 290
291 291 290 291 291 292 292 291 291 291 292 292 293 293 293 293 293 293 293 293 293 293 293 293 293 293 293 294 293 293 293 293 293 293 293 293 293 293 293 293 294 293 293 292 292 291 291 291 291 290 289 289 289 290
291 291 291 291 292 291 291 292 292 292 292 292 292 292 293 293 293 293 293 293 293 293 293 293 293 293 293 293 293 293 293 293 293 293 292 293 293 294 294 294 293 293 293 292 292 292 291 291 290 290 288 289 290 290
291 291 291 291 290 291 292 292 292 292 293 292 292 293 293 292 292 292 292 292 292 292 292 292 293 293 292 292 292 292 292 292 292 292 292 292 293 293 293 292 293 292 292 292 291 290 291 291 290 289 288 289 289 289
291 291 292 292 292 293 291 292 292 292 292 293 293 292 292 292 292 292 293 293 292 292 292 292 292 292 292 292 293 293 293 293 293 293 292 292 292 292 292 292 293 292 292 292 291 291 290 289 289 289 289 289 289 288
291 291 291 293 292 292 291 292 292 292 293 293 292 292 293 292 293 292 293 293 293 293 292 292 292 292 293 293 293 293 294 293 293 292 291 291 292 293 293 293 292 291 290 291 291 290 289 289 289 289 289 288 286 286
293 292 292 292 293 293 293 292 292 292 292 292 293 292 292 293 292 292 293 293 293 293 293 291 291 292 293 293 293 293 293 292 292 291 292 292 292 293 292 292 291 290 290 290 289 289 290 290 290 289 287 286 285 285
293 293 292 292 293 292 293 292 292 293 292 292 292 293 293 292 292 292 292 292 293 292 291 291 291 292 293 293 293 292 292 292 292 292 292 292 291 290 291 292 291 291 291 290 290 290 289 289 288 287 286 286 286 286
291 292 293 292 292 292 293 293 292 292 292 291 292 293 293 293 293 292 293 293 292 291 291 291 291 291 292 292 292 291 291 292 292 292 292 292 291 291 291 291 291 290 290 291 290 290 289 288 287 286 286 286 286 286
291 291 292 293 292 292 292 293 293 292 292 292 294 294 294 292 292 292 292 292 291 291 291 290 290 291 291 292 291 291 290 290 290 290 289 290 291 291 291 290 290 290 290 291 291 290 289 288 287 287 286 286 285 286
292 292 292 292 292 292 292 292 292 292 292 292 292 292 292 292 292 292 292 292 291 290 290 290 290 290 290 290 289 289 290 289 289 288 289 290 291 291 291 291 291 290 291 291 290 290 289 288 287 286 286 285 285 285
292 292 292 292 293 292 292 292 292 292 292 291 291 291 292 292 292 292 292 291 290 290 289 289 289 288 288 288 288 288 289 288 288 288 289 289 289 289 289 289 289 289 288 289 289 288 288 287 286 286 285 284 283 282
291 292 292 293 293 292 292 290 291 292 292 292 291 291 291 289 290 289 290 289 288 287 287 288 287 286 286 287 287 287 287 287 287 288 288 288 288 288 288 287 287 287 286 286 285 285 284 284 282 281 281 280 280 279
291 291 291 292 292 292 292 290 292 291 291 291 291 291 291 290 292 285 286 286 286 286 286 286 286 286 286 286 286 286 286 286 286 286 287 287 287 287 286 286 285 285 284 284 283 283 282 282 281 280 280 279 279 280

GFSWCAN_850_thetae_006.txt.gz
Theta_e
309 315 313 314 313 313 315 315 315 315 316 316 316 316 316 316 316 316 317 318 317 319 318 319 319 319 318 318 322 318 318 318 315 314 313 316 315 317 316 315 316 315 316 316 313 317 318 315 317 316 315 315 314 313
308 310 313 314 315 313 313 314 315 315 315 316 316 316 316 316 316 316 316 317 317 317 318 319 318 318 318 318 317 317 317 317 316 317 312 313 313 313 310 315 312 314 315 316 315 316 314 314 314 315 313 314 312 312
308 309 310 310 311 313 313 313 313 313 313 314 315 315 316 316 316 316 316 316 316 316 316 315 315 315 316 316 317 317 317 317 316 316 315 309 311 314 314 314 314 313 312 314 313 313 313 313 313 313 313 312 311 311
305 307 309 310 311 311 311 311 312 313 313 313 313 313 313 313 313 314 315 316 316 315 312 314 314 314 314 315 317 316 316 316 316 315 315 307 308 310 312 312 313 312 312 312 312 312 312 312 313 312 312 312 310 309
302 303 304 306 308 309 310 310 311 311 312 312 312 312 312 313 313 313 313 313 314 315 311 312 312 313 313 314 315 315 315 315 316 316 310 309 312 311 312 311 311 311 312 312 313 312 312 312 312 312 311 310 307 305
300 300 301 303 304 305 307 310 311 311 311 311 312 312 312 312 313 312 312 312 313 314 313 306 311 311 312 312 314 314 315 315 315 315 313 313 313 311 308 312 311 312 311 312 312 311 311 311 311 310 308 305 304 302
300 300 300 301 302 303 305 306 307 309 311 312 313 312 312 312 313 312 311 310 311 311 311 310 308 307 309 311 312 312 313 314 314 314 314 312 311 311 305 311 311 311 311 310 310 310 308 309 309 307 304 303 302 302
299 300 300 301 303 303 303 304 306 307 308 309 311 312 313 313 310 309 310 310 309 310 309 306 304 305 307 308 309 310 310 311 312 311 310 309 310 309 308 310 310 310 309 309 308 308 307 305 304 303 302 301 301 301
299 300 300 301 301 301 302 303 304 305 307 309 310 311 312 307 307 306 306 307 307 308 304 300 305 308 306 307 307 306 306 304 306 306 308 308 309 310 310 309 309 309 308 308 306 304 303 302 302 301 301 300 301 300
299 300 300 300 300 300 301 301 302 302 303 305 306 306 304 303 302 303 303 303 303 301 301 300 303 308 307 305 303 304 303 303 306 306 307 309 309 309 308 308 307 306 304 303 302 302 301 301 300 300 300 300 300 298
298 299 300 299 299 299 300 300 301 302 302 302 301 301 301 302 302 302 300 300 300 300 299 301 303 307 305 304 304 302 303 303 307 307 310 309 308 307 306 306 304 302 301 301 301 300 300 299 299 299 299 299 299 295
298 299 299 299 299 299 299 300 300 300 301 301 301 300 300 301 301 301 302 301 302 304 303 303 303 303 303 303 304 302 304 304 304 304 304 306 306 305 304 303 301 301 300 300 299 298 297 297 298 298 297 297 299 296
298 299 299 299 300 299 299 300 299 299 298 299 298 299 299 299 301 301 303 304 305 302 300 301 301 301 300 300 301 300 303 303 302 305 305 306 305 304 302 300 300 299 298 298 296 295 296 297 297 297 296 295 297 295
299 299 300 299 298 298 299 299 298 297 299 295 298 299 300 300 300 302 303 301 298 299 300 300 299 301 299 299 299 300 303 303 304 304 305 306 302 301 300 299 299 298 297 296 295 295 295 296 297 297 297 295 295 294
297 297 297 298 298 298 298 297 296 297 295 295 296 299 299 299 300 298 298 299 298 297 299 299 299 299 299 299 300 301 301 301 302 303 306 302 300 299 298 298 297 297 296 296 295 295 295 296 296 296 296 295 294 292
296 296 296 297 297 296 295 295 296 296 293 295 295 297 298 298 298 296 296 298 298 298 296 297 298 297 297 299 299 299 300 300 302 305 300 299 298 298 296 295 296 297 296 296 295 295 296 296 296 296 295 294 293 289
294 294 295 296 296 294 293 295 294 293 292 293 295 295 297 296 297 296 296 296 298 296 297 297 296 297 298 299 298 299 300 301 299 298 297 297 297 297 296 295 295 295 295 295 295 295 295 295 294 294 294 292 290 290
294 294 294 294 293 293 293 294 293 292 294 294 295 295 294 295 295 295 295 296 296 296 295 296 295 296 296 296 297 299 298 297 297 296 296 295 295 294 294 294 293 293 295 295 295 296 295 294 293 293 292 290 290 290
294 293 293 292 292 293 293 293 294 294 294 294 294 294 295 296 295 295 295 295 295 294 294 295 296 296 297 296 296 296 296 296 296 295 295 294 294 294 294 293 293 294 294 294 295 295 293 293 293 291 290 290 290 290
293 292 292 292 293 293 292 292 293 294 294 295 293 294 294 294 294 294 294 294 294 294 294 294 295 295 295 295 295 295 295 294 294 294 294 294 294 294 294 294 294 293 294 294 294 293 294 292 291 291 290 291 290 290
291 291 291 292 293 293 293 292 292 291 293 293 294 294 294 294 294 294 293 293 293 293 293 293 293 293 293 293 294 294 294 294 294 294 294 294 293 293 293 293 293 294 294 294 293 292 292 292 291 290 290 290 289 289
292 290 291 291 292 291 291 292 292 293 293 293 293 293 293 294 294 294 293 294 294 294 293 293 294 294 294 294 294 294 294 294 293 293 293 293 293 294 294 294 294 294 293 293 292 292 292 292 291 291 290 290 289 289
291 291 291 291 291 292 292 292 293 293 293 293 292 293 294 293 293 293 293 293 294 293 293 293 294 294 294 293 293 293 292 292 293 293 294 294 294 294 293 292 292 292 292 292 292 292 292 292 291 291 290 289 288 289
291 291 291 291 291 293 292 292 293 293 293 293 294 293 294 293 293 293 294 293 293 293 293 293 293 293 293 293 293 293 293 293 293 293 293 293 293 293 292 292 292 292 292 292 292 292 291 290 290 290 289 288 289 289
292 291 292 293 292 293 293 293 293 293 293 293 294 294 293 293 293 293 294 293 293 293 293 293 293 293 293 293 293 293 293 293 293 293 293 292 292 291 292 292 292 292 292 292 292 290 290 290 290 289 289 289 289 288
293 292 292 293 293 293 293 292 293 293 294 294 293 293 292 293 293 293 293 293 293 293 293 293 292 292 292 292 293 293 293 293 293 292 291 291 291 291 291 292 292 292 291 290 290 290 290 289 289 289 288 288 287 287
294 293 293 292 293 293 293 293 293 294 293 293 294 294 293 293 292 293 292 292 293 293 293 293 292 292 292 292 292 292 292 292 292 291 291 292 292 292 291 290 291 291 291 290 290 290 290 290 290 288 289 288 286 286
292 292 293 293 293 293 294 294 293 293 293 292 293 293 293 293 293 292 293 293 293 292 292 292 292 291 291 291 291 290 291 291 291 290 290 291 291 291 291 291 291 291 291 290 290 290 290 289 289 289 288 286 286 286
292 292 292 293 293 293 293 293 294 292 292 292 294 294 293 293 293 293 293 293 293 292 292 292 292 292 291 290 290 290 290 289 289 289 288 289 290 290 291 292 291 291 290 290 290 290 291 290 289 287 287 286 286 286
292 292 292 292 293 293 292 292 292 292 292 292 292 292 292 292 292 292 293 293 293 292 292 292 291 291 290 289 289 289 289 289 289 289 288 287 288 288 289 289 289 290 290 290 290 290 289 289 288 287 287 286 286 285
291 292 292 293 293 292 292 292 292 292 292 292 292 292 292 292 292 292 292 292 292 292 291 291 289 288 288 288 288 287 288 288 288 287 287 288 288 287 287 287 287 288 287 287 287 287 287 287 286 286 285 285 284 283
292 292 292 293 293 292 292 292 293 293 293 293 293 293 292 292 293 291 291 291 289 288 287 286 286 286 286 285 285 285 286 287 287 287 287 287 287 287 287 287 286 286 286 286 285 285 285 285 284 283 282 282 281 280
291 291 291 291 291 292 291 292 292 292 292 293 293 292 293 293 292 287 286 287 286 285 285 285 285 285 284 285 285 285 286 286 286 285 286 286 285 285 285 285 285 285 285 284 284 283 283 283 282 282 281 281 280 279

GFSWCAN_850_thetae_009.txt.gz
Theta_e
312 315 314 312 313 314 314 314 315 315 315 315 316 316 316 316 316 317 316 317 317 318 318 318 319 318 319 319 308 317 314 314 309 309 310 310 311 307 310 311 309 307 306 311 305 314 311 312 311 309 311 312 311 312
308 311 313 313 312 313 313 314 315 315 315 315 316 315 316 316 316 316 316 316 317 317 317 318 318 317 318 318 318 317 316 316 314 306 305 306 310 308 309 314 311 311 309 307 309 308 311 311 311 311 311 311 312 312
308 307 311 312 313 313 313 313 313 315 315 315 315 315 316 316 316 316 316 316 316 315 315 315 315 314 316 317 317 317 317 316 316 315 311 307 311 307 312 311 309 312 312 309 308 311 311 311 311 311 311 312 311 310
307 308 309 309 311 313 313 314 313 313 313 314 315 315 315 315 315 315 315 315 315 315 313 313 314 313 313 314 314 316 316 316 316 316 316 305 308 310 309 310 311 311 311 310 310 310 310 310 310 311 311 310 307 305
303 305 307 308 309 310 311 312 312 312 313 313 313 313 313 313 313 313 313 313 313 315 311 312 313 313 313 313 313 313 314 316 316 315 311 307 310 309 308 307 308 311 311 310 311 310 310 311 310 309 308 305 304 302
300 302 303 304 305 307 308 309 310 310 311 311 312 313 313 313 313 313 313 312 313 312 313 306 312 312 312 312 312 312 313 315 315 315 314 314 313 312 307 312 311 311 311 311 311 311 310 309 308 307 306 302 302 301
300 300 300 301 302 303 304 305 307 310 311 311 311 311 312 312 311 312 312 311 311 312 312 310 307 308 310 310 311 312 313 314 314 314 314 313 312 312 304 312 311 311 311 310 310 310 308 307 305 302 302 301 301 301
299 300 300 301 302 303 303 303 304 305 307 309 310 311 311 311 311 310 312 312 311 310 310 307 305 306 308 308 310 310 311 311 312 313 310 310 310 310 308 310 310 310 310 309 308 306 303 303 302 301 300 300 300 300
299 299 300 301 302 302 302 303 304 305 306 307 309 310 311 308 307 307 308 309 309 309 307 302 304 307 306 307 308 307 307 304 307 306 307 308 304 308 308 309 309 309 308 305 304 302 301 300 300 300 299 298 299 299
298 299 300 301 300 300 300 302 303 304 306 308 308 308 305 305 305 305 304 305 306 304 303 300 302 305 306 306 304 304 304 302 304 304 306 304 306 308 308 308 308 304 302 302 302 300 299 299 298 297 298 298 297 297
297 299 300 300 300 300 301 301 301 303 305 304 303 302 302 302 302 302 301 300 300 299 299 300 302 304 305 303 302 302 301 301 304 299 299 298 302 305 306 306 304 302 301 300 299 299 296 295 294 294 295 296 297 297
297 298 299 300 299 299 300 301 301 302 302 302 302 301 301 301 301 301 300 299 300 300 301 301 302 303 303 303 302 301 302 301 302 302 302 301 300 304 304 302 300 300 299 298 298 297 294 294 293 294 296 296 297 296
297 298 299 300 299 299 299 300 300 299 300 300 299 299 299 299 300 298 299 302 299 302 301 301 301 301 300 301 300 299 301 301 300 301 301 298 303 301 300 300 299 299 298 298 297 295 295 294 293 294 295 295 297 296
298 298 299 299 299 299 299 299 299 299 300 296 297 292 294 296 296 298 298 300 298 300 301 300 300 300 298 298 298 298 296 299 301 301 297 296 301 300 300 299 298 296 295 296 296 296 295 293 293 294 295 295 296 295
297 298 299 298 299 298 298 299 298 298 297 294 295 294 295 299 298 298 298 298 299 298 298 298 298 298 297 293 296 293 295 299 295 294 294 299 298 298 297 297 296 295 295 295 295 294 292 293 294 295 294 294 294 294
299 298 298 298 298 298 298 297 297 297 293 294 295 294 297 298 296 296 297 298 298 296 296 297 296 290 290 291 292 293 294 294 293 296 297 296 296 296 295 295 295 294 294 294 293 292 293 294 295 295 295 294 293 293
295 296 296 297 297 297 296 296 296 294 293 293 295 295 297 297 297 297 296 297 297 294 291 297 290 291 294 290 292 295 292 291 297 296 295 295 294 294 294 294 294 293 293 293 292 292 294 295 295 295 294 292 293 291
295 295 295 296 296 295 294 294 294 292 293 293 295 294 294 295 296 295 295 297 297 296 295 291 295 290 288 289 289 291 296 295 295 295 294 293 294 294 293 293 293 293 293 293 293 293 293 294 294 293 292 292 291 291
293 294 294 295 294 293 293 293 293 293 293 295 295 295 294 294 294 294 295 295 295 295 294 294 287 288 290 294 294 294 294 295 295 295 294 293 293 294 294 294 293 293 293 293 293 293 293 294 293 292 292 291 290 290
293 293 294 293 293 293 293 292 293 293 294 295 294 293 293 293 293 294 294 295 295 295 294 290 290 293 294 294 294 294 294 294 293 294 294 294 294 294 293 293 293 293 293 293 293 293 293 293 293 292 291 290 290 290
292 292 293 292 293 293 293 291 292 292 292 293 294 294 294 294 294 294 294 293 293 292 293 292 292 292 292 292 292 292 293 293 293 294 294 294 293 292 293 293 293 293 294 293 292 292 292 293 292 292 291 290 291 290
292 291 292 292 292 292 291 292 292 292 292 292 293 293 294 294 294 294 294 294 293 293 292 292 292 292 292 293 293 294 294 294 294 293 292 292 293 293 293 293 293 293 292 292 291 292 292 292 292 292 291 290 290 290
291 291 291 291 291 291 291 291 292 293 292 293 292 292 293 293 293 293 294 294 293 292 293 293 293 293 293 293 293 293 293 293 293 293 293 293 293 293 293 292 292 292 291 292 292 292 292 291 292 292 291 291 290 289
291 291 291 291 291 290 291 292 292 293 292 292 287 287 289 294 293 293 287 293 293 292 292 293 293 293 293 293 293 294 293 293 293 293 292 292 292 292 291 292 292 292 291 291 292 291 291 292 291 290 290 290 289 288
291 291 292 291 291 291 290 287 292 291 285 286 287 285 290 293 286 285 285 292 292 292 292 292 293 293 294 293 292 291 292 292 293 292 292 292 291 291 291 291 291 290 291 291 292 292 290 290 290 290 289 289 288 288
292 292 291 291 292 291 289 284 286 286 285 285 287 292 293 288 286 286 290 292 292 292 292 292 293 293 293 292 292 292 292 292 292 292 292 291 291 290 289 289 290 290 290 292 291 290 290 290 290 289 289 288 288 287
292 291 292 292 293 293 293 293 293 291 285 286 284 287 287 289 285 289 292 292 292 293 293 293 293 292 292 292 292 292 292 291 291 291 290 290 290 289 289 289 290 290 290 291 291 290 290 290 290 290 289 288 288 287
291 292 289 292 292 293 289 289 286 287 286 293 292 287 287 286 287 292 292 293 293 293 293 292 292 292 292 292 292 292 291 290 290 290 289 288 288 288 289 290 290 291 290 290 291 290 290 290 290 289 288 288 288 286
291 292 292 292 293 293 293 289 290 293 292 292 289 286 291 292 292 292 292 292 292 292 292 292 292 292 292 292 291 291 290 289 288 289 289 289 288 288 288 288 289 290 289 289 290 290 290 290 290 290 289 288 286 286
291 291 292 292 285 286 292 292 292 291 292 292 292 292 292 292 292 292 292 292 292 292 293 293 292 291 290 290 289 288 288 288 288 288 288 288 287 287 287 287 287 288 288 288 288 288 288 289 288 288 288 287 286 286
291 291 292 292 290 291 291 291 291 292 292 292 292 292 292 292 292 292 292 292 292 292 292 290 289 289 288 287 287 287 287 287 287 287 287 287 286 286 287 287 287 287 286 286 286 286 285 286 286 286 286 285 285 284
291 291 291 290 291 291 292 292 292 292 292 292 293 292 292 292 292 292 292 291 291 290 288 287 286 286 286 286 285 285 285 285 285 286 286 286 286 285 285 285 285 285 285 285 285 285 284 284 284 284 283 282 282 281
291 291 291 291 291 291 291 291 291 291 291 291 291 292 293 293 292 288 285 286 286 286 286 285 285 284 283 283 283 283 284 285 285 285 284 285 284 284 284 284 284 284 284 284 283 283 283 283 282 282 282 281 281 280

GFSWCAN_850_thetae_012.txt.gz
Theta_e
312 314 313 313 313 313 313 314 314 314 314 315 315 315 315 315 316 316 316 317 317 317 317 318 318 317 318 318 307 316 314 312 307 309 308 305 309 306 308 308 307 307 305 309 305 309 311 310 310 310 309 310 310 310
308 311 314 313 313 313 313 313 314 314 314 315 315 315 315 316 316 316 316 316 317 317 317 317 317 317 317 318 318 317 316 314 314 306 306 302 307 306 306 313 309 311 309 307 307 306 308 310 310 310 310 310 310 310
307 308 312 313 312 313 313 313 313 314 314 314 315 315 315 315 316 316 316 316 316 316 315 315 314 314 316 317 317 317 317 317 316 315 309 305 309 305 312 311 310 309 310 306 308 310 310 310 310 310 310 310 309 306
306 308 309 312 314 313 313 312 313 313 313 314 314 315 315 315 315 315 316 315 315 315 314 314 314 313 313 314 314 314 315 316 316 316 314 305 308 310 309 312 311 311 311 310 311 310 310 310 310 310 309 307 305 303
304 307 308 309 311 313 312 312 312 312 313 313 315 315 315 315 315 315 314 314 314 315 311 313 313 313 313 313 313 313 314 315 314 315 311 307 309 308 306 305 308 311 311 310 312 311 310 310 309 308 307 304 302 302
302 304 306 308 307 308 310 312 313 313 313 313 313 313 313 313 313 312 312 313 313 313 313 306 312 312 312 313 312 312 311 312 314 314 314 314 313 311 308 310 311 311 311 311 311 311 311 309 306 305 302 301 300 300
300 300 301 303 304 306 306 308 310 312 312 312 312 311 313 313 313 312 312 312 312 312 313 311 309 309 309 310 311 311 311 311 312 313 314 314 313 312 304 312 312 311 312 311 311 310 309 307 302 301 300 300 299 298
300 300 300 301 301 302 303 304 305 307 309 310 310 311 313 312 312 311 312 312 311 312 311 306 305 307 307 308 309 310 311 311 312 312 310 311 310 311 309 311 311 311 311 310 307 305 303 301 301 300 299 297 298 298
299 300 300 301 302 302 303 303 303 304 305 308 310 310 310 309 308 309 310 310 310 311 308 304 305 307 306 308 308 307 307 304 307 304 306 308 303 308 308 309 310 309 308 305 302 301 300 298 295 294 294 294 296 296
299 300 300 301 300 300 302 303 304 305 306 307 308 308 306 306 306 306 305 307 308 305 304 301 303 304 306 306 304 304 303 302 304 303 305 304 307 308 308 308 308 304 302 301 300 299 298 295 294 292 292 293 294 294
298 299 301 300 300 301 301 302 303 305 305 306 305 303 303 302 304 304 303 302 301 300 300 300 301 303 305 304 302 302 301 301 303 298 304 300 302 303 304 302 302 301 300 299 299 297 295 294 294 292 292 292 294 294
297 298 300 299 299 300 301 301 302 303 303 303 304 302 302 302 301 300 300 299 299 299 300 299 301 303 303 303 301 300 301 300 300 298 298 302 297 299 299 299 299 299 298 297 297 296 295 295 294 292 293 294 294 294
296 298 299 299 299 299 300 301 301 302 302 302 301 300 299 299 297 295 300 300 299 299 301 301 301 301 301 300 299 294 297 295 297 300 300 296 300 299 299 298 297 296 296 295 295 294 295 295 293 292 293 293 294 294
296 297 298 299 299 299 300 300 300 300 300 296 297 294 294 294 295 294 296 299 299 300 301 300 299 298 298 296 298 298 295 297 298 300 296 294 298 297 296 295 294 294 294 294 292 293 294 293 292 291 292 294 295 295
297 298 298 299 299 298 299 299 299 299 298 294 295 293 294 297 298 298 298 298 299 299 298 297 297 298 294 291 295 294 292 298 298 293 292 297 296 295 294 294 294 294 293 293 293 293 293 292 292 292 293 294 294 293
297 298 298 299 298 298 298 298 299 298 297 293 294 293 297 296 296 296 297 298 298 297 297 297 292 288 289 288 289 291 291 292 291 291 296 295 295 294 294 294 293 292 292 293 293 292 293 293 293 293 293 293 293 292
296 298 297 298 297 297 298 297 297 297 294 293 294 295 296 296 296 295 296 297 298 295 290 293 288 291 291 286 289 292 289 289 296 295 295 295 294 293 292 292 292 293 293 292 292 292 292 293 293 293 293 293 292 292
297 297 297 297 296 296 297 295 294 293 292 293 294 294 296 295 296 296 296 296 297 296 295 290 294 289 287 287 287 288 295 293 293 294 294 294 293 292 293 293 293 292 292 292 293 293 293 293 293 292 292 292 293 292
294 294 295 295 296 295 294 294 293 293 293 294 294 295 294 294 294 295 295 295 296 296 294 294 284 285 286 291 292 293 293 294 294 293 292 292 293 294 293 293 292 292 292 293 293 293 293 293 292 292 293 293 292 291
293 293 294 295 294 293 292 293 293 293 294 294 294 294 294 294 294 294 295 295 294 294 294 293 288 292 293 292 293 293 293 292 292 292 293 293 293 293 293 292 292 292 292 292 292 292 292 291 291 291 291 291 291 290
293 294 294 293 293 293 293 292 292 292 292 293 293 294 293 293 293 293 293 294 293 292 292 293 293 293 292 292 291 291 291 292 293 293 293 294 293 293 293 292 292 293 292 292 292 292 291 291 291 291 291 291 291 290
293 293 292 292 292 292 292 291 291 291 291 292 292 293 293 293 294 294 294 293 293 292 292 292 292 291 291 291 292 292 293 293 293 293 293 293 293 293 293 292 293 292 291 292 292 291 291 291 291 291 291 291 290 290
292 292 292 292 291 290 290 291 292 292 291 292 292 291 291 292 292 293 294 293 293 292 292 292 292 292 292 292 292 293 293 293 293 293 293 293 293 292 292 292 291 291 291 291 291 290 291 290 290 291 291 290 290 290
291 291 291 291 290 288 290 291 292 292 292 290 282 283 285 292 293 293 284 293 292 292 292 292 292 292 292 292 292 293 293 293 292 292 292 292 292 292 292 292 291 290 290 290 290 290 291 292 291 291 290 290 290 290
291 291 290 289 289 291 286 283 290 287 283 280 281 279 288 292 283 279 283 292 291 291 291 292 292 292 292 293 293 292 292 292 291 292 291 291 292 292 291 290 289 289 289 289 290 291 291 291 290 290 290 289 289 289
286 291 290 290 290 286 285 281 279 282 277 280 282 291 292 284 281 284 287 292 291 291 291 292 293 293 293 292 292 292 292 292 292 292 292 292 291 290 289 288 288 288 290 289 289 290 290 290 290 290 290 289 289 289
287 286 291 291 291 291 290 291 291 286 280 282 280 283 281 287 284 287 292 291 291 291 293 293 293 292 292 292 292 292 292 292 292 292 291 289 289 289 288 288 288 289 289 289 289 289 290 291 290 289 290 290 289 288
292 291 288 291 292 292 287 284 280 282 282 291 289 283 286 285 286 291 291 292 292 292 292 292 292 292 292 292 292 292 292 292 291 290 289 288 289 288 288 288 287 287 287 288 289 290 289 290 290 290 290 289 289 288
290 291 292 291 291 292 292 288 288 292 292 292 285 281 288 291 292 291 291 291 292 291 291 292 292 292 292 292 291 291 290 288 288 288 287 287 287 288 287 287 287 287 288 288 288 288 289 288 289 289 289 289 289 288
290 291 292 290 286 286 292 292 292 291 291 291 291 291 291 291 291 291 291 292 292 292 292 292 291 291 291 290 289 288 287 287 287 287 287 286 286 286 285 286 287 287 287 287 287 286 286 287 287 288 288 288 288 287
291 291 291 291 287 291 291 291 291 291 291 291 291 291 291 291 291 291 292 292 292 292 292 291 290 289 288 288 288 287 287 286 286 286 286 286 286 285 285 285 285 285 285 285 285 285 285 285 285 286 286 286 285 285
291 291 291 286 290 290 291 290 291 291 291 291 291 291 291 291 291 291 290 289 288 288 288 287 286 286 285 285 285 285 284 284 284 285 285 285 285 285 284 284 284 284 284 284 284 284 284 284 284 284 283 283 283 282
289 289 289 290 289 290 289 289 290 290 290 290 289 289 290 290 290 284 282 283 284 284 284 284 284 284 283 282 282 282 283 283 283 283 283 283 284 283 283 283 283 283 283 283 283 283 282 282 282 282 282 281 281 280

GFSWCAN_850_thetae_015.txt.gz
Theta_e
311 314 312 312 312 312 312 312 313 314 314 314 315 315 315 314 314 314 315 316 316 316 316 317 317 318 317 317 307 315 313 311 306 305 302 302 297 304 307 307 306 306 305 304 304 307 309 308 310 310 309 310 309 309
307 311 314 312 312 312 312 313 313 313 314 314 315 315 315 315 315 316 316 316 316 316 316 316 316 317 317 317 317 315 315 313 314 306 305 301 306 301 303 312 307 311 308 306 306 308 308 310 310 310 309 309 309 309
305 309 311 313 312 312 312 312 313 314 314 314 315 315 315 315 316 316 316 316 316 315 315 315 315 316 316 317 317 318 317 317 315 314 308 304 309 303 308 310 310 310 310 307 309 309 309 310 311 310 310 310 309 306
304 308 309 312 312 312 312 312 312 313 313 314 314 314 315 315 315 315 315 315 315 315 313 314 314 314 313 313 314 314 314 315 316 315 313 304 307 309 308 311 310 311 310 310 310 311 311 311 310 310 310 308 304 303
303 306 308 310 313 313 312 313 312 312 312 313 313 313 314 315 315 315 315 315 315 315 311 313 313 313 313 313 313 313 313 313 314 314 308 306 310 308 307 305 307 311 310 310 311 312 311 310 310 308 307 303 301 299
303 304 308 308 310 313 311 313 312 313 313 313 313 313 314 315 315 314 314 313 313 314 314 306 313 312 312 312 313 314 314 314 313 313 312 312 313 311 307 309 311 312 312 312 311 311 311 310 306 302 300 299 299 299
302 302 303 305 306 308 310 312 313 312 312 313 313 313 314 314 314 313 312 312 312 313 312 311 309 310 310 311 311 312 312 312 312 312 312 312 311 312 304 312 312 312 312 311 311 310 308 303 300 299 298 299 297 296
300 300 301 301 304 306 305 307 310 312 312 312 312 313 313 312 312 312 312 312 312 312 311 305 305 308 307 308 309 309 310 310 311 311 310 308 310 310 308 311 311 310 309 308 307 306 304 300 297 295 293 293 293 292
299 300 301 302 302 302 303 305 306 308 309 311 311 311 311 310 309 309 311 311 311 311 311 304 305 308 307 307 308 307 307 304 306 305 305 307 304 308 308 308 307 307 306 305 302 299 297 296 294 294 294 293 292 291
299 300 301 301 302 302 302 302 303 304 306 308 309 308 306 307 306 306 307 308 308 306 305 302 303 304 307 307 306 305 304 302 305 303 304 303 305 305 301 303 302 301 301 300 299 300 296 295 295 294 294 292 292 293
299 300 301 300 300 300 302 304 304 306 306 307 306 304 302 304 305 306 304 303 302 301 300 300 301 303 304 304 303 304 301 301 302 297 303 299 298 298 298 299 298 298 298 297 297 297 296 294 294 294 294 291 292 293
298 300 300 299 301 301 303 304 304 305 305 305 305 303 303 303 303 301 301 299 299 300 299 299 301 303 303 303 303 299 301 299 296 296 300 300 297 298 299 299 298 297 295 295 294 294 292 292 294 294 293 292 291 293
297 299 299 299 300 301 300 302 303 304 304 304 303 302 300 299 298 296 300 299 299 298 300 301 300 301 301 301 299 297 299 298 297 298 297 296 299 298 297 296 294 293 294 293 291 292 292 293 293 293 293 292 292 293
297 299 299 299 299 300 300 301 301 302 301 299 299 295 292 292 296 293 292 296 299 300 300 301 298 298 297 296 297 297 293 296 299 296 295 295 297 296 294 293 293 293 293 292 292 292 292 292 291 292 292 292 293 293
297 299 299 299 299 300 300 300 301 301 298 294 295 290 293 296 296 298 298 299 299 299 299 298 297 296 294 290 295 294 294 297 298 293 291 296 294 294 294 294 293 292 292 293 292 292 291 292 292 292 292 292 293 292
297 297 298 299 299 299 299 299 299 299 297 293 294 292 295 296 295 297 297 297 298 298 297 297 290 286 288 286 291 293 290 291 290 290 295 294 294 294 293 292 292 292 293 292 291 291 292 292 292 293 293 293 292 292
297 297 297 298 298 298 298 298 298 297 296 293 293 295 296 296 296 297 297 297 297 296 289 292 288 290 289 284 287 291 288 288 295 293 294 294 293 292 292 292 293 293 292 291 292 292 292 292 292 292 292 292 291 292
297 297 297 297 297 297 297 297 296 295 293 292 294 294 296 296 295 295 296 296 297 296 295 289 292 286 284 286 286 288 294 294 293 293 292 292 291 292 293 293 293 292 292 292 292 292 292 292 292 292 291 291 291 291
296 297 296 297 296 296 295 295 295 292 292 293 294 294 294 295 295 295 295 295 296 296 295 294 282 284 286 290 291 292 292 293 293 292 291 291 292 293 293 293 292 292 292 292 292 292 291 292 291 291 290 290 290 290
296 296 296 295 295 295 293 293 293 293 293 293 294 294 294 294 294 294 294 294 295 295 294 293 288 292 293 293 293 292 292 292 291 291 292 292 292 293 293 293 293 293 292 291 291 291 291 291 290 290 290 290 290 291
294 295 295 295 294 293 292 292 292 292 292 293 293 293 293 293 293 293 293 293 294 293 293 294 293 293 293 293 292 292 291 291 292 292 293 293 293 293 293 293 292 292 292 291 291 291 291 290 290 290 290 290 290 290
294 294 293 293 293 292 291 291 291 291 291 292 292 293 293 293 293 293 293 291 293 292 292 292 292 292 292 291 291 292 292 292 292 292 292 293 293 293 292 292 292 292 292 291 290 290 290 289 290 290 290 290 290 290
293 293 292 292 291 291 290 291 291 292 290 292 292 291 291 292 292 291 292 292 293 291 291 291 292 292 292 292 292 292 292 292 292 293 293 292 292 292 291 291 292 292 291 291 288 289 288 290 290 290 290 290 290 290
292 292 292 291 290 288 291 290 291 292 291 290 282 282 284 291 291 292 284 292 292 291 292 292 292 292 291 291 291 292 292 292 293 292 292 291 291 292 291 291 291 291 289 288 288 288 289 289 290 290 290 290 290 290
291 291 290 288 288 289 282 283 287 287 284 278 280 278 287 291 282 278 282 292 291 291 291 291 291 291 292 292 292 292 292 292 291 292 292 292 292 292 291 291 290 289 288 288 289 288 288 288 289 290 290 290 290 289
283 289 289 289 288 284 284 281 283 281 275 278 279 290 289 282 280 283 286 291 291 291 291 291 291 292 292 292 292 292 292 292 292 292 292 292 292 290 289 288 288 289 288 287 287 287 288 288 289 289 290 290 290 289
282 287 289 290 290 290 287 287 287 284 277 281 279 280 278 283 282 286 291 291 291 291 291 292 292 292 292 292 292 292 292 292 292 292 292 291 290 288 287 287 288 287 287 287 286 287 287 288 288 288 289 289 289 289
291 289 288 290 290 291 286 282 278 281 281 289 287 281 285 284 285 291 291 291 291 291 291 291 291 291 291 291 292 292 291 291 291 290 289 289 288 287 286 287 287 287 287 286 286 286 287 287 288 288 288 289 289 289
290 291 290 290 291 291 291 288 288 291 292 291 284 280 288 291 291 291 291 291 291 291 291 291 291 291 292 291 291 290 290 290 288 287 287 287 287 287 286 286 286 287 287 287 286 286 286 286 287 287 287 288 288 288
290 290 291 290 289 289 292 292 292 292 292 292 292 291 291 291 291 291 291 291 291 291 291 291 291 290 290 290 290 289 288 288 287 287 287 286 286 286 285 285 285 286 286 285 285 285 285 285 286 286 286 286 287 287
290 290 290 290 287 291 291 291 291 290 290 290 290 290 290 290 290 290 290 290 290 290 290 289 289 288 288 288 287 287 286 286 286 285 285 285 285 285 285 284 284 284 284 284 284 284 284 284 284 284 284 284 284 284
291 290 290 280 289 290 289 289 289 289 289 289 289 290 290 290 290 287 286 285 284 285 285 284 285 285 285 284 284 284 283 283 284 283 283 284 284 284 284 284 284 284 283 283 283 283 283 283 282 282 282 282 282 282
289 289 289 288 288 287 286 286 286 287 286 286 286 287 288 288 282 278 278 278 279 280 282 282 283 283 282 282 281 282 282 282 282 282 282 282 282 283 283 283 283 282 282 282 282 281 281 281 281 280 280 280 280 280

GFSWCAN_850_thetae_018.txt.gz
Theta_e
311 312 313 311 311 311 311 311 311 311 311 312 313 314 314 314 315 315 315 315 316 315 315 316 316 316 315 315 307 313 312 310 305 305 303 301 296 304 306 307 305 306 304 303 304 307 307 307 309 309 309 309 310 310
307 312 314 312 312 311 311 311 311 312 313 313 314 314 314 314 314 314 315 315 315 315 315 316 317 317 317 317 317 315 313 312 312 305 303 299 300 297 302 310 306 308 308 308 308 306 307 308 309 310 310 309 309 308
306 306 311 313 312 311 311 311 312 312 313 314 314 315 315 315 315 315 315 316 316 315 315 315 315 316 316 316 316 317 314 315 315 313 307 301 304 301 309 306 307 308 309 307 308 309 308 311 311 312 310 309 309 306
305 306 308 312 311 312 311 311 311 312 313 314 314 314 315 315 315 315 316 316 315 315 313 314 313 313 314 314 314 315 317 316 315 314 311 303 307 308 308 310 310 310 310 309 310 311 311 311 311 310 310 307 304 301
304 304 306 308 312 311 311 311 311 312 312 313 314 314 314 314 315 315 315 315 315 315 311 313 312 312 312 312 313 313 314 314 315 313 308 306 309 308 306 305 307 311 310 310 311 311 311 310 308 307 304 299 297 297
304 304 306 308 309 312 311 312 312 311 312 312 312 313 314 313 314 313 314 313 313 313 313 307 312 312 312 312 312 313 313 313 314 314 312 312 313 311 307 308 311 311 311 312 311 311 309 306 305 302 300 297 296 294
303 303 304 306 307 310 313 312 312 312 312 312 312 313 314 313 314 314 313 312 312 313 313 311 309 311 310 310 310 311 312 313 313 312 311 312 311 311 303 312 311 311 311 311 310 309 307 303 302 297 293 294 294 295
300 300 303 304 304 305 308 312 312 312 313 312 312 312 313 314 313 313 314 312 312 313 311 306 305 308 308 308 308 309 310 310 310 310 309 308 309 309 308 308 307 306 306 306 305 305 301 297 294 294 295 295 294 292
300 300 300 301 303 303 304 306 310 312 313 312 312 313 313 312 312 312 312 313 312 311 312 305 306 308 307 307 308 307 307 304 306 305 306 306 303 308 301 300 300 302 304 298 297 297 297 297 296 295 294 294 294 292
299 300 301 302 302 301 302 302 305 308 310 310 310 309 306 307 307 307 306 307 309 307 305 304 304 305 307 307 306 306 304 302 304 302 303 302 304 298 298 298 298 298 298 299 299 298 295 294 294 294 294 294 294 292
299 300 301 301 301 302 302 302 302 304 306 307 306 302 302 304 305 303 304 303 301 301 301 301 302 303 304 304 303 304 302 301 302 296 302 302 302 297 298 298 297 296 295 294 294 293 292 292 292 293 292 292 293 293
299 300 300 300 300 303 304 304 304 305 306 306 305 302 301 303 303 303 301 299 300 301 299 299 301 302 303 303 303 299 301 299 300 295 297 295 296 298 297 296 294 293 293 293 292 291 291 292 292 292 291 291 292 292
299 300 299 300 301 302 303 304 304 305 305 305 304 303 301 300 301 302 299 298 299 299 300 300 300 301 301 302 299 299 298 294 295 295 295 294 297 297 296 293 292 292 292 292 292 292 292 292 291 291 292 292 292 292
298 300 299 300 300 300 302 303 303 303 302 302 301 298 295 296 295 293 293 295 298 299 300 300 298 298 297 297 296 297 294 294 296 294 294 292 297 295 294 293 293 292 292 291 292 292 291 291 291 291 291 292 292 292
297 300 299 299 300 300 301 302 302 302 298 296 296 293 292 295 296 297 298 299 299 299 300 298 296 296 293 291 294 293 295 296 293 291 288 296 294 294 294 293 292 291 292 293 292 291 291 291 292 292 292 291 292 291
297 299 299 299 300 300 300 300 301 300 298 294 294 292 294 295 294 296 297 298 299 299 297 297 289 286 289 289 293 294 292 290 289 289 294 294 294 294 293 291 291 292 293 292 292 291 292 292 292 291 291 291 290 290
297 298 298 299 299 299 299 299 298 298 296 293 293 294 295 294 295 296 297 297 297 298 293 291 286 288 288 284 288 288 286 286 294 293 293 293 292 291 291 291 291 292 292 292 292 292 292 291 291 291 291 291 290 289
297 297 298 298 299 298 298 298 297 296 294 293 293 294 295 295 296 296 296 297 297 296 293 290 291 284 283 285 284 286 294 295 292 292 292 291 291 291 291 292 293 292 292 292 292 292 291 291 291 291 290 290 290 290
297 297 298 298 298 297 297 296 296 293 292 292 294 294 295 295 295 295 296 296 297 296 296 293 281 284 285 289 292 292 291 292 292 292 292 291 291 291 292 292 292 293 292 292 292 291 291 291 290 290 289 290 290 290
297 297 297 296 296 296 294 294 294 293 292 293 293 294 294 294 293 294 294 295 295 295 295 292 288 292 292 293 293 293 293 293 292 291 291 291 292 292 292 293 293 292 292 292 291 291 291 290 290 290 289 290 290 290
296 296 296 296 294 294 292 292 292 292 293 293 293 293 293 293 293 293 293 294 294 294 293 294 294 294 294 294 293 292 292 291 291 291 292 292 292 292 292 292 292 292 291 291 291 291 291 288 288 289 289 289 290 290
295 295 294 294 293 292 291 291 291 291 291 292 292 293 293 292 292 292 292 290 291 292 292 292 291 291 291 291 291 291 291 292 292 292 292 292 292 293 292 291 291 291 291 291 291 290 289 287 288 289 289 290 290 289
294 294 293 293 292 291 290 291 291 291 290 291 291 290 291 291 291 291 290 290 291 291 291 291 291 291 291 292 292 291 291 291 291 292 292 293 292 292 291 291 291 291 291 291 289 288 288 288 288 288 289 290 289 289
293 293 292 291 290 288 290 290 291 291 291 289 281 282 282 290 289 288 285 291 291 291 291 291 291 291 291 291 291 291 291 292 292 291 291 291 291 291 291 291 291 291 290 289 288 288 288 288 287 287 288 289 289 289
292 290 290 287 287 286 284 288 287 286 282 275 280 278 286 288 281 279 281 291 291 291 291 291 291 291 291 291 291 292 292 292 292 291 291 291 291 291 291 291 291 289 288 288 287 287 287 286 286 287 287 288 289 289
282 288 288 287 287 283 281 278 283 281 274 277 281 287 286 280 280 283 285 291 291 291 291 291 291 291 291 292 292 292 291 291 292 291 291 292 292 292 291 290 288 288 287 286 285 285 285 285 285 286 287 288 288 288
283 286 288 288 289 288 286 285 285 283 275 280 278 278 276 282 281 286 291 291 291 291 291 291 291 292 292 291 291 291 291 291 291 291 291 290 290 289 288 288 287 287 286 287 286 284 285 285 286 286 286 287 287 288
290 289 286 288 289 289 284 281 275 279 280 288 285 280 283 282 284 291 291 291 291 291 291 291 291 291 291 291 291 291 291 291 291 290 290 289 287 287 287 287 286 286 286 286 286 285 285 285 285 285 286 286 287 287
289 290 289 287 289 290 290 287 287 291 291 290 285 282 288 291 291 291 291 291 291 290 290 290 290 290 290 291 291 290 290 289 289 289 288 287 286 286 286 286 285 285 285 285 285 285 284 284 285 284 284 285 285 286
289 289 290 288 284 283 291 291 291 292 292 291 291 291 290 290 290 290 290 290 290 290 290 290 289 289 288 288 288 289 289 288 287 287 286 286 285 285 285 285 285 285 284 284 284 284 284 284 284 284 283 283 283 284
290 289 290 290 289 291 291 291 290 289 289 288 287 287 287 288 288 287 286 285 285 286 286 285 285 286 286 285 285 285 285 285 285 285 284 284 284 284 284 284 284 284 283 283 283 283 283 283 283 282 282 282 282 282
289 289 289 279 288 290 289 287 286 286 285 286 286 286 286 287 285 280 277 279 279 281 281 281 282 282 282 282 282 282 282 282 282 282 282 282 282 282 282 283 283 282 282 282 282 282 281 281 281 280 280 280 280 280
287 288 288 287 287 286 286 285 285 285 285 285 285 285 285 282 275 275 275 275 276 276 278 279 280 280 280 280 280 280 280 280 280 280 280 281 281 281 281 281 281 281 280 280 280 280 279 279 279 279 279 278 278 278

GFSWCAN_850_thetae_021.txt.gz
Theta_e
311 314 313 311 312 312 311 310 310 309 309 310 311 312 313 314 315 315 315 315 314 313 314 316 315 314 314 314 311 312 313 311 306 309 310 308 308 309 309 308 307 309 308 307 306 310 311 306 309 311 311 309 310 309
307 311 313 313 311 311 311 311 310 311 311 311 312 313 313 314 314 314 314 315 314 314 314 316 316 316 316 316 315 314 312 312 312 307 304 303 306 301 305 314 305 311 310 311 310 311 307 307 309 309 308 309 308 307
306 306 311 313 313 311 311 311 311 311 312 312 312 313 314 314 314 314 314 315 314 314 315 315 315 316 316 317 317 316 314 314 313 313 306 304 309 304 310 308 309 308 307 309 309 311 310 311 311 310 309 308 306 304
305 305 307 311 312 312 311 311 311 312 312 313 314 314 314 314 314 315 315 315 315 315 313 313 313 313 314 315 315 316 316 315 314 313 310 304 308 308 308 311 310 310 309 310 310 311 311 310 310 309 306 305 303 299
305 303 306 306 311 313 311 311 310 311 312 313 314 314 314 314 315 315 315 315 315 315 310 312 312 312 312 312 312 313 313 315 315 313 308 307 308 307 306 306 308 310 311 311 312 311 311 309 305 305 302 300 296 295
304 303 304 306 308 312 312 311 310 311 311 311 313 314 314 313 314 314 314 314 314 314 313 305 311 311 311 312 312 312 312 313 314 313 311 312 312 311 307 308 309 310 311 311 311 311 309 306 302 299 296 294 295 296
302 303 303 306 307 308 311 311 311 310 311 311 312 312 312 312 313 313 313 312 313 313 312 310 309 310 310 310 310 310 311 312 312 312 310 311 311 311 304 310 310 307 307 308 308 307 303 301 298 294 295 296 296 294
300 300 302 304 305 308 311 311 311 311 311 311 312 312 313 313 314 313 313 313 312 312 311 305 306 308 307 308 308 308 309 310 310 310 308 309 308 309 308 305 301 302 303 303 302 304 299 295 296 297 296 294 293 293
300 300 300 303 304 305 307 310 312 311 311 312 313 313 313 313 312 312 312 313 312 312 312 306 306 308 307 306 307 307 308 305 306 305 305 306 304 308 301 298 299 301 302 297 297 297 298 297 294 292 292 292 292 292
299 299 301 302 301 303 304 306 309 312 311 312 312 311 308 308 310 311 311 311 310 310 307 305 306 305 307 306 304 306 305 302 306 303 303 303 305 297 298 298 298 298 298 299 297 293 291 291 291 291 292 292 292 291
299 299 300 301 302 301 303 304 306 308 310 309 305 303 304 304 305 305 304 304 302 301 301 301 302 303 304 304 304 305 303 301 304 300 303 304 304 297 297 296 295 294 293 292 292 291 292 292 292 292 291 291 291 291
299 300 300 300 300 302 302 301 303 304 302 302 304 300 301 301 301 301 301 299 300 303 299 300 301 302 302 304 304 300 302 300 301 296 300 300 298 297 297 295 294 293 292 292 291 291 291 292 291 291 291 291 291 291
299 300 300 300 302 303 303 302 302 301 301 301 301 300 300 299 302 303 302 299 300 298 299 300 300 301 301 302 299 300 300 299 295 297 299 297 297 297 295 293 293 293 292 291 291 291 292 292 291 291 291 291 291 291
298 300 299 300 302 302 303 304 304 303 302 301 301 300 298 299 297 295 296 296 298 299 300 300 298 298 297 298 295 299 295 295 299 297 297 296 297 296 295 293 293 292 291 291 291 292 292 291 291 291 291 291 291 291
298 300 299 300 301 301 303 303 302 300 297 297 297 296 295 294 296 297 298 298 299 300 300 298 296 297 294 295 295 294 296 297 296 296 294 297 295 294 294 294 293 291 290 291 292 292 292 292 291 291 291 291 290 291
298 299 299 299 300 301 302 302 302 301 297 294 294 293 294 295 295 296 298 298 299 299 298 297 290 293 294 293 294 295 294 294 293 291 296 294 294 293 292 291 290 290 291 292 292 292 292 292 291 291 290 290 290 290
298 299 298 298 300 300 300 300 300 299 296 293 292 294 295 294 295 296 297 298 299 298 293 291 291 292 289 290 292 292 291 291 294 292 292 293 292 291 290 291 290 291 292 292 292 292 292 292 291 291 290 290 290 290
298 298 298 298 299 300 299 298 297 296 293 293 293 294 295 295 296 296 296 297 297 297 294 291 289 287 289 290 290 288 293 294 293 292 292 292 292 291 291 291 291 291 292 292 292 292 291 291 291 291 290 290 289 289
297 297 298 299 299 298 297 297 296 293 292 293 293 294 295 295 295 295 296 296 296 296 295 293 286 289 289 289 291 293 292 293 292 293 292 291 291 291 291 291 292 292 292 292 292 291 291 291 291 291 290 288 289 289
297 297 298 298 298 296 295 294 294 293 292 293 293 293 293 293 294 294 295 295 295 295 295 292 290 292 292 293 293 293 293 293 293 292 291 291 291 291 291 291 292 292 292 291 291 291 291 291 291 289 287 287 288 289
297 296 297 297 295 294 293 293 293 292 292 293 293 293 293 293 293 293 293 294 294 294 293 294 294 294 294 294 294 293 292 292 291 291 291 291 291 291 291 292 292 292 291 291 291 291 291 290 289 287 287 288 288 288
295 296 296 294 294 292 291 291 292 291 292 291 292 292 292 292 291 291 291 291 291 292 293 293 292 292 291 291 291 291 291 291 291 291 291 291 291 291 292 292 291 291 291 291 291 291 291 289 288 287 287 287 287 287
295 294 294 293 292 291 290 291 291 290 288 289 290 290 290 291 289 289 288 289 290 291 291 291 291 291 291 291 291 291 291 291 291 291 291 291 291 291 291 291 291 291 291 291 291 290 289 288 288 287 287 287 287 288
294 293 292 291 290 287 290 290 290 290 290 287 281 283 283 288 287 287 287 288 291 291 291 291 291 291 291 290 291 291 291 291 291 292 291 291 291 291 291 291 291 291 291 290 289 288 286 286 286 286 285 285 286 287
292 289 290 286 287 285 278 288 287 288 281 279 283 281 285 287 281 284 286 289 291 291 291 291 291 291 291 290 291 291 291 292 291 291 291 291 291 291 291 291 291 291 290 288 288 286 285 285 284 285 285 285 285 287
282 287 287 286 286 282 281 283 284 285 281 279 283 284 284 280 281 285 285 291 291 291 291 291 291 291 291 291 291 292 291 291 291 291 290 291 291 291 290 289 289 288 287 286 286 286 284 284 284 285 285 286 286 286
284 286 287 287 288 287 284 283 283 281 280 281 278 277 276 282 282 286 291 291 291 291 291 291 291 291 291 291 291 291 291 291 291 291 290 290 290 289 289 288 287 287 286 286 285 285 285 284 285 285 285 285 285 285
289 287 285 287 288 288 282 280 276 282 280 287 284 281 283 283 285 291 291 290 290 290 291 291 291 290 290 291 290 290 291 290 290 290 289 289 289 288 287 286 286 286 286 285 284 284 284 284 284 284 284 283 283 283
289 289 289 286 285 285 288 286 286 290 290 289 284 280 288 290 290 289 290 290 290 290 289 289 290 290 290 289 289 289 289 289 289 289 288 288 287 286 286 285 285 285 284 284 284 284 284 284 283 283 283 283 282 282
287 288 288 284 283 282 291 291 291 291 291 290 290 290 290 289 287 285 285 285 285 285 285 284 283 283 284 285 286 286 285 286 286 285 285 285 284 284 284 284 284 284 284 284 284 283 283 283 283 282 282 282 282 282
289 287 288 288 288 291 291 290 290 289 288 287 286 286 286 285 283 281 280 279 279 279 280 281 281 281 280 281 282 282 282 282 282 282 282 282 282 282 282 282 282 282 282 282 282 282 282 281 281 281 280 280 280 280
288 287 287 283 288 289 289 288 287 286 285 285 285 285 285 285 279 277 275 276 277 278 277 277 278 278 278 278 278 279 279 279 280 280 280 280 280 280 281 281 281 281 281 281 280 280 280 279 279 279 279 279 278 278
285 285 285 285 286 285 285 285 285 284 285 285 284 284 281 278 274 274 274 274 274 274 275 275 275 275 276 276 277 277 277 277 277 278 278 278 279 279 279 280 280 280 279 279 279 279 278 278 278 278 277 277 277 276

GFSWCAN_850_thetae_024.txt.gz
Theta_e
313 313 312 312 312 312 311 310 309 308 308 308 309 310 311 313 315 315 315 314 313 313 315 316 315 316 316 318 322 316 318 316 313 316 317 315 315 317 315 314 314 316 316 314 312 314 315 310 311 314 313 312 311 312
310 312 311 312 312 312 311 310 310 309 309 309 309 311 312 313 314 314 315 314 314 313 315 315 315 314 315 315 317 316 318 316 317 317 311 311 315 309 317 317 312 315 314 315 314 315 313 312 311 311 312 312 310 307
306 309 311 311 312 312 311 310 310 310 310 310 310 312 313 313 314 314 314 314 314 314 315 315 316 316 316 316 315 318 314 315 315 314 313 311 312 314 313 315 315 314 312 314 314 312 313 313 312 309 308 307 304 303
305 306 308 313 313 311 310 311 311 311 311 311 312 312 313 314 314 314 314 314 314 314 314 315 314 315 316 316 316 316 316 315 314 312 310 309 316 314 317 315 314 314 313 313 314 313 312 312 310 307 305 303 301 298
305 304 306 308 312 312 312 311 310 311 311 312 313 313 314 314 314 315 315 315 315 315 314 313 313 313 313 314 315 315 316 316 315 311 309 315 314 311 310 309 311 312 314 314 314 312 312 307 305 303 303 298 297 297
304 303 303 306 307 310 311 311 310 310 311 312 313 313 314 314 314 314 314 314 315 315 314 314 311 311 311 312 312 313 314 314 314 313 312 313 312 312 308 311 311 312 312 312 311 310 307 304 303 298 297 297 297 297
302 302 302 305 307 308 310 312 311 310 310 311 312 312 313 313 313 313 314 312 314 314 313 311 310 310 310 311 311 311 312 312 314 312 311 311 311 311 306 310 309 305 305 306 306 306 302 300 299 297 297 297 296 295
300 300 301 303 305 307 307 310 312 310 310 310 311 311 313 312 312 313 313 312 313 313 312 307 309 308 308 308 308 308 309 310 310 311 308 308 308 309 309 307 303 302 302 303 304 303 302 298 297 298 296 295 294 294
299 300 301 303 303 305 307 309 312 311 310 311 311 312 313 314 314 314 312 312 312 312 311 309 312 312 306 305 306 307 308 308 307 305 305 306 306 310 306 302 301 301 301 300 299 298 296 295 294 294 294 293 293 293
299 299 300 302 301 303 305 307 310 311 311 312 312 312 311 311 311 312 312 312 311 312 310 306 306 308 308 305 305 306 305 307 308 304 303 303 306 299 300 300 300 299 299 299 299 295 294 294 293 293 293 293 292 292
299 299 299 300 301 301 304 306 309 310 311 311 311 308 305 306 309 310 308 306 305 302 302 303 304 304 305 306 304 305 304 303 307 306 307 307 306 301 299 298 297 295 295 295 294 294 293 293 293 293 293 292 292 291
299 299 300 300 300 302 302 303 303 305 304 306 307 303 303 304 302 302 302 299 301 306 300 301 301 302 303 304 303 301 304 303 306 300 303 306 304 300 298 296 295 294 294 293 293 293 292 293 293 293 291 291 291 291
299 299 300 300 302 302 301 301 301 301 301 302 303 300 300 299 304 306 305 304 304 300 300 300 300 301 301 302 300 302 306 305 298 301 304 304 300 299 297 296 295 294 292 291 291 292 292 292 292 291 291 291 291 291
298 299 299 300 302 302 302 301 301 300 301 300 300 301 301 303 302 302 303 303 299 299 300 301 298 300 299 300 299 304 300 299 302 302 303 300 299 299 297 296 294 294 292 291 290 291 291 292 292 291 291 291 290 290
298 300 299 300 301 302 302 301 301 300 299 300 300 301 300 295 297 297 298 298 299 300 300 299 298 299 299 299 299 299 300 301 302 302 301 300 299 297 295 294 294 293 291 290 291 291 292 292 292 292 291 291 291 290
298 299 299 299 300 301 301 300 300 300 296 295 295 296 294 298 297 297 298 298 300 300 300 298 298 300 299 299 299 301 300 301 301 299 299 298 295 294 293 291 290 290 290 291 291 292 292 292 292 291 291 291 290 290
298 299 298 300 300 301 300 299 299 298 297 294 294 295 295 296 298 297 298 298 299 298 300 296 299 299 294 298 299 298 299 299 297 297 295 293 292 292 292 291 290 290 291 291 291 292 292 292 291 291 291 291 291 290
297 299 298 299 300 300 299 299 297 296 293 293 295 294 294 294 296 296 297 298 298 297 295 296 292 295 297 298 298 297 295 295 294 292 292 292 292 292 291 291 291 291 291 291 292 292 292 291 291 291 291 291 290 289
298 298 298 298 300 299 298 298 296 294 292 293 293 295 294 295 296 296 297 297 297 296 295 293 295 296 295 293 296 295 294 294 295 294 293 292 292 291 291 291 291 291 291 291 292 292 291 291 291 291 290 289 288 288
298 298 298 298 298 297 295 295 294 293 294 293 293 293 293 293 294 295 295 296 296 295 296 296 296 296 295 294 293 292 292 293 293 293 293 292 291 291 291 291 291 291 292 292 291 291 291 291 291 290 290 288 287 287
296 297 297 297 295 294 293 293 293 292 292 292 292 292 291 292 292 293 293 294 294 295 295 295 295 294 294 294 294 294 293 292 292 292 292 292 292 291 291 291 291 292 292 291 291 291 291 291 290 290 289 288 288 287
296 296 296 295 294 292 291 291 291 291 291 291 292 292 292 293 291 290 291 293 293 294 294 293 293 293 292 291 291 291 291 291 291 291 291 291 291 291 291 291 291 291 291 291 291 291 291 291 290 288 287 287 287 287
295 296 294 293 292 291 290 291 291 290 293 291 291 292 292 292 289 288 290 291 292 291 291 291 291 291 291 291 291 291 290 290 291 291 291 291 291 291 291 291 291 291 291 291 291 291 290 289 287 286 285 285 285 285
295 293 292 291 290 289 290 290 290 290 290 291 292 292 291 290 287 288 290 290 291 291 291 291 291 291 291 290 290 290 290 290 290 291 291 291 291 291 291 291 291 291 291 290 290 289 288 287 286 285 285 285 285 285
293 289 290 288 287 287 290 290 289 290 290 288 290 291 289 285 290 290 291 291 291 291 291 291 291 290 290 291 291 291 291 291 291 291 291 291 290 290 290 291 290 290 289 288 288 287 286 286 285 285 285 285 285 285
289 287 289 288 287 289 288 289 289 288 288 288 289 285 285 290 291 292 292 291 290 290 290 290 290 290 291 291 290 291 291 291 291 291 291 290 291 290 290 289 289 288 288 287 286 286 285 285 285 284 285 285 285 284
289 288 287 287 287 285 285 284 284 287 288 289 290 287 290 291 292 291 289 289 289 289 289 289 290 290 290 290 290 290 290 290 290 290 290 290 290 290 289 289 289 287 286 286 286 285 285 284 284 284 284 284 284 283
288 288 288 287 287 287 287 287 288 289 290 287 288 289 291 291 292 287 287 288 288 289 289 289 289 288 288 288 288 288 288 288 289 289 289 290 290 289 288 288 287 286 285 285 285 284 284 284 284 283 283 283 283 282
289 288 288 286 286 286 288 290 290 289 289 288 291 292 290 286 286 287 286 286 285 284 284 285 285 285 285 285 284 283 284 284 284 285 286 287 287 286 285 285 285 284 284 284 284 283 283 283 283 283 282 282 282 281
288 288 287 287 287 289 291 290 290 290 290 289 289 290 289 286 283 281 280 281 281 281 280 280 280 281 280 281 280 280 280 281 281 280 281 281 282 282 282 282 282 282 283 283 283 283 282 282 282 281 281 280 280 280
287 286 288 288 288 289 290 290 290 290 290 289 288 287 287 281 278 278 278 278 277 277 278 278 278 277 277 277 277 277 278 278 278 278 278 279 279 279 280 280 281 281 281 281 281 281 280 280 280 280 279 279 279 278
286 287 287 288 288 288 288 288 287 287 285 285 284 283 281 279 276 273 275 276 276 276 276 276 276 276 275 275 275 275 275 276 277 277 277 278 278 278 278 279 279 279 279 279 279 279 279 279 279 278 278 277 277 277
283 283 283 282 285 285 285 284 283 283 283 282 280 280 278 276 274 274 274 274 274 274 275 275 275 275 275 274 274 274 275 275 275 275 276 276 276 277 277 278 278 278 278 278 278 277 277 277 277 277 276 276 275 275

GFSWCAN_850_thetae_027.txt.gz
Theta_e
314 314 312 312 312 312 311 309 308 308 308 308 308 309 310 313 315 316 315 314 318 319 319 319 318 320 320 320 325 321 321 321 321 316 317 320 319 319 318 316 317 316 317 315 316 317 316 313 313 316 315 314 313 311
313 313 312 312 312 312 312 310 308 308 308 308 308 309 310 311 314 314 318 314 313 319 321 317 317 318 319 320 320 320 319 321 319 322 317 317 322 317 318 319 315 316 316 317 317 318 315 313 314 313 313 312 309 307
310 313 312 312 312 312 311 311 309 309 309 309 309 309 310 311 313 314 315 314 314 314 318 319 319 315 315 315 319 321 320 319 320 320 318 315 314 317 315 318 316 316 315 318 316 314 313 313 314 311 309 307 306 302
307 310 313 312 312 311 312 311 310 310 310 310 310 311 311 312 313 313 316 314 316 315 316 319 315 316 315 316 316 319 319 317 319 317 314 312 314 317 319 318 317 316 315 315 316 314 313 311 310 309 307 306 300 300
305 307 308 311 312 312 312 311 311 311 311 311 311 312 312 313 313 314 314 314 314 320 317 318 314 314 315 316 317 318 318 318 317 313 310 314 318 317 315 315 316 314 315 317 316 313 312 309 307 306 304 301 300 299
303 303 306 307 311 312 311 311 311 311 311 312 312 313 313 314 314 316 317 315 315 315 314 317 315 313 313 313 317 317 318 318 318 316 313 315 316 315 312 314 312 313 313 312 314 309 309 307 305 303 300 300 299 299
302 302 303 306 307 309 312 312 311 310 311 312 312 313 314 314 314 316 316 316 314 315 313 313 315 311 311 313 314 315 315 314 315 315 314 314 314 313 314 314 312 312 309 307 307 306 304 304 303 301 300 300 298 296
300 301 302 303 306 307 308 311 311 310 311 311 311 312 312 313 313 313 313 312 314 314 313 308 312 311 309 311 311 309 310 311 312 313 310 312 313 312 312 312 311 308 304 304 306 305 305 303 300 300 298 296 296 295
300 300 302 303 304 305 306 308 310 311 310 310 311 313 313 314 313 312 312 313 313 313 311 309 309 311 309 308 307 307 308 311 308 307 307 309 309 312 312 310 306 303 303 303 302 301 300 298 297 296 296 295 295 294
300 300 300 301 301 302 304 306 308 311 312 310 311 313 313 313 313 312 312 312 311 312 312 309 311 311 310 306 306 306 306 311 310 307 304 303 306 304 304 305 304 303 303 301 302 298 297 296 296 295 295 295 294 293
300 299 299 300 301 301 302 305 307 310 311 311 312 310 308 309 312 312 310 309 307 305 305 306 308 309 306 309 308 306 306 305 309 308 308 310 309 307 303 301 301 301 300 297 297 296 296 295 295 294 295 294 293 293
299 299 300 300 301 302 302 305 307 308 306 307 309 306 305 306 305 305 305 301 303 308 301 301 302 304 304 305 303 301 306 304 310 305 306 307 308 304 302 300 299 298 297 296 295 295 294 294 294 294 294 293 293 292
299 299 300 301 302 301 302 303 304 304 304 305 304 301 301 299 303 306 307 307 305 300 300 300 300 302 302 302 300 302 306 308 302 304 305 307 304 302 301 299 298 298 296 293 293 293 293 293 292 292 292 291 292 291
299 299 300 301 302 302 301 302 301 301 302 301 300 302 302 304 304 305 307 305 300 301 301 301 299 300 300 301 301 307 303 303 305 305 306 305 302 302 300 299 298 297 296 294 292 292 292 291 291 292 292 292 291 291
298 299 299 300 301 302 302 302 301 301 300 299 300 303 301 297 297 298 299 299 299 300 301 301 300 302 301 302 303 302 302 304 304 306 305 302 301 300 299 298 297 295 294 292 293 292 292 291 291 291 292 291 291 291
297 299 299 300 300 300 301 301 301 299 296 297 297 299 297 299 298 298 299 299 299 300 301 301 301 303 303 303 302 304 305 304 305 303 302 301 300 298 297 295 293 293 291 291 292 292 292 292 292 292 291 291 291 291
297 299 299 299 300 300 300 300 300 298 296 296 297 297 298 299 299 298 298 299 300 300 302 300 302 302 298 302 302 302 303 303 301 301 300 299 297 295 294 294 293 292 291 292 293 293 292 292 292 292 291 292 292 292
297 298 298 299 300 299 298 297 297 295 296 295 298 296 296 296 297 297 298 298 299 297 298 298 296 298 300 301 302 301 299 299 299 299 296 295 295 294 294 294 293 292 292 292 292 291 292 293 292 292 292 292 292 292
297 298 298 299 299 299 298 297 296 296 295 295 294 294 294 295 296 297 297 298 297 296 296 296 298 299 298 296 298 299 298 297 297 295 295 295 294 294 292 291 291 291 291 292 293 293 293 293 292 292 292 292 291 290
296 298 298 298 299 298 296 296 294 296 297 295 295 295 294 294 294 295 297 296 296 296 297 298 298 298 298 297 296 296 296 295 295 295 295 294 293 293 293 293 293 293 293 293 293 293 293 293 293 292 291 290 289 289
296 296 297 298 298 295 294 295 295 295 294 295 294 295 293 293 294 294 294 295 296 297 297 296 297 297 297 294 294 294 294 294 294 293 294 293 293 293 293 293 293 293 293 293 292 292 291 292 292 291 290 289 287 287
296 296 296 297 294 292 292 292 294 293 295 294 294 295 295 295 294 293 292 294 295 295 296 296 296 295 295 295 294 293 292 291 292 293 292 292 293 293 293 293 293 293 292 291 292 292 292 291 290 290 289 287 286 286
295 296 295 294 293 293 291 292 293 293 295 294 294 295 295 294 292 289 293 293 294 294 294 294 294 293 292 292 291 291 290 290 291 292 292 293 293 293 293 293 293 292 292 292 292 291 291 290 289 288 287 286 286 286
295 294 293 292 293 292 291 292 292 293 293 294 295 295 294 293 289 291 294 294 294 293 292 292 293 293 293 292 292 292 292 292 292 292 292 292 293 293 293 292 292 292 292 291 290 289 288 288 287 287 286 286 286 286
294 291 291 290 290 292 293 293 292 293 294 293 294 294 292 290 293 293 294 294 295 293 291 293 292 292 292 292 292 292 292 292 292 292 292 292 292 292 291 291 291 291 291 289 289 288 288 286 286 286 285 285 285 285
292 289 292 291 290 292 293 293 292 293 293 292 293 291 290 293 294 294 294 293 291 289 288 289 290 291 292 292 291 291 291 290 289 290 290 291 291 291 291 291 290 290 290 289 288 287 286 285 286 285 285 285 284 284
292 291 289 288 290 290 290 290 290 292 292 293 293 291 293 293 294 293 289 287 286 286 287 286 287 287 286 286 286 287 286 286 287 287 287 287 287 288 288 289 289 289 288 288 287 286 285 284 284 284 284 284 284 283
290 290 291 289 290 290 291 292 292 292 293 292 292 292 293 293 294 286 283 284 285 285 284 284 283 283 283 282 282 282 283 283 284 284 284 285 287 286 285 284 284 284 285 285 284 284 284 284 283 283 283 282 282 281
290 290 289 289 290 290 291 292 293 292 292 291 293 294 293 284 282 280 282 283 282 281 281 282 281 281 279 279 279 279 279 279 280 280 279 280 280 282 282 282 282 282 283 283 283 282 283 283 283 282 282 282 281 280
289 289 290 289 290 292 293 292 293 290 290 291 291 290 287 281 280 280 279 279 280 280 279 278 277 276 276 276 276 276 277 277 277 277 276 276 276 278 279 279 279 280 281 281 281 281 281 281 281 280 280 280 279 279
288 289 291 291 292 291 290 289 289 289 290 290 290 289 285 280 277 278 279 278 277 277 277 276 275 275 275 274 274 274 275 275 276 276 276 276 277 277 277 278 278 278 279 279 279 279 279 279 278 278 279 279 278 278
289 289 290 291 291 288 288 288 288 289 289 287 287 284 281 281 280 275 276 277 276 276 276 276 275 274 275 274 273 273 273 273 274 274 275 275 275 276 276 276 277 277 277 277 277 277 277 277 277 277 276 277 276 276
285 286 285 287 288 289 286 285 287 287 286 286 284 282 280 281 279 274 275 276 275 275 275 274 274 274 274 274 273 272 272 272 273 273 273 273 273 274 274 274 275 275 275 276 275 276 276 276 275 275 275 275 275 274

GFSWCAN_850_thetae_030.txt.gz
Theta_e
313 311 312 312 311 310 309 309 308 308 308 308 308 309 310 314 315 315 314 314 321 323 322 322 322 323 322 324 327 322 323 322 324 314 315 319 320 323 320 317 316 315 315 314 316 317 317 314 315 316 316 315 313 310
313 312 311 311 311 312 310 309 308 308 308 308 308 308 309 312 314 315 319 314 314 322 323 322 321 321 321 322 322 321 320 322 321 320 317 320 319 316 318 322 315 319 319 321 317 317 315 315 315 314 313 311 309 307
313 312 312 311 312 312 311 310 309 308 308 308 308 308 309 311 313 315 318 314 316 317 320 319 321 316 318 320 322 322 322 320 320 322 317 314 311 318 315 320 317 316 315 321 319 316 315 314 313 310 309 308 307 303
313 313 312 312 312 312 312 311 309 309 308 308 309 309 309 310 312 313 318 314 319 316 318 321 319 318 315 314 318 321 321 320 321 319 313 310 312 317 321 319 320 319 317 316 317 315 315 312 310 308 308 306 302 301
306 311 313 313 312 311 311 311 310 310 309 309 309 310 310 311 312 313 313 314 315 322 316 320 317 316 315 316 319 319 320 319 318 314 309 312 319 320 318 317 319 316 315 317 318 315 315 311 309 308 305 303 301 300
303 306 309 312 312 311 311 311 311 310 311 311 311 311 312 312 313 316 319 314 314 318 314 314 317 315 314 315 319 319 319 319 319 317 314 318 317 317 315 316 313 312 313 314 315 311 311 309 307 305 303 301 301 300
302 303 305 308 311 312 311 311 311 311 311 311 312 312 313 313 314 318 316 318 314 315 314 312 317 313 313 316 317 317 317 316 316 315 316 316 316 315 310 314 312 312 312 311 308 308 306 306 305 303 302 301 299 297
302 302 305 306 307 309 312 311 311 311 311 312 312 312 313 313 314 315 313 312 314 316 315 308 313 312 311 314 313 312 312 313 313 314 312 312 314 313 313 313 312 312 308 308 307 307 307 305 304 302 300 297 297 296
300 301 303 303 306 306 308 311 312 311 311 312 312 311 312 312 313 314 313 312 314 315 312 307 310 311 311 309 309 308 310 308 309 309 309 311 309 311 312 312 313 308 306 306 305 304 302 301 299 298 297 296 296 295
299 299 300 301 302 304 306 307 309 312 311 310 310 312 312 313 313 312 311 312 312 313 312 308 312 312 311 307 306 306 307 309 309 307 306 304 307 310 310 309 309 305 305 304 303 301 299 298 297 297 296 296 295 295
299 299 300 300 301 301 303 306 308 309 311 311 311 312 310 311 312 312 312 310 310 308 309 310 312 309 309 308 307 307 306 306 310 309 309 308 308 308 307 304 305 304 304 302 300 298 297 296 296 296 295 295 294 293
299 299 300 301 301 302 304 305 307 309 308 309 309 309 307 309 307 307 305 304 303 309 303 303 304 306 305 307 306 303 306 304 310 306 307 308 308 306 304 303 302 301 299 298 297 296 296 295 295 294 294 292 292 291
299 299 300 301 301 301 302 304 306 307 306 306 305 304 303 300 303 306 308 306 306 301 301 301 301 302 303 304 301 301 305 307 304 306 306 307 306 304 303 302 300 299 298 296 295 295 294 292 291 290 291 291 291 291
299 299 300 301 302 301 301 302 303 304 304 302 300 302 302 304 303 303 303 303 301 302 301 301 300 301 300 301 300 306 303 304 306 307 306 306 304 303 302 301 299 299 297 296 295 293 293 292 291 290 291 291 291 291
298 299 299 301 301 302 302 302 302 302 301 300 300 303 302 297 298 298 299 299 300 301 301 301 300 301 301 302 301 303 303 306 306 307 305 303 303 301 300 299 298 297 296 294 293 292 291 291 291 291 291 292 291 291
297 299 299 299 300 301 301 301 301 300 299 298 298 300 298 299 299 298 299 299 300 300 300 301 301 303 303 303 304 305 306 306 306 304 303 302 301 300 299 298 296 294 292 292 291 291 291 292 293 292 292 292 291 292
297 300 299 299 299 300 300 301 300 299 295 298 298 298 299 299 298 298 299 299 300 300 301 301 304 301 300 303 303 303 305 304 302 301 301 300 299 298 296 294 294 294 293 292 292 292 292 292 291 292 292 292 293 293
298 298 299 300 300 300 299 298 297 297 297 298 300 298 298 298 298 298 298 299 299 298 299 299 298 300 302 302 303 303 300 299 300 300 298 296 295 295 295 295 294 294 293 292 292 291 291 292 293 293 293 293 292 292
297 297 298 299 299 299 299 297 298 298 297 296 295 296 296 295 296 297 297 298 298 297 297 296 300 299 301 298 299 299 299 299 298 297 296 295 295 295 294 293 292 291 291 292 293 293 293 293 293 292 292 293 293 292
296 297 298 298 299 299 297 296 297 298 299 297 296 296 295 294 295 296 297 296 296 297 298 299 299 299 299 297 296 296 296 296 296 296 296 295 294 294 294 294 293 293 293 293 293 293 293 293 292 292 292 292 291 290
295 296 297 298 298 297 296 297 297 297 296 297 296 297 294 294 294 294 296 296 296 297 298 297 297 298 298 297 295 294 294 295 295 294 294 294 293 293 292 292 292 293 293 293 293 293 292 292 292 292 291 290 289 288
295 296 296 297 296 294 294 294 296 295 296 295 295 297 294 295 294 294 293 295 296 296 296 296 296 296 296 295 295 294 293 292 291 291 292 292 293 293 293 293 294 293 293 293 292 292 292 292 291 290 289 289 288 287
296 296 296 295 294 294 293 294 294 295 295 296 295 295 295 294 293 291 294 295 296 296 296 296 295 294 293 293 292 291 291 291 292 293 293 293 293 293 293 293 293 293 293 292 292 292 291 290 289 288 288 287 287 286
295 295 293 293 294 293 292 294 294 294 295 296 296 296 295 294 291 293 295 296 295 294 294 294 294 294 294 294 294 293 293 292 293 293 292 292 291 292 292 292 292 292 292 291 291 291 291 290 288 288 288 286 286 286
294 292 293 292 292 293 294 294 294 295 295 295 295 295 293 292 294 294 295 296 294 291 291 293 294 293 293 293 293 292 292 292 291 291 290 289 289 290 290 289 289 289 288 289 291 290 290 289 288 286 286 286 285 285
294 291 293 293 293 295 295 294 294 295 294 295 295 293 292 294 294 295 295 291 289 287 287 288 288 289 290 289 288 287 287 286 286 285 285 285 285 285 286 286 286 286 287 288 288 289 289 287 286 285 285 285 285 284
293 292 291 290 292 292 293 293 293 294 294 294 294 293 293 294 294 293 287 287 286 285 284 284 284 284 284 284 283 283 283 283 283 283 283 283 284 285 284 283 283 282 283 284 285 285 285 285 285 285 284 284 284 283
291 292 291 291 292 292 293 293 293 294 294 294 294 293 294 294 293 285 283 282 283 282 282 282 282 282 281 281 280 280 280 281 281 281 281 283 282 281 281 281 281 281 281 282 282 282 283 282 283 283 283 283 282 282
291 291 291 291 292 292 293 294 294 293 293 293 294 294 292 284 282 281 281 282 282 281 280 280 279 280 278 278 278 278 278 278 278 278 278 277 277 278 278 278 278 278 279 279 280 280 280 280 281 281 281 281 280 279
290 290 292 291 292 294 293 292 293 292 292 293 292 289 285 280 279 280 279 279 279 279 278 278 277 277 276 276 276 276 276 276 275 274 274 274 275 275 276 276 276 277 277 278 278 278 279 279 279 280 279 278 279 277
289 290 292 292 292 291 289 290 289 290 290 291 290 290 284 279 278 279 279 277 276 277 277 276 276 275 276 275 274 274 274 274 273 272 272 273 273 274 274 274 274 275 275 276 276 276 276 277 277 277 277 276 276 276
289 290 291 292 292 289 288 289 290 290 290 289 289 285 282 282 281 276 277 275 274 275 276 276 275 274 275 274 273 273 272 271 271 271 271 270 271 272 272 273 273 273 274 274 274 273 274 274 274 275 274 275 275 274
288 288 288 289 290 290 288 288 288 288 288 288 287 284 282 282 281 276 275 276 275 275 275 275 274 274 272 272 272 272 272 272 272 270 269 269 270 271 271 271 272 272 272 272 272 271 272 273 273 273 274 274 273 272

GFSWCAN_850_thetae_033.txt.gz
Theta_e
313 313 311 309 309 309 309 309 308 308 308 308 308 309 313 315 315 315 314 320 319 323 322 322 323 323 323 323 315 321 315 318 311 309 304 308 311 311 313 315 311 307 307 310 310 309 308 313 314 310 311 313 311 309
313 313 311 309 309 309 309 309 308 308 308 308 308 309 311 314 315 316 314 316 316 322 321 322 322 322 323 323 322 320 317 321 319 310 309 308 312 310 310 311 314 313 311 310 309 308 310 314 314 314 314 311 310 307
313 312 311 310 309 309 309 309 308 308 308 308 308 308 309 312 314 315 315 314 315 316 318 318 318 319 320 322 322 320 321 320 320 319 313 312 310 308 307 309 314 313 315 310 312 314 314 314 313 312 311 310 309 307
312 312 311 311 311 311 310 309 308 308 308 308 308 308 309 310 312 313 314 316 316 315 317 320 319 317 316 319 322 321 320 321 321 319 310 308 307 314 307 309 310 312 315 314 311 312 312 311 311 310 309 307 304 301
312 311 311 310 311 311 311 311 309 308 308 308 309 309 309 310 311 312 313 314 316 317 314 318 317 318 315 315 317 318 320 320 320 315 305 306 312 311 314 309 308 316 313 307 307 314 313 311 309 309 306 303 301 301
310 312 312 312 311 311 311 311 310 309 309 309 309 309 310 310 311 312 313 313 316 319 316 311 317 316 314 316 319 319 319 319 318 316 313 315 318 314 306 307 313 314 313 314 314 313 313 310 309 306 304 302 301 300
305 307 310 312 312 311 311 311 310 310 310 310 310 310 311 311 313 316 315 317 314 315 313 311 314 313 315 317 318 318 318 318 317 316 315 314 315 315 305 309 311 312 312 312 312 310 307 307 306 304 302 301 298 297
302 304 306 309 311 311 311 311 311 311 311 311 311 312 312 312 314 315 314 313 315 314 314 304 307 312 314 314 314 313 314 314 314 314 313 312 313 311 307 310 312 312 311 310 309 308 307 305 303 302 301 297 297 296
302 302 302 305 307 310 311 311 311 311 311 312 312 312 313 312 313 314 313 312 314 315 312 307 305 306 311 310 309 309 310 306 309 309 309 310 305 310 310 312 312 310 309 308 307 306 303 303 300 298 297 296 296 296
300 300 301 303 304 306 308 311 311 311 311 310 311 310 310 311 312 312 312 311 312 313 312 307 310 308 309 308 306 307 307 304 307 305 307 304 306 309 310 309 309 308 307 306 304 302 299 298 297 297 296 296 295 295
300 300 300 301 301 302 306 308 311 311 310 312 310 311 312 312 312 312 311 308 309 308 308 309 311 308 309 304 304 307 303 303 307 305 306 306 306 306 307 307 306 306 305 303 301 298 297 296 296 295 295 295 294 292
299 300 300 301 301 304 305 306 308 309 310 311 311 310 311 311 311 307 305 304 304 308 304 306 306 307 307 308 305 304 305 303 307 305 305 306 304 304 304 304 304 303 301 298 297 296 295 295 295 293 292 290 290 291
299 300 301 301 302 304 305 306 307 308 308 308 307 306 305 302 305 308 310 306 305 302 302 303 301 304 305 305 302 301 305 306 304 305 304 302 304 304 303 301 300 299 298 296 296 295 295 292 292 291 290 290 290 290
299 300 301 301 301 302 303 304 304 305 306 303 301 301 302 302 301 300 301 301 301 302 302 303 300 302 301 302 300 304 302 302 305 303 300 303 304 302 301 300 299 299 298 297 296 295 293 292 291 290 290 291 291 291
299 299 300 301 301 301 302 302 302 303 302 300 300 302 300 298 298 298 299 300 300 300 301 300 300 301 300 300 300 300 302 304 304 304 301 302 302 301 300 299 298 297 297 296 293 292 291 290 291 290 291 290 291 291
299 299 299 300 300 301 300 300 301 300 299 298 298 298 298 299 299 299 299 299 300 300 300 300 300 302 301 301 302 304 304 304 302 300 302 301 301 300 299 299 298 295 293 293 292 291 291 291 291 291 291 291 292 292
298 298 298 299 299 300 300 301 300 297 297 298 297 299 299 299 298 298 299 299 300 299 300 300 301 299 299 301 302 302 302 300 301 302 301 300 300 299 298 296 294 294 294 293 293 291 291 291 291 291 292 291 292 292
297 298 298 299 299 299 299 299 296 297 298 298 299 298 296 297 297 298 298 299 299 299 300 297 299 299 299 300 301 299 300 300 301 300 299 299 298 296 295 294 294 293 292 291 291 291 291 292 292 292 292 292 292 293
297 297 298 299 299 299 299 297 299 297 297 296 296 296 296 295 296 297 297 298 298 297 296 297 297 297 297 298 300 299 299 298 298 297 296 295 295 295 295 294 293 293 292 292 292 292 292 292 293 293 293 292 292 292
295 296 298 298 298 298 297 296 298 298 298 297 296 296 295 295 295 296 296 297 297 297 297 296 297 299 297 296 296 296 296 296 296 296 295 294 294 293 292 291 291 291 292 292 292 293 293 293 292 292 292 292 291 290
295 295 297 298 297 297 296 297 297 296 296 296 296 295 293 293 294 295 296 297 297 297 298 297 297 297 298 297 296 294 294 295 295 294 294 293 291 291 292 292 292 293 293 293 293 293 292 292 292 292 292 291 290 289
295 295 295 297 297 296 295 296 296 296 295 295 296 295 293 294 293 294 293 295 296 296 296 296 296 296 295 295 295 294 293 292 291 291 292 293 293 293 293 292 292 292 292 292 292 292 292 292 292 291 291 290 288 288
295 295 295 295 294 294 293 295 295 295 294 295 296 295 294 294 293 292 293 294 295 295 295 295 295 294 292 293 292 292 293 293 293 293 293 292 292 292 290 290 291 292 292 291 290 290 290 290 290 290 289 290 288 287
295 295 294 294 294 293 293 294 294 295 295 295 295 293 294 293 291 292 289 295 293 294 294 294 294 294 294 293 293 292 292 292 292 292 292 291 290 288 286 286 286 286 286 286 287 287 287 288 288 289 290 289 287 286
294 293 293 292 292 293 291 290 294 294 292 292 291 290 292 291 289 288 288 293 290 292 292 292 292 292 292 290 290 290 290 290 288 286 285 285 284 285 285 284 284 285 285 284 284 284 285 286 288 288 287 286 285 285
294 292 292 293 293 293 291 288 289 290 291 291 291 293 292 291 288 287 291 289 288 289 287 287 288 289 289 289 288 287 286 285 285 284 283 283 282 282 282 281 281 281 281 281 281 281 282 283 284 285 285 285 284 284
292 292 291 291 293 293 293 293 294 293 289 287 289 288 285 285 284 289 286 286 285 285 284 284 286 286 285 284 283 282 282 282 281 281 281 280 281 280 280 279 278 278 278 279 279 280 280 281 281 282 282 283 283 284
291 291 288 291 292 293 292 292 291 292 291 294 293 286 284 284 287 285 284 283 283 282 282 283 283 282 281 280 279 279 280 281 280 280 280 281 279 278 278 277 277 277 277 277 277 278 279 279 279 279 280 280 281 281
291 291 291 291 292 293 293 293 293 293 293 294 289 287 287 283 282 282 281 281 281 281 281 280 280 280 279 279 279 278 279 279 278 278 277 276 276 277 276 275 275 275 275 276 276 276 277 277 277 278 279 279 279 278
290 291 292 291 289 291 291 292 292 291 292 293 291 287 283 279 279 280 279 279 280 279 278 278 278 279 279 278 278 276 275 275 274 274 273 273 272 272 273 273 273 273 273 273 274 275 275 275 276 277 278 278 277 277
290 291 292 292 292 290 289 289 290 290 290 290 290 289 283 280 279 279 278 277 276 277 277 278 278 277 276 276 275 275 274 273 273 272 271 271 270 270 271 271 271 271 272 272 272 273 273 272 273 274 274 275 275 274
289 290 291 288 290 288 289 288 289 289 289 288 287 285 282 281 278 277 276 276 276 277 277 276 276 275 275 274 274 272 272 273 272 271 271 271 271 271 270 270 270 271 271 271 271 271 270 271 271 272 272 272 272 272
288 288 288 289 289 289 288 287 289 288 288 288 285 284 282 282 278 276 276 276 276 276 275 275 274 274 274 274 273 273 272 272 271 271 271 271 270 270 270 270 270 270 270 270 270 269 269 270 270 270 270 270 270 270

GFSWCAN_850_thetae_036.txt.gz
Theta_e
312 313 313 309 309 309 309 309 309 308 308 308 310 313 314 315 315 315 318 319 321 322 322 322 323 323 321 320 313 319 314 316 306 304 300 302 307 307 311 312 310 309 306 303 302 300 308 310 312 311 309 313 313 311
311 313 313 308 309 309 309 309 309 309 308 308 309 312 314 315 316 314 317 319 317 319 320 321 322 323 322 321 320 319 314 317 314 307 303 308 309 310 307 310 310 311 308 308 309 308 308 312 312 313 313 313 310 310
314 313 310 308 309 309 309 309 309 309 308 308 309 310 312 314 315 314 314 315 316 320 319 320 320 321 323 322 321 318 321 319 318 313 309 304 305 306 308 308 313 311 311 309 309 311 312 313 313 313 313 312 310 308
313 312 309 309 309 309 309 309 308 308 308 308 308 309 310 312 314 315 314 314 313 314 315 318 319 317 319 322 321 320 319 320 319 317 308 308 304 309 303 306 308 308 313 311 309 311 311 311 312 312 310 310 308 303
313 311 309 309 309 309 309 309 308 308 308 308 308 309 309 310 311 312 313 314 314 314 314 317 318 317 315 317 320 321 320 320 319 315 305 306 308 307 306 306 305 314 311 308 309 312 311 311 311 310 309 306 301 301
312 311 311 311 311 311 310 309 309 308 308 308 308 309 310 310 311 311 312 314 315 316 315 306 315 315 315 318 317 317 319 319 318 316 311 313 316 312 306 308 312 314 315 315 313 314 314 312 310 309 304 301 301 300
311 310 310 310 311 311 311 310 309 309 309 309 309 309 310 311 311 312 312 314 317 315 312 310 311 313 316 318 319 318 318 318 318 315 314 313 313 314 303 307 311 312 312 312 313 313 309 309 308 305 302 301 299 297
310 311 311 311 311 311 310 311 310 309 309 309 310 310 311 312 314 315 315 314 314 313 312 303 308 311 314 316 315 315 315 315 313 313 313 312 311 307 308 309 312 311 311 311 310 309 309 308 305 303 302 298 296 296
305 307 309 311 311 311 311 310 310 310 311 310 311 312 312 312 313 314 313 313 314 314 311 306 302 305 312 310 310 311 311 304 308 308 308 308 305 308 309 310 311 311 310 310 307 306 305 302 302 301 297 296 296 296
302 304 305 307 310 311 311 311 311 311 311 311 310 311 311 312 313 313 312 312 312 313 311 305 307 305 309 307 306 306 307 303 306 303 307 304 306 308 308 309 309 310 309 308 305 303 299 297 297 296 297 296 296 295
301 301 303 305 306 309 311 311 310 311 310 310 310 312 311 312 311 311 310 307 307 307 309 308 308 307 307 304 304 306 303 302 306 304 306 306 306 304 307 307 307 307 306 304 302 299 299 298 298 296 296 295 293 291
301 301 301 302 303 306 309 310 311 311 312 311 311 312 311 312 311 305 304 304 304 307 305 306 307 307 308 307 305 304 303 302 306 304 305 306 303 304 305 305 304 303 300 298 298 297 295 296 295 293 291 290 290 290
301 302 303 304 304 305 306 307 308 310 310 310 310 310 308 304 306 309 309 305 305 302 303 304 303 305 306 306 303 302 306 306 304 305 304 303 303 302 303 303 300 298 298 298 296 295 295 293 292 291 290 290 290 290
301 301 302 302 303 304 305 306 307 306 307 304 302 302 302 302 301 300 301 301 301 302 302 303 301 303 301 302 301 305 302 302 305 302 298 303 302 302 301 300 298 297 296 296 296 296 293 292 291 290 290 290 290 290
300 300 301 301 302 302 303 304 305 305 303 300 300 301 299 297 297 298 299 300 300 300 301 301 300 301 300 300 300 300 301 303 303 303 301 301 302 301 300 299 299 297 297 295 293 292 291 291 290 290 290 291 291 291
299 299 300 300 300 300 301 302 302 301 300 298 298 298 298 298 298 298 299 299 300 300 300 301 300 301 300 300 300 302 303 301 299 300 301 301 301 300 298 297 297 295 294 293 292 292 291 291 291 291 291 291 291 292
298 298 298 299 299 300 301 301 299 297 298 298 298 298 298 298 298 298 299 299 299 299 299 300 299 298 298 300 301 300 299 299 299 299 301 300 299 298 298 296 294 294 293 292 291 291 291 291 291 292 292 291 292 292
297 298 298 299 300 299 299 298 297 297 298 298 298 297 297 297 297 297 297 298 298 299 299 296 299 297 298 299 300 298 299 299 300 301 300 298 298 297 295 295 294 293 292 291 291 291 292 292 292 292 292 292 293 292
296 297 298 298 298 299 298 298 298 296 296 296 296 296 295 296 297 297 298 298 297 297 297 298 292 294 294 298 299 299 299 299 298 298 297 295 295 295 295 294 292 291 291 292 292 292 292 293 293 292 292 293 292 292
295 296 297 297 298 298 297 297 298 297 296 296 296 295 294 294 295 296 297 297 297 297 297 292 295 298 296 298 298 298 298 297 296 296 295 295 294 293 292 292 292 292 291 291 291 291 292 292 292 292 292 292 292 291
295 295 296 297 297 297 296 296 296 296 296 295 294 294 293 294 295 295 296 296 297 296 297 297 298 297 297 297 296 294 295 295 295 294 293 292 292 293 292 292 291 290 290 291 291 291 291 291 291 291 291 291 291 291
294 295 295 296 297 296 296 296 295 295 295 295 295 294 293 293 293 293 293 294 295 296 296 296 296 296 296 295 295 294 293 292 292 292 293 293 292 292 292 291 290 289 288 288 288 288 287 287 286 286 287 288 288 289
293 294 294 295 295 294 294 295 295 294 294 295 295 294 294 293 293 292 293 293 294 293 294 295 294 293 294 293 293 292 292 292 293 293 292 292 291 289 288 286 285 285 285 285 284 284 284 284 285 285 286 287 287 288
294 294 294 294 294 292 293 293 294 295 294 294 294 292 290 293 292 291 286 293 292 292 293 293 293 293 293 292 292 291 291 291 291 289 288 287 286 285 284 284 283 283 282 281 282 282 282 282 283 283 284 286 287 286
294 293 293 291 292 292 292 288 290 289 286 286 286 284 290 291 283 284 284 290 290 290 291 292 292 291 291 290 289 289 288 287 286 285 285 284 283 283 283 282 281 281 280 280 280 280 280 280 281 281 282 282 283 284
291 292 291 292 291 290 289 285 284 285 285 286 284 292 292 286 284 284 290 287 287 287 288 289 289 288 288 286 285 285 284 283 283 282 282 282 281 281 280 280 279 278 278 277 277 277 277 278 278 279 279 280 281 281
288 287 291 291 292 293 292 293 293 291 286 285 287 286 281 284 282 288 285 285 285 285 286 284 285 285 284 283 283 282 282 282 281 280 280 280 280 279 278 276 275 275 275 275 275 275 275 276 276 277 277 278 279 279
291 291 288 291 292 292 291 290 289 289 288 292 291 286 285 283 285 284 283 283 283 284 283 283 283 283 282 281 280 280 280 280 279 277 278 278 277 276 275 275 275 274 274 273 273 274 274 274 275 275 276 277 277 278
291 291 291 291 292 293 292 291 291 292 292 292 287 285 284 282 281 281 281 282 281 281 280 281 280 279 279 279 279 279 278 278 277 277 277 276 277 276 275 275 274 274 273 273 273 273 273 273 273 274 275 277 276 276
290 291 290 290 289 290 290 290 291 290 291 292 290 285 282 279 279 279 279 280 280 280 279 279 279 279 278 277 277 276 276 276 275 275 274 274 273 273 273 273 273 272 272 271 272 272 272 272 273 273 273 273 274 274
290 291 291 291 290 289 289 289 289 289 289 289 289 287 281 278 278 277 277 278 278 277 277 278 277 276 276 276 276 275 275 274 273 273 272 272 272 272 272 272 271 271 271 271 271 270 270 271 270 271 271 271 271 271
289 289 290 287 289 288 288 288 288 288 288 288 286 284 281 279 277 277 275 276 276 276 276 275 275 275 275 275 274 274 273 273 272 272 272 272 272 272 271 271 271 271 271 271 270 270 270 269 269 269 269 270 270 270
287 288 288 288 288 288 287 287 288 288 288 286 284 282 281 280 277 276 276 276 276 275 275 275 275 274 274 274 273 273 273 272 272 272 271 271 271 271 271 271 271 271 270 270 270 270 269 269 269 269 269 269 269 269

GFSWCAN_850_thetae_039.txt.gz
Theta_e
314 311 309 309 308 308 308 308 308 308 309 311 314 315 316 317 317 317 321 320 320 322 321 322 322 321 319 318 312 317 314 315 305 304 300 301 300 307 309 310 310 309 305 302 302 300 308 308 310 310 309 310 313 312
314 312 309 309 308 308 309 309 308 308 309 311 314 315 316 316 315 316 318 319 319 321 321 321 322 322 320 319 319 317 315 315 312 304 299 300 306 308 304 308 308 309 307 307 307 308 307 311 310 312 311 312 312 312
313 314 309 309 309 308 309 309 308 308 308 310 313 314 314 315 314 316 317 317 317 320 319 320 321 322 322 321 318 317 317 316 315 311 307 301 301 304 307 307 310 309 309 307 308 309 308 310 312 312 312 313 313 311
313 313 309 309 310 310 309 309 309 308 308 309 310 312 314 315 315 314 314 315 314 316 316 318 317 319 321 322 320 319 319 318 316 313 307 302 300 307 302 305 308 308 310 309 308 309 311 312 312 312 313 312 311 309
312 312 309 308 312 309 308 308 308 308 308 308 309 309 311 313 313 314 313 313 313 313 312 317 316 315 317 320 322 321 320 319 317 314 304 305 306 304 303 304 304 310 309 307 308 311 312 312 313 312 311 310 308 304
312 310 308 308 311 310 309 308 308 308 308 308 308 309 310 310 311 312 312 314 314 313 314 306 314 314 317 318 318 320 320 319 318 317 312 311 312 310 307 310 311 313 313 313 312 314 312 312 312 310 310 307 302 301
310 309 309 309 309 310 309 309 308 308 308 308 308 309 309 310 310 310 310 315 315 313 311 309 309 314 316 318 318 318 318 318 317 315 312 311 312 312 305 308 310 312 312 312 312 312 310 310 309 309 306 301 301 299
310 310 310 310 310 310 309 309 309 308 309 309 309 309 310 310 311 312 314 315 315 312 311 303 303 311 314 316 315 316 316 316 313 311 311 311 309 305 308 308 311 311 311 311 311 311 310 310 308 304 302 301 298 297
311 311 310 311 311 311 310 310 309 309 309 309 310 310 311 312 313 313 314 314 314 312 310 304 304 305 312 310 310 311 311 304 308 305 308 308 303 308 308 310 310 310 310 310 308 308 307 306 304 301 297 297 297 296
310 311 310 311 311 310 310 310 310 310 310 310 310 309 311 312 312 312 313 312 312 312 311 303 306 305 308 307 305 306 305 299 307 300 306 304 307 307 307 307 309 309 309 308 306 302 301 299 298 299 297 297 296 295
305 308 310 311 310 311 310 310 310 310 309 310 310 311 311 312 312 311 309 305 306 307 308 307 306 306 306 305 302 304 298 301 306 300 303 302 305 304 305 306 306 307 307 305 302 299 299 300 299 297 296 294 292 291
301 304 306 309 310 310 310 310 310 310 310 310 311 311 312 311 310 304 302 304 304 306 305 307 307 307 307 306 303 304 302 302 306 303 305 306 303 303 303 301 302 302 302 301 300 299 297 295 293 292 291 291 290 290
303 303 303 305 307 308 309 311 311 310 310 311 311 311 310 305 307 309 311 306 305 303 304 304 303 305 306 306 303 302 305 305 303 305 306 303 302 301 297 298 300 300 299 295 294 294 294 293 292 291 290 290 290 290
302 303 303 304 304 305 306 308 309 310 309 307 305 304 303 303 301 301 302 302 301 302 302 304 302 303 302 302 301 305 302 302 306 306 300 302 302 301 302 299 298 296 295 295 294 293 292 292 291 290 290 290 290 290
301 301 302 303 303 304 305 305 305 307 304 301 301 301 298 297 297 298 299 300 300 300 302 302 301 302 300 301 300 300 301 302 299 298 300 300 301 300 299 297 295 296 294 293 293 292 291 291 290 290 290 290 290 290
300 300 300 300 300 301 303 305 303 301 300 299 298 298 297 298 298 298 299 299 300 300 301 301 300 300 299 299 299 300 300 297 295 299 299 299 300 300 298 296 295 294 294 292 291 291 291 290 290 290 290 290 291 291
299 298 299 299 300 300 301 301 299 298 298 298 298 298 298 298 298 298 299 299 300 300 299 299 299 298 297 298 299 297 295 295 298 299 300 300 298 296 296 297 297 294 292 291 291 291 291 291 292 292 292 292 292 292
297 298 298 299 299 299 299 298 297 297 297 298 297 297 297 298 298 298 298 299 299 299 298 296 299 296 297 298 297 297 297 298 298 298 299 300 300 298 295 294 294 293 291 291 291 292 292 292 292 292 292 292 292 292
296 297 297 298 298 299 298 297 297 296 295 296 296 297 297 297 297 297 297 297 297 297 297 297 290 292 293 298 298 299 298 298 299 299 299 297 295 294 294 293 292 291 291 291 291 290 290 290 291 291 291 291 291 291
294 295 297 297 297 298 297 297 297 296 295 296 295 295 295 295 295 296 297 297 297 297 296 290 293 297 296 298 298 298 298 297 298 296 295 294 293 293 292 292 291 291 291 290 290 290 288 288 288 287 287 287 286 286
294 295 296 296 296 297 296 296 296 296 295 295 294 294 293 294 295 296 295 295 296 296 296 297 296 296 295 295 295 295 295 295 295 295 294 292 292 292 292 291 291 291 290 290 287 286 285 285 284 284 284 284 285 285
293 295 295 296 297 296 296 295 295 295 295 294 294 293 293 293 293 294 293 293 294 295 295 295 296 296 295 295 294 293 293 292 292 292 292 292 292 292 291 290 290 288 285 284 284 283 283 282 282 282 282 283 283 283
293 294 293 295 296 294 294 295 294 294 294 295 294 293 293 293 293 292 292 292 293 293 294 294 294 294 294 293 292 292 291 291 292 291 291 290 289 287 286 285 284 283 283 282 281 281 280 280 280 280 281 281 282 283
293 294 294 293 293 291 294 294 294 294 294 294 292 291 290 292 291 291 287 292 291 292 293 293 293 292 292 291 291 290 290 289 289 288 287 285 285 284 283 282 282 281 280 279 279 278 278 278 278 278 278 279 279 280
293 293 293 291 292 292 286 286 289 289 286 289 291 289 291 291 280 283 286 289 289 290 291 291 291 291 291 290 289 289 287 286 285 284 283 283 282 281 281 280 279 278 277 277 277 276 276 276 276 276 276 277 277 278
290 291 291 291 290 288 286 286 287 287 283 291 288 290 291 284 286 284 289 287 286 287 288 289 289 289 287 286 286 284 284 283 282 281 281 281 280 279 279 278 276 276 275 275 275 275 274 274 274 274 275 275 276 276
291 286 291 291 291 292 291 291 291 289 287 286 287 287 283 286 287 286 285 285 285 285 285 285 285 285 285 284 282 282 281 281 281 280 279 278 278 277 276 275 274 274 274 274 273 273 273 273 273 273 273 274 275 275
291 291 287 291 291 292 291 289 288 290 286 290 290 286 286 281 283 282 283 283 283 283 283 283 283 282 281 281 280 280 279 278 277 277 276 276 275 275 275 275 274 274 274 273 273 272 272 272 272 272 273 273 273 273
290 291 291 291 292 292 291 291 291 291 291 291 288 286 282 281 280 280 281 281 281 281 281 281 281 281 279 279 278 278 278 277 276 276 276 276 276 275 275 274 274 273 273 273 273 272 272 271 271 271 271 271 272 272
290 291 290 290 289 290 289 290 290 290 291 290 288 283 280 278 278 279 279 279 279 280 279 279 279 278 277 277 276 276 276 276 276 275 275 275 274 274 274 273 273 273 273 273 273 273 272 272 271 271 271 271 271 271
290 291 290 290 288 288 288 289 289 290 289 288 287 285 279 277 277 277 277 277 277 277 277 277 277 276 276 275 275 275 274 274 274 274 273 273 273 272 272 272 272 272 272 272 272 271 271 271 270 270 270 270 270 269
289 288 289 286 288 287 287 287 288 288 288 287 284 283 280 278 277 276 275 274 275 275 275 275 275 275 275 275 275 274 274 273 273 273 272 272 272 272 272 272 272 271 271 271 271 271 270 270 270 270 269 269 269 269
287 287 288 288 287 287 286 286 287 286 286 283 282 281 280 279 276 275 275 275 275 274 274 274 274 275 274 274 273 273 272 272 272 271 271 271 271 271 271 271 271 270 270 270 270 270 270 269 269 269 268 268 268 268

GFSWCAN_850_thetae_042.txt.gz
Theta_e
309 308 308 307 307 307 307 308 310 312 315 316 318 317 314 313 313 317 320 321 321 321 320 321 320 318 317 317 312 316 313 314 304 304 301 301 301 306 308 309 310 309 308 307 300 297 308 306 310 310 309 309 311 312
309 308 308 308 308 308 307 308 309 312 315 315 317 317 317 317 320 318 320 321 321 321 319 320 320 320 319 318 318 316 316 314 312 303 296 297 301 306 304 308 307 309 307 306 305 307 307 308 309 311 310 311 311 312
308 308 308 308 308 308 308 308 309 311 314 315 318 318 317 316 317 318 319 319 320 320 318 320 320 321 320 319 319 317 315 315 312 310 304 299 302 302 304 306 308 307 307 305 307 308 307 309 310 310 311 311 312 312
309 308 308 308 308 308 308 309 309 311 312 314 315 317 315 316 317 317 317 318 319 319 315 317 318 321 321 319 319 318 318 315 313 311 307 300 300 305 301 303 306 307 308 307 306 308 310 312 312 311 311 312 313 312
308 309 308 308 308 308 308 309 309 309 311 313 314 316 316 315 315 316 314 313 315 313 311 316 315 317 319 321 321 320 319 317 314 313 304 305 304 303 302 302 303 308 307 306 307 309 310 311 312 313 312 311 310 310
309 308 308 308 308 309 308 309 309 309 309 310 311 313 314 314 314 313 313 314 312 313 316 307 314 316 318 319 320 319 318 318 317 316 310 309 309 308 307 310 310 312 311 310 310 312 312 312 312 312 310 309 308 306
309 308 308 310 309 308 308 309 309 309 309 309 310 311 311 311 311 310 311 315 313 311 311 308 308 313 317 317 317 318 318 317 316 312 308 309 310 310 304 307 309 310 311 311 311 311 311 311 310 309 308 306 302 301
308 308 309 310 310 309 308 309 309 309 309 309 309 309 310 310 310 312 315 314 312 310 310 302 302 311 314 316 314 315 316 315 311 309 308 306 307 305 307 308 310 310 310 310 309 309 309 309 308 305 303 301 298 298
308 309 309 311 310 310 309 309 309 309 309 309 309 309 309 309 311 314 313 313 312 311 309 302 303 304 311 309 309 310 311 305 307 305 307 307 303 307 306 306 308 309 309 309 308 307 307 306 301 298 298 297 298 298
309 310 310 310 311 312 309 309 309 309 310 310 309 309 310 312 312 312 312 312 312 312 311 301 304 304 307 307 305 304 304 298 298 298 306 304 306 305 304 305 306 307 307 307 306 300 300 296 296 298 299 297 296 295
310 311 310 310 310 310 310 310 310 310 310 309 309 310 312 312 311 311 308 306 306 305 306 304 305 305 305 305 303 301 299 300 303 299 305 304 305 302 301 302 304 306 306 303 302 299 300 300 299 297 296 295 293 291
308 310 310 310 310 310 310 310 310 310 310 310 311 311 311 311 310 305 302 303 304 304 305 306 306 306 305 306 302 303 297 301 305 302 304 305 303 300 299 300 299 299 299 300 299 297 295 294 293 292 291 291 290 290
304 306 308 310 310 310 310 310 309 310 310 311 311 310 310 306 307 309 309 306 305 303 304 304 303 305 304 305 301 302 305 305 303 305 305 303 299 297 299 300 298 297 296 295 294 294 294 293 292 291 290 290 290 290
301 302 304 306 307 309 310 310 310 310 310 310 307 306 304 304 302 301 302 302 301 302 303 305 302 303 303 302 301 306 302 302 305 306 301 301 300 298 300 298 297 294 294 294 293 292 291 291 290 290 290 290 290 290
301 302 302 303 305 306 307 308 309 310 308 304 303 301 298 297 298 298 299 300 300 301 303 303 301 302 300 301 300 300 302 300 297 296 299 300 300 298 297 295 294 293 293 292 292 291 291 290 290 290 290 290 291 291
300 301 300 300 302 304 304 305 306 306 301 299 298 296 297 298 298 299 299 299 300 301 302 302 300 300 300 299 298 300 300 296 294 298 298 299 299 299 296 294 294 293 292 291 291 291 291 291 291 291 291 291 291 291
299 299 299 300 301 302 301 300 299 298 298 298 297 298 298 298 298 298 299 299 300 301 299 299 297 297 296 295 296 295 292 296 297 297 298 298 299 296 294 294 295 295 292 291 291 291 291 291 291 290 290 290 290 291
298 298 298 299 300 300 300 298 297 297 296 297 297 297 297 297 298 298 298 299 299 299 299 297 298 296 294 294 293 294 297 298 299 298 298 298 298 298 297 294 293 292 292 291 291 291 290 290 289 289 288 288 287 286
296 297 298 298 299 298 298 297 296 295 295 296 296 297 297 296 296 296 297 297 297 298 298 297 290 291 292 297 297 298 297 298 298 298 298 298 296 294 294 293 292 292 291 290 290 290 289 287 286 285 284 284 284 284
293 294 296 297 298 298 297 296 296 296 295 295 295 295 295 296 296 296 297 297 297 297 296 290 292 296 295 297 298 298 297 298 298 297 293 293 293 293 292 292 291 290 290 290 289 287 286 285 284 283 282 282 282 282
293 293 294 296 297 297 296 295 295 295 295 294 294 294 294 295 295 295 295 296 296 295 296 296 294 294 295 296 296 296 296 295 296 295 294 292 292 292 291 290 290 289 288 286 285 284 283 282 281 280 280 280 280 280
293 294 295 296 296 296 295 295 294 294 295 294 294 293 293 293 294 294 293 293 292 293 294 295 295 295 294 294 294 293 293 293 293 293 292 291 290 290 290 289 287 285 284 283 282 281 280 279 278 278 277 277 277 277
293 294 295 295 296 295 293 294 294 293 294 294 293 292 293 293 293 292 292 292 291 292 293 293 294 294 294 293 292 291 291 291 291 290 290 289 288 286 285 284 283 283 282 281 280 278 277 277 276 276 276 276 276 276
293 294 293 293 293 290 293 293 294 294 295 294 292 290 290 292 292 291 290 291 290 291 292 292 292 292 291 290 290 289 288 288 288 287 286 285 285 284 283 282 281 280 279 277 277 276 276 276 275 275 274 274 274 274
292 291 292 289 291 291 280 282 288 290 288 290 291 289 290 290 282 288 289 289 288 289 289 289 289 290 290 289 287 286 285 285 285 284 283 282 282 281 280 279 278 277 277 277 277 276 275 275 274 274 274 273 274 274
288 289 290 289 288 287 283 284 283 284 284 289 290 289 289 283 286 284 288 286 286 286 287 287 288 288 287 286 285 284 283 282 282 281 281 280 280 279 278 277 276 276 275 275 275 275 274 274 273 273 273 273 273 273
284 287 290 291 291 291 290 290 290 288 286 289 289 288 285 286 285 285 284 284 284 284 285 285 285 285 285 284 283 282 281 280 279 279 278 278 277 276 275 275 275 274 274 274 273 273 273 273 273 272 272 272 272 271
291 290 284 290 291 291 290 289 287 286 288 290 289 289 288 282 282 281 282 282 283 283 283 283 283 282 282 281 280 280 279 278 277 276 276 275 275 274 274 274 274 273 273 273 273 273 273 272 272 271 271 271 271 271
290 291 291 290 291 291 290 290 291 291 290 290 287 285 281 279 280 280 280 281 281 281 281 281 281 280 280 279 279 277 276 275 275 275 274 275 274 274 274 274 273 273 273 273 272 272 272 272 271 271 270 270 270 270
290 290 290 290 289 289 288 289 288 289 289 288 286 282 279 278 278 279 279 279 279 279 279 278 278 278 277 276 276 276 276 275 275 275 274 274 274 273 273 273 273 272 272 272 272 272 272 271 271 271 271 270 270 270
289 290 290 289 288 288 288 288 289 288 288 286 285 282 278 276 276 276 276 277 276 277 276 276 275 275 275 275 275 275 275 274 274 273 273 273 273 272 272 272 272 271 271 271 271 271 271 271 271 270 270 270 269 269
288 288 288 283 287 287 287 288 288 288 287 285 281 281 278 277 275 275 274 274 274 275 274 274 274 274 275 274 274 274 273 272 272 271 271 271 271 270 270 270 270 270 270 270 270 270 270 270 270 269 269 269 269 268
287 287 287 287 286 286 285 285 285 284 284 281 279 279 278 277 274 273 273 273 274 274 274 274 274 274 274 273 273 272 271 271 270 270 270 269 269 269 269 269 269 269 269 269 269 269 269 269 269 268 268 268 268 267

GFSWCAN_850_thetae_045.txt.gz
Theta_e
307 307 309 310 309 308 307 306 308 311 312 315 316 315 314 313 317 318 320 320 320 320 319 319 318 317 316 317 316 314 315 314 307 310 311 308 311 310 311 310 313 313 312 311 303 309 314 305 310 314 312 308 310 312
309 309 308 307 307 306 306 310 311 313 315 316 317 317 315 313 315 317 320 321 320 320 318 319 319 318 318 317 318 314 316 313 313 309 303 303 308 307 308 315 308 313 312 312 310 313 307 307 310 310 310 309 310 311
308 307 307 307 306 308 310 312 314 315 315 317 317 317 314 313 314 318 318 317 319 318 317 319 319 319 318 318 318 316 314 315 312 311 303 304 308 305 311 310 310 309 306 310 309 309 307 308 309 309 310 311 311 312
307 307 307 307 308 309 310 313 315 315 318 318 317 316 314 315 318 318 317 318 319 319 313 315 318 320 319 318 318 318 318 316 313 310 306 304 308 304 306 307 309 309 307 308 309 309 309 310 311 311 311 310 311 311
308 308 308 308 309 310 311 312 314 315 317 318 318 318 319 319 317 317 314 318 319 315 311 315 318 318 320 320 319 318 317 315 312 311 305 307 303 305 303 305 307 307 309 311 312 308 309 309 311 312 312 311 310 310
308 308 308 309 310 310 311 312 313 315 317 317 316 317 317 318 318 316 315 313 313 319 318 309 314 316 317 317 318 316 316 316 316 314 304 306 307 308 309 310 309 309 309 309 309 310 311 311 311 311 310 309 307 306
308 308 308 309 309 308 310 311 313 312 316 316 316 316 316 315 314 313 313 313 312 312 313 307 308 315 317 317 318 317 317 317 316 309 305 307 307 308 305 310 307 310 310 310 310 310 310 309 308 307 308 305 302 301
308 309 308 309 309 309 310 310 311 313 314 314 314 314 313 312 311 313 313 312 311 310 310 304 303 311 314 313 311 314 315 313 309 307 306 305 306 306 309 307 307 308 308 308 308 308 308 307 305 302 300 298 296 297
309 309 308 309 310 310 309 310 311 312 312 310 310 310 310 310 311 313 313 311 310 310 308 303 306 309 309 307 306 308 310 305 307 304 306 307 304 308 305 303 305 306 306 306 306 305 303 301 296 296 297 300 299 297
309 310 309 309 308 309 309 310 311 311 312 311 309 309 310 313 312 311 310 311 311 311 310 300 303 305 307 307 304 304 304 303 306 304 306 305 306 302 301 302 304 306 305 305 303 298 297 297 299 300 298 297 296 295
309 310 311 310 310 309 308 309 310 310 311 308 309 311 312 311 310 310 307 305 305 303 304 303 304 304 305 306 303 301 302 300 305 302 306 305 306 301 300 301 302 304 304 302 302 299 299 298 297 296 295 294 292 291
310 310 310 310 310 309 310 310 310 309 309 311 311 310 310 310 309 305 303 303 303 305 304 305 305 305 303 305 302 302 300 302 305 301 305 305 302 299 299 299 299 300 300 299 297 296 294 293 292 291 291 290 290 290
309 310 310 310 310 310 311 311 310 310 311 312 310 310 310 307 307 303 306 306 305 302 304 304 302 304 303 303 302 303 305 305 301 305 306 304 297 299 300 300 297 296 296 295 294 294 294 292 291 290 290 290 290 290
305 308 309 309 309 309 310 309 310 310 311 310 309 306 302 306 304 303 303 303 301 303 304 305 302 303 303 304 301 307 302 303 307 306 305 300 298 298 297 296 295 294 294 294 292 292 291 290 290 290 290 290 290 291
301 303 305 307 308 310 310 309 310 310 310 305 303 302 300 297 298 298 299 300 301 302 304 304 302 303 301 302 301 302 304 303 302 301 301 299 298 298 297 295 294 293 293 292 291 291 291 291 291 291 291 291 291 291
301 302 302 303 304 305 307 309 309 308 302 299 297 298 297 298 298 299 299 299 300 302 303 303 300 302 300 300 301 302 303 300 298 299 298 299 298 297 295 294 293 292 292 291 291 291 291 291 291 291 290 290 289 288
300 299 300 303 303 302 304 307 304 300 298 298 297 298 298 298 298 298 299 299 300 301 300 299 300 300 297 298 299 297 298 296 297 298 298 299 298 294 294 294 295 294 292 292 292 291 290 290 289 289 289 287 286 285
299 298 299 300 299 299 298 298 298 297 296 296 296 296 296 297 297 298 298 299 300 299 299 298 298 297 297 298 297 296 297 297 298 297 297 297 296 294 295 295 293 292 292 291 290 289 289 289 288 286 285 284 284 283
297 298 298 299 299 299 298 297 296 295 295 296 296 296 296 295 295 297 298 298 298 298 298 296 295 296 297 296 295 297 298 298 296 296 297 296 295 295 293 292 292 291 290 289 289 288 286 284 283 283 282 281 280 279
292 295 297 298 298 298 296 295 296 296 295 295 296 296 295 295 296 296 296 297 297 297 295 293 293 294 294 296 297 298 297 297 297 296 294 293 293 292 292 291 290 289 289 288 286 284 283 282 281 280 279 278 278 278
292 293 296 297 297 296 295 295 295 295 295 294 294 294 294 295 295 295 295 296 296 293 293 293 293 293 294 295 296 296 297 297 297 296 295 291 290 290 290 289 288 287 286 284 283 282 281 279 278 278 278 277 277 276
292 293 294 296 296 295 294 294 294 294 294 293 294 294 294 293 293 293 293 293 291 290 291 292 292 292 293 293 293 293 293 293 293 293 292 291 289 289 288 287 285 284 283 282 280 279 278 277 277 277 277 276 275 275
292 292 294 295 295 294 293 294 293 293 294 293 293 291 293 292 292 292 292 291 290 290 291 292 293 292 293 291 291 291 290 290 290 290 289 289 288 287 285 283 282 281 280 279 278 277 277 277 277 276 275 275 275 275
292 293 293 292 292 289 293 292 293 293 294 294 292 290 290 291 292 290 291 290 289 289 290 291 291 291 290 289 289 289 288 288 288 287 285 284 284 283 281 281 280 279 278 278 277 277 276 276 275 275 274 274 274 274
293 290 291 286 289 289 281 281 289 289 285 291 292 290 290 290 287 288 290 287 286 287 287 287 288 288 289 288 286 285 285 284 285 285 283 282 281 280 279 278 278 277 277 277 276 276 275 275 274 274 274 273 273 273
285 288 288 286 287 286 281 283 281 284 283 286 288 287 288 284 286 286 286 284 284 284 285 286 287 287 286 285 285 284 284 283 282 281 281 280 279 278 278 277 276 276 275 275 275 275 274 274 274 273 273 272 272 272
282 284 289 290 290 290 288 288 288 286 284 287 287 288 289 287 286 283 282 282 283 283 284 285 285 285 285 284 283 282 281 280 279 279 278 278 277 276 276 275 275 274 274 274 273 273 273 273 273 272 272 272 271 271
289 290 284 290 290 290 287 285 284 283 284 289 289 287 288 285 282 279 280 281 281 282 282 283 283 282 282 281 280 279 278 277 277 276 276 276 275 275 274 273 273 273 273 272 272 272 272 272 272 271 271 271 270 270
290 290 290 289 290 290 289 288 289 289 288 289 287 284 280 278 278 278 279 279 280 280 280 280 280 279 279 279 278 276 276 276 275 275 275 274 274 273 273 273 273 272 272 272 271 271 271 271 271 270 270 270 270 270
289 289 289 289 285 284 288 288 288 287 287 286 283 279 277 276 277 278 278 278 278 278 278 278 278 278 277 275 275 275 275 274 274 274 273 273 272 272 272 271 271 271 271 271 271 271 270 270 270 270 269 269 269 269
288 289 289 288 287 287 288 288 287 287 286 284 282 280 276 275 275 275 276 276 276 276 276 276 275 274 275 275 274 274 274 273 273 272 272 271 271 270 270 270 270 270 270 270 270 270 270 270 269 269 269 269 268 268
287 287 286 283 286 286 287 287 287 286 284 282 279 278 277 276 274 274 273 274 274 274 273 274 274 274 274 273 273 273 272 272 271 271 270 270 270 269 269 269 269 269 269 269 269 269 269 269 268 268 268 268 268 267
286 286 285 286 285 285 284 284 284 282 282 279 278 277 276 275 273 273 272 273 273 273 273 273 273 273 273 272 272 272 271 271 270 270 270 270 269 269 269 269 269 269 268 268 268 268 268 268 268 267 267 267 267 266

GFSWCAN_850_thetae_048.txt.gz
Theta_e
299 299 300 301 300 302 306 307 310 310 309 308 309 312 313 312 314 318 319 318 319 320 318 318 317 318 318 321 324 317 318 317 317 324 323 322 325 317 316 315 318 320 322 320 316 323 323 310 313 317 316 313 313 315
299 300 301 303 303 306 309 309 308 308 308 310 312 313 313 313 316 318 319 319 320 319 318 318 317 317 318 319 319 317 322 319 320 322 319 316 318 312 320 323 313 319 318 319 318 318 313 311 315 314 312 313 313 313
303 307 306 307 307 309 308 307 307 309 311 313 314 314 313 314 317 318 319 318 320 318 318 319 318 317 317 317 318 319 316 318 315 317 316 317 318 317 319 319 317 315 311 316 315 314 313 312 311 311 311 312 312 311
309 309 307 307 306 306 308 310 311 313 314 315 316 315 313 315 317 318 318 318 320 319 316 318 318 318 318 317 317 317 318 317 314 312 314 314 322 311 316 315 316 314 313 315 315 314 313 312 312 312 312 310 310 310
307 307 306 308 311 313 314 315 315 315 316 317 316 315 315 314 316 317 317 316 318 318 315 317 316 316 318 318 318 317 316 315 313 314 311 320 310 313 310 312 316 312 314 316 317 311 312 312 310 311 311 310 309 307
308 309 310 311 312 314 314 315 317 317 317 317 317 316 315 314 317 316 315 316 316 317 317 318 315 315 314 313 314 314 313 314 315 315 309 310 308 314 313 318 312 311 311 310 312 311 311 310 309 309 309 307 304 302
310 311 312 312 314 315 315 316 317 317 317 317 315 315 315 317 316 315 315 314 316 317 315 313 317 316 317 317 317 316 316 316 315 310 309 311 310 312 309 319 311 310 310 310 309 310 310 307 305 304 302 299 299 298
310 311 311 312 313 312 315 316 316 316 317 318 318 318 317 314 314 312 313 314 313 310 311 310 313 314 314 311 311 313 314 312 309 307 307 309 308 310 315 310 308 308 308 307 306 306 305 301 299 298 298 298 298 300
309 310 310 310 311 310 313 315 314 314 314 313 313 312 312 313 312 311 310 310 309 309 308 307 314 315 309 307 307 309 309 308 307 309 308 310 307 312 306 305 307 306 307 304 302 301 300 299 299 299 298 300 298 297
309 309 309 308 311 309 312 312 312 311 311 311 310 310 311 312 312 311 310 310 310 310 308 303 305 308 308 308 306 309 305 309 310 308 306 312 311 301 301 303 303 305 304 303 300 299 299 299 299 298 297 297 298 297
309 309 310 310 310 310 313 314 313 311 311 309 309 311 311 310 310 309 308 308 307 307 305 304 307 307 305 309 306 303 306 306 311 309 310 310 310 302 300 302 303 303 302 302 301 299 299 298 297 297 295 294 292 290
309 309 309 309 310 310 310 311 312 310 309 310 311 310 310 310 309 308 306 305 308 308 304 306 304 304 303 304 306 304 304 307 312 305 310 308 304 300 300 301 301 300 300 299 298 298 297 295 293 291 290 290 290 290
310 309 310 309 309 309 309 309 310 311 311 311 311 310 310 307 311 317 311 310 307 303 303 304 304 304 303 304 303 308 311 308 304 309 308 305 301 300 300 299 299 297 297 297 295 293 292 291 290 290 290 290 290 290
310 310 310 309 310 310 310 310 311 311 311 309 309 308 309 311 305 306 307 307 301 303 304 303 302 304 303 306 305 312 304 305 308 309 307 300 300 299 298 297 295 294 293 293 292 291 291 291 290 290 290 291 291 291
307 309 309 309 310 310 310 310 310 310 309 306 304 306 304 297 298 298 300 301 301 303 304 304 304 305 304 305 304 305 306 308 307 307 303 299 299 298 296 294 293 293 292 292 291 291 291 291 291 291 291 290 289 287
303 306 307 306 309 309 309 310 310 309 302 299 298 300 298 300 299 299 300 299 302 303 305 304 303 307 304 305 307 308 309 308 304 301 299 299 297 297 295 294 293 292 291 291 291 291 291 291 290 289 288 287 286 285
302 302 303 303 305 306 309 309 306 300 298 298 297 298 298 298 298 298 299 299 301 303 302 303 307 304 301 304 304 302 304 302 298 298 298 298 297 295 294 293 293 294 294 292 291 291 290 289 288 287 286 285 284 283
300 300 301 299 300 303 305 302 299 297 297 296 298 296 296 297 297 298 298 300 301 300 300 302 300 303 304 304 303 300 298 297 297 297 297 297 294 294 294 294 293 292 291 291 290 289 288 286 285 284 283 282 281 280
298 299 299 299 299 298 297 296 297 297 296 296 296 295 295 295 296 298 299 299 299 299 298 298 302 302 302 299 299 298 297 297 295 295 295 294 294 294 294 292 292 291 290 289 288 286 284 283 282 281 280 280 279 279
296 297 298 298 298 298 296 295 296 296 296 295 295 295 295 295 295 295 296 297 297 296 298 299 298 295 297 294 296 298 297 296 295 293 291 292 292 292 292 291 289 289 288 286 285 283 282 281 280 279 279 278 278 277
295 297 297 297 297 296 295 294 295 295 295 294 294 295 295 295 295 295 295 296 295 293 295 291 290 290 293 294 296 296 296 296 295 294 292 289 289 289 289 288 288 286 284 283 282 281 280 279 278 278 277 277 276 276
292 294 295 296 295 294 293 293 294 294 294 294 294 295 296 296 295 294 293 294 292 290 290 290 289 289 290 292 293 294 295 295 295 294 293 291 288 288 288 287 284 283 282 281 280 279 278 277 277 277 276 276 276 275
292 293 294 295 294 293 293 293 294 294 296 295 294 295 295 294 293 292 293 292 290 289 290 290 290 290 291 290 291 291 291 291 291 290 289 289 288 286 284 283 282 281 279 278 278 277 277 276 276 276 276 275 275 274
292 293 293 291 291 291 292 292 293 294 295 295 294 294 293 292 291 292 293 291 288 288 289 289 289 289 288 288 288 288 288 288 288 287 285 284 284 283 281 281 280 278 277 277 276 276 276 275 275 275 275 274 274 273
292 290 291 290 289 290 291 292 293 293 294 294 294 293 292 290 292 292 292 288 286 286 287 287 287 287 287 286 286 286 285 284 284 285 284 282 281 280 279 278 277 277 276 276 276 275 275 275 274 274 274 273 273 272
290 288 290 289 290 292 291 292 292 292 291 293 292 289 289 291 290 290 287 284 283 282 284 284 285 286 285 284 284 284 284 284 282 281 281 280 279 277 277 276 275 275 275 275 275 274 274 274 273 273 273 272 272 272
290 290 288 289 290 290 290 289 289 291 292 293 292 291 292 291 289 284 282 281 281 282 283 283 284 284 284 283 282 282 281 280 279 279 278 277 277 276 276 275 275 274 274 274 273 273 273 273 272 272 272 271 271 271
288 289 290 288 289 289 290 290 291 292 292 290 291 290 290 287 284 280 279 280 280 281 282 282 282 282 281 281 280 279 278 277 277 276 276 276 275 275 275 274 274 273 273 273 272 272 272 271 271 271 271 270 270 270
289 288 289 287 289 290 289 290 290 288 287 289 290 286 281 276 277 277 278 279 279 279 280 280 279 279 279 279 277 276 276 276 275 275 275 274 273 273 273 272 272 272 271 271 271 271 270 270 270 270 270 270 269 269
288 288 290 288 288 289 288 287 287 285 284 283 281 278 276 275 276 277 277 278 278 278 278 278 277 277 276 275 275 275 275 274 274 273 273 273 272 272 271 271 270 270 270 270 270 270 269 269 269 269 269 269 268 268
288 288 289 288 288 286 286 286 286 285 283 281 280 277 276 274 274 275 275 276 276 276 276 275 274 274 274 274 274 273 273 273 273 272 272 271 271 270 270 270 269 269 269 269 269 269 269 269 269 268 268 268 268 268
286 284 286 288 287 285 286 286 284 283 281 280 277 276 275 275 274 273 273 274 273 273 273 273 273 273 273 273 273 273 272 272 271 271 271 271 270 270 270 269 269 269 269 268 268 268 268 268 268 267 267 267 267 266
284 284 284 284 285 285 283 283 282 281 279 278 275 275 274 274 273 272 272 272 272 272 272 272 272 273 273 273 272 272 271 271 270 271 271 270 270 270 269 269 269 268 268 268 268 267 267 267 267 267 267 266 266 266

GFSWCAN_850_thetae_051.txt.gz
Theta_e
294 294 294 296 295 295 295 296 299 300 301 302 302 304 308 310 310 311 317 320 321 321 320 320 318 318 319 322 326 321 321 321 322 325 326 329 329 323 321 320 321 322 325 321 325 321 323 314 315 317 318 315 315 315
295 295 295 294 295 295 297 299 300 301 303 303 304 309 310 310 311 312 316 319 321 323 321 321 320 319 321 322 322 320 321 322 323 326 327 328 322 319 325 323 318 322 322 323 321 321 316 314 315 316 315 315 315 315
296 295 296 297 298 299 300 299 303 303 303 307 310 310 310 310 312 313 318 320 321 322 320 321 321 317 319 321 322 322 323 323 322 323 323 325 322 324 323 324 321 319 316 318 318 316 315 314 314 314 314 314 314 314
300 299 300 298 299 301 304 305 307 309 309 309 309 309 311 312 313 313 319 319 320 320 323 320 318 318 317 317 319 323 323 321 320 321 322 317 322 319 324 321 320 318 316 317 317 315 314 314 314 314 314 314 313 313
300 300 300 301 302 307 308 308 309 308 308 308 310 311 313 313 313 315 319 318 319 320 319 319 317 317 317 318 317 317 319 319 320 319 317 324 318 319 317 317 319 316 316 318 318 315 315 315 313 313 314 314 312 310
306 305 305 305 306 307 306 307 307 309 310 311 313 314 314 313 315 318 317 316 317 318 319 321 316 316 317 318 318 319 320 321 322 317 318 316 313 319 320 321 316 314 313 314 315 314 314 313 312 312 311 308 307 305
310 311 312 312 313 314 314 314 314 314 315 315 315 314 313 314 317 317 317 317 315 317 318 316 318 316 316 318 316 318 317 317 320 316 314 317 316 318 315 321 315 313 313 312 312 313 312 311 309 306 303 302 301 300
313 315 316 316 316 316 316 316 316 316 316 316 316 314 314 315 315 313 315 316 316 314 317 314 316 316 315 317 316 315 316 317 312 311 312 314 313 314 320 315 312 312 311 310 309 309 308 304 303 303 301 300 300 298
313 313 315 315 315 316 317 317 317 317 316 316 315 315 314 315 316 313 314 315 315 311 309 311 317 317 311 310 311 313 313 311 311 312 313 314 312 316 310 309 309 309 310 308 306 305 303 303 301 301 300 299 298 297
311 310 312 313 312 312 313 315 317 316 315 315 314 315 313 313 310 309 310 311 310 309 307 309 311 314 312 311 309 311 308 311 313 310 311 315 313 304 304 304 306 308 308 306 304 302 301 301 301 300 299 299 299 297
310 309 309 312 312 312 311 311 310 311 312 312 311 311 311 310 310 309 308 313 313 312 308 308 311 311 308 312 308 306 309 309 312 312 313 313 312 304 303 304 304 305 304 302 302 301 300 299 299 298 296 294 292 292
309 309 309 311 312 311 312 311 311 309 310 310 311 310 310 310 309 313 309 309 312 311 306 307 307 307 305 308 307 306 307 308 313 309 315 311 305 303 303 303 303 302 301 300 299 299 298 297 295 294 293 291 290 290
309 310 309 309 309 310 311 310 311 310 310 310 310 311 311 308 313 313 312 311 308 305 304 305 306 305 304 306 305 311 309 311 307 311 310 308 304 303 302 302 301 300 300 299 296 295 293 292 291 290 290 290 291 291
310 309 309 309 309 310 310 311 311 310 311 310 309 310 310 309 308 308 310 307 302 303 305 304 304 306 305 307 311 308 307 307 309 311 310 304 302 302 301 300 299 296 295 294 294 292 290 290 290 290 291 291 290 289
310 309 310 309 309 309 309 310 310 310 309 305 306 308 304 298 299 299 300 301 302 304 304 305 306 307 307 307 307 305 308 310 310 311 305 301 300 299 298 297 295 293 292 293 291 291 291 291 291 291 290 289 288 287
308 309 309 309 310 310 309 309 310 309 303 300 299 301 299 301 300 300 300 300 302 304 306 307 308 311 307 308 311 312 311 311 307 303 300 299 298 298 297 296 295 294 294 294 292 291 291 291 290 289 288 287 286 285
307 304 305 308 309 309 309 309 307 300 298 298 298 298 299 299 298 298 300 300 302 303 305 306 310 307 304 306 306 305 307 304 299 298 299 298 298 297 296 294 293 293 294 293 291 291 290 289 288 287 285 284 283 282
302 301 301 304 306 307 307 302 299 298 298 297 299 296 296 297 297 298 298 301 302 301 302 304 303 305 309 307 305 301 297 297 298 297 298 298 298 296 295 295 294 293 292 291 290 289 288 286 285 284 282 281 281 281
300 299 299 299 301 302 299 298 297 298 296 296 296 296 295 295 295 296 298 299 300 300 301 302 305 305 304 302 300 297 296 296 295 295 296 296 295 295 294 292 291 290 289 288 287 286 285 284 282 281 280 280 279 279
297 298 298 298 298 297 296 296 297 298 298 296 296 296 296 295 295 296 297 297 299 300 299 301 298 294 296 296 299 298 297 296 294 294 292 292 293 293 292 291 290 288 287 287 286 284 282 282 280 280 279 279 278 277
297 297 297 297 296 295 295 296 296 296 296 296 296 297 296 297 297 297 297 298 295 294 294 292 291 290 292 295 297 298 297 297 297 296 294 291 290 289 287 286 286 285 285 284 283 281 280 279 279 278 278 277 277 276
294 295 295 295 295 294 295 294 296 296 296 296 297 297 297 297 297 295 296 295 293 291 291 292 291 292 292 292 292 292 294 294 294 294 292 290 288 287 286 285 284 284 282 281 280 279 278 278 278 277 276 276 275 275
292 293 294 294 294 294 293 295 295 296 298 297 297 297 297 296 294 294 294 293 291 289 289 289 290 289 289 288 289 289 290 289 288 287 287 286 285 285 284 283 282 281 280 279 278 278 277 277 276 276 275 274 274 274
293 293 292 292 294 294 293 294 295 295 296 296 296 295 295 294 294 294 294 291 289 288 287 287 288 287 287 287 286 286 286 286 285 284 284 284 283 281 281 281 280 279 278 278 277 277 276 275 275 273 273 273 273 272
292 290 293 294 293 294 295 295 295 295 295 296 295 295 294 293 294 294 293 289 287 287 288 288 287 287 286 284 283 283 283 283 283 282 282 281 281 280 279 278 278 278 277 276 275 275 274 274 273 272 272 271 271 271
292 290 292 293 293 294 295 295 294 294 294 295 293 292 292 294 293 291 287 285 284 282 282 284 285 284 283 283 282 281 282 281 281 281 280 279 279 278 277 277 276 275 276 275 274 274 273 272 272 272 271 270 270 270
293 292 291 290 292 292 293 292 292 294 294 295 294 293 294 294 290 286 283 280 281 280 282 282 282 281 280 281 281 281 281 281 280 279 279 278 277 277 276 275 275 274 274 274 273 273 273 272 271 270 269 269 269 268
290 291 292 291 291 292 292 293 293 294 293 291 293 292 291 289 286 281 279 279 279 280 281 281 281 281 281 280 279 279 279 278 277 276 276 276 276 276 275 275 274 274 273 272 272 271 271 271 270 268 268 268 267 267
290 290 290 290 291 291 290 292 292 289 287 290 292 288 283 278 275 276 276 278 278 278 278 278 278 278 278 278 277 276 276 275 275 275 275 275 274 273 273 273 272 271 271 271 270 270 270 270 269 269 269 269 268 267
289 289 291 290 290 291 289 288 286 283 283 283 281 279 277 275 274 275 275 277 277 277 277 277 277 276 275 274 274 274 275 274 274 274 273 273 272 272 271 271 270 270 270 269 269 269 268 268 268 266 266 266 266 266
288 290 290 290 289 287 286 285 284 283 281 280 280 280 278 275 274 275 275 275 275 275 274 274 274 273 273 273 273 273 273 274 273 273 272 272 272 271 270 270 269 269 269 268 268 267 266 267 266 265 265 265 265 265
288 287 289 290 288 285 286 287 287 286 283 282 280 278 278 278 276 272 273 273 272 273 272 272 272 273 273 273 273 273 273 272 272 272 271 271 271 270 270 269 269 267 267 268 267 266 265 265 265 264 264 264 264 266
287 287 287 287 287 287 284 285 286 284 282 281 279 278 277 277 275 272 272 272 272 272 272 272 273 273 273 273 273 272 271 271 271 271 271 271 270 270 270 269 268 268 267 267 266 265 264 264 264 265 266 266 266 265

GFSWCAN_850_thetae_054.txt.gz
Theta_e
295 294 297 295 295 294 294 294 295 295 296 297 298 300 301 302 305 307 311 316 316 321 321 321 319 319 321 323 327 323 323 323 328 322 320 332 331 326 324 322 323 323 326 321 327 322 323 316 315 317 319 316 316 315
295 295 295 294 294 294 295 295 295 296 298 298 300 301 301 304 305 306 309 317 320 322 323 323 321 319 321 323 325 322 323 323 325 329 328 331 322 320 327 329 320 324 324 327 324 324 318 314 316 317 315 315 315 316
296 296 296 294 294 294 294 295 295 297 298 299 301 301 301 305 308 309 313 316 320 321 322 322 322 318 319 322 324 323 323 322 323 324 328 330 322 328 322 329 323 320 319 323 321 317 317 315 315 315 315 315 315 315
296 296 295 295 295 295 295 297 298 298 299 300 301 302 304 304 308 309 311 317 320 320 322 321 320 319 319 321 323 324 324 323 324 324 326 316 321 323 329 325 324 321 319 318 318 317 316 316 316 315 316 315 315 314
295 295 295 294 296 298 299 299 300 300 300 301 303 304 306 309 310 310 311 314 318 321 319 320 319 318 318 318 321 323 324 322 323 319 311 329 322 325 322 322 323 318 318 323 323 317 317 316 314 314 314 313 312 310
296 296 297 298 298 298 298 299 298 302 303 304 305 307 309 310 309 310 315 313 317 321 319 320 317 318 320 320 320 321 322 322 324 320 322 319 317 323 321 325 318 316 316 316 317 315 315 313 312 312 309 307 305 304
299 299 300 298 300 302 304 304 304 304 305 308 309 310 310 310 313 315 316 317 317 318 317 314 317 317 319 319 319 320 321 321 322 319 318 319 317 319 315 326 316 315 315 314 314 314 313 313 307 305 304 302 301 300
303 305 306 304 304 307 307 308 308 308 308 309 310 311 312 314 315 315 316 316 316 316 316 312 312 316 317 319 317 318 318 318 314 313 314 316 315 317 323 316 315 314 312 311 311 311 309 306 304 303 302 301 299 298
307 307 308 309 308 308 308 308 310 310 311 312 313 314 313 314 315 314 314 315 314 313 311 309 311 315 314 313 313 313 314 311 312 312 314 316 312 316 315 313 312 311 311 309 307 306 306 304 302 301 300 299 299 298
311 310 312 315 315 315 314 314 314 314 314 314 314 314 315 315 314 314 312 315 311 309 307 312 312 314 313 312 310 312 309 312 315 312 313 315 312 308 307 307 308 309 309 307 306 304 303 302 301 300 300 299 298 296
312 311 311 314 316 316 316 315 315 315 315 315 312 312 311 311 312 311 309 311 311 311 310 311 311 312 310 312 309 308 310 311 315 313 314 313 313 306 306 306 307 307 306 305 304 303 302 301 300 298 295 294 293 290
311 311 311 311 312 314 314 314 314 314 315 313 311 310 311 311 309 310 309 308 312 312 307 311 310 309 308 310 308 308 309 310 315 310 311 313 306 305 305 304 303 303 303 302 301 300 299 298 296 294 293 291 290 290
309 309 311 311 311 310 311 312 310 311 311 311 311 309 311 308 311 312 310 312 309 305 306 307 307 305 306 307 305 308 311 314 310 310 311 309 305 304 304 303 302 301 300 300 297 296 295 294 292 290 290 291 291 290
309 309 310 310 311 310 310 310 311 311 311 311 310 308 309 311 308 307 307 307 302 305 306 305 306 307 306 305 307 308 307 308 310 312 311 306 304 303 302 301 300 298 297 295 294 291 290 290 290 290 290 290 289 288
310 309 309 309 309 309 310 310 310 311 309 305 305 306 304 298 299 300 300 301 303 305 306 306 307 306 306 306 307 306 308 310 311 312 306 304 302 302 301 299 296 295 295 294 292 291 290 291 291 290 289 289 288 287
310 310 309 309 309 309 309 309 310 309 304 300 299 302 300 302 301 300 301 301 304 305 307 307 307 305 308 309 309 308 311 312 309 303 301 301 300 299 298 296 294 294 294 292 291 291 291 291 290 289 288 287 286 285
308 307 308 309 310 310 309 310 306 300 298 299 298 298 299 299 298 298 300 301 303 303 305 308 309 307 307 308 307 305 307 303 299 299 299 299 299 297 296 295 295 295 294 293 291 291 290 289 288 287 285 285 283 282
301 300 304 308 308 308 307 303 299 299 298 297 298 296 295 297 297 298 299 302 303 302 303 304 304 307 309 307 305 301 297 297 298 299 299 298 297 296 295 295 295 294 292 291 290 289 288 287 286 285 284 283 282 281
299 298 300 305 307 306 299 298 298 298 296 297 297 296 296 295 296 298 299 300 301 301 303 304 306 305 302 300 298 296 296 296 296 297 298 297 296 296 295 294 293 292 290 289 288 287 287 285 284 282 282 281 280 280
297 297 297 298 301 300 297 297 298 298 298 296 297 296 296 296 297 298 299 299 298 298 296 297 295 293 295 296 298 297 296 296 296 295 294 295 295 294 293 293 291 290 289 289 287 285 284 283 282 281 280 279 279 278
296 296 296 297 296 297 297 297 296 297 297 297 297 297 297 297 297 297 296 296 294 293 294 292 292 293 294 297 297 297 296 296 295 295 293 292 291 291 290 289 288 287 286 285 284 283 281 281 280 279 278 278 278 277
294 294 294 295 295 295 295 296 297 296 297 297 298 298 297 298 297 295 296 293 292 291 291 292 293 292 293 294 295 295 295 295 295 294 292 290 289 288 287 286 285 285 284 282 282 281 280 280 279 278 277 277 276 276
292 293 293 294 294 294 294 296 296 297 298 298 298 298 298 296 295 295 294 292 290 289 289 290 290 289 290 290 290 290 290 291 290 289 289 288 287 286 285 284 283 282 281 280 279 278 278 277 277 276 276 275 274 275
293 293 293 294 295 294 294 295 296 296 296 297 297 296 295 295 295 295 293 290 290 289 288 288 289 288 288 287 286 286 287 287 286 286 285 284 283 281 281 280 280 279 279 278 278 277 276 276 275 274 274 273 273 273
292 291 294 295 295 296 296 295 295 296 296 297 296 295 294 294 295 294 292 289 286 285 286 287 287 287 286 284 283 284 284 284 283 283 282 282 281 280 279 279 278 278 277 277 276 275 275 274 273 273 272 272 272 271
293 291 292 293 294 295 295 295 295 295 295 295 293 292 294 295 293 289 287 284 282 281 282 283 286 284 283 282 281 281 281 281 281 282 280 280 280 280 279 278 278 277 277 275 275 274 273 272 272 271 271 271 271 271
293 293 292 291 292 293 294 293 294 295 295 296 295 295 295 294 289 286 282 280 280 279 281 281 281 280 279 280 280 280 280 281 280 279 279 278 278 277 277 276 276 275 274 274 273 273 272 271 270 270 269 270 270 270
290 290 291 292 292 293 293 294 294 293 293 291 294 291 290 288 285 281 279 278 279 279 279 280 280 280 279 278 277 277 278 278 277 277 277 277 276 276 276 275 274 274 273 272 272 271 271 269 269 269 268 268 268 268
290 291 292 291 291 291 291 292 291 287 286 289 291 287 282 278 277 278 277 278 278 278 277 277 277 277 277 278 277 277 276 276 276 276 276 276 275 274 273 272 271 271 270 270 268 268 268 268 268 268 268 267 268 267
290 290 292 291 291 291 289 287 284 283 284 283 280 278 276 275 275 276 276 276 276 276 276 276 276 275 276 275 274 275 274 274 274 274 273 273 272 271 271 270 270 269 269 269 268 267 267 267 267 266 267 267 267 267
289 291 291 290 289 288 286 284 284 282 282 281 281 279 277 275 274 275 275 274 275 275 275 274 273 273 273 274 274 273 273 274 273 273 272 272 271 271 269 270 269 268 268 267 266 266 266 266 266 266 266 266 266 265
288 288 290 291 288 286 287 288 288 286 284 282 281 279 279 279 277 273 274 274 273 273 272 272 272 272 273 273 273 273 272 272 271 271 272 272 271 271 270 270 270 268 266 266 265 266 266 265 265 265 265 265 265 264
288 288 288 289 289 288 286 287 286 284 283 282 280 279 277 277 275 272 272 272 271 270 271 272 273 273 273 272 272 271 271 271 271 271 271 271 270 270 269 269 269 268 268 268 266 265 265 265 265 265 264 263 263 263

GFSWCAN_850_thetae_057.txt.gz
Theta_e
298 297 296 294 293 294 294 293 296 299 299 300 300 298 298 298 300 300 302 307 312 316 320 320 317 318 321 322 319 321 320 321 321 313 314 312 311 316 317 322 317 315 313 310 313 316 315 318 314 313 315 316 315 316
296 295 293 293 294 294 298 299 300 300 300 298 297 298 298 299 301 301 303 305 309 310 318 321 321 318 321 322 323 321 320 321 323 316 314 313 316 311 316 315 319 318 318 316 315 315 316 317 316 315 315 315 315 315
293 294 296 299 299 299 299 299 299 298 297 297 297 297 298 300 300 302 303 307 309 312 320 322 321 320 321 322 322 322 323 321 324 322 319 315 314 313 314 315 319 319 319 317 316 317 314 316 315 315 315 314 314 314
297 297 296 296 295 295 295 295 295 295 296 296 297 298 299 301 300 302 303 307 312 315 315 320 320 319 321 323 322 321 321 325 324 322 315 309 312 319 315 318 317 317 316 316 316 315 316 315 315 315 314 314 313 313
296 296 295 294 294 295 295 294 295 296 296 297 298 299 301 301 302 303 304 306 311 313 315 319 319 319 319 322 322 320 320 323 322 313 307 312 318 316 315 314 315 316 316 311 311 316 315 314 314 314 313 310 310 310
296 294 294 294 294 294 294 295 295 296 297 298 299 301 301 302 304 303 305 307 312 312 318 312 318 320 320 320 323 320 317 323 321 319 316 317 318 317 309 310 315 315 316 317 316 316 313 310 310 310 309 306 305 305
295 294 294 295 294 295 296 297 298 298 299 299 300 301 303 304 304 307 312 315 314 313 316 309 312 318 319 320 321 321 323 321 319 317 318 315 317 313 309 311 315 314 314 315 314 312 309 309 303 305 305 303 303 302
295 295 295 295 297 299 299 300 300 300 300 299 300 303 304 306 308 308 314 315 318 317 316 307 309 315 317 318 316 318 318 315 313 313 315 312 313 313 310 314 313 312 312 312 313 312 306 304 304 303 303 302 301 299
299 301 299 298 297 298 298 298 298 299 303 303 304 306 306 308 310 309 313 312 313 314 307 305 312 313 315 313 314 314 313 308 312 305 311 311 309 309 313 313 312 310 309 307 306 305 305 304 302 301 300 299 298 298
304 303 300 300 300 302 304 303 302 302 304 305 306 310 309 313 313 314 313 314 311 309 310 307 312 310 313 311 309 309 309 306 309 308 312 307 307 308 308 309 310 310 307 306 305 303 302 301 300 299 299 298 297 297
307 308 308 307 306 306 307 307 307 307 306 310 312 311 311 312 312 311 308 308 309 303 310 311 311 309 311 307 305 308 305 304 310 308 309 309 307 307 307 308 309 309 306 306 306 304 303 300 299 298 297 297 295 291
309 309 310 311 310 310 310 310 311 310 312 313 311 310 311 309 308 308 304 303 308 306 307 308 309 309 309 308 306 305 306 305 311 307 309 307 306 306 306 306 306 307 306 305 304 302 300 298 298 297 294 291 290 290
310 309 312 313 313 313 313 312 313 313 311 312 311 309 308 306 307 308 307 307 306 304 306 307 304 306 307 306 304 305 308 309 307 307 305 305 305 305 304 303 303 303 303 301 300 299 297 295 295 292 290 291 290 289
310 310 309 310 310 311 311 311 310 311 311 310 307 306 306 306 304 303 304 304 303 305 306 306 307 304 305 303 303 307 304 305 308 307 306 304 304 303 302 302 300 299 298 297 296 296 295 292 290 291 291 290 289 288
309 308 309 310 310 310 310 311 311 311 309 305 304 304 301 299 299 300 301 302 304 305 306 305 305 305 303 305 303 304 306 308 306 306 304 303 303 302 301 300 298 296 296 295 293 291 290 290 290 290 288 288 287 287
309 309 309 308 309 309 310 310 310 310 303 300 299 301 300 301 300 300 302 302 305 306 307 306 303 305 306 305 306 307 306 306 305 301 303 302 301 299 298 297 296 296 295 291 290 290 290 290 289 288 287 287 286 285
309 307 307 309 309 309 310 310 308 301 299 298 297 298 299 299 298 298 300 302 304 304 303 303 305 305 303 305 304 302 302 300 299 301 301 301 299 297 296 295 295 294 292 291 291 291 290 288 287 287 286 284 284 283
307 307 308 307 308 309 309 304 299 298 297 296 296 295 296 297 298 298 299 302 303 303 303 302 304 305 305 305 303 298 296 297 299 300 299 298 296 295 295 295 294 293 292 291 290 289 287 286 286 286 285 282 282 282
298 300 306 307 308 306 300 299 298 297 296 297 297 296 296 297 298 298 299 301 301 302 303 302 299 300 299 297 297 296 296 296 297 298 297 296 295 295 295 294 294 293 291 289 288 287 286 286 285 284 283 281 280 280
297 298 298 304 307 300 297 297 298 297 297 296 297 297 297 297 296 296 297 297 297 294 293 294 293 293 293 296 297 297 297 297 297 296 295 295 295 295 294 293 292 290 289 287 287 286 285 285 284 282 280 280 279 278
295 295 297 300 298 297 297 297 296 297 297 297 297 297 297 296 296 294 293 292 292 292 293 293 292 292 295 296 295 295 295 296 295 295 293 292 292 292 291 290 289 288 287 286 285 284 284 283 281 279 279 279 278 277
293 294 295 296 296 296 296 297 296 297 297 297 297 297 297 297 296 294 291 290 290 290 291 290 291 291 292 293 293 295 295 295 294 293 292 291 290 289 288 287 287 286 285 284 283 282 281 280 279 278 277 277 277 276
292 293 293 294 294 295 294 296 296 297 297 297 297 297 296 295 295 294 292 290 289 288 289 289 289 289 289 289 291 291 292 293 292 290 289 288 287 286 285 285 284 284 282 280 279 279 278 278 278 277 276 276 275 275
293 294 294 294 294 293 295 295 296 296 296 296 294 294 293 294 295 291 290 288 285 287 287 288 289 288 287 287 286 286 286 287 286 285 285 286 285 283 283 282 282 281 279 278 278 277 277 277 276 276 275 274 273 273
292 291 293 289 294 293 289 294 295 294 294 295 294 293 292 294 292 289 288 285 282 283 284 285 286 285 283 283 283 284 284 284 284 283 281 282 282 281 281 280 279 278 277 277 277 276 275 275 275 274 273 272 271 271
291 291 291 292 293 292 292 293 294 294 292 289 292 292 294 290 285 285 284 281 280 280 281 282 282 282 281 281 281 281 281 281 282 282 281 281 280 279 279 278 278 278 277 276 275 274 274 273 273 272 271 271 270 270
292 292 291 292 293 294 293 294 294 290 289 292 292 291 291 285 284 283 280 279 279 279 279 280 280 280 279 279 279 279 280 280 280 279 279 279 278 277 277 276 275 275 274 274 274 273 273 272 272 271 270 269 269 269
290 291 292 291 291 291 289 286 286 288 287 287 290 284 282 282 281 279 279 279 278 278 278 279 278 278 278 278 278 278 278 277 277 277 277 277 276 276 275 274 274 274 273 272 272 272 271 270 269 269 269 268 268 268
290 291 291 290 291 289 288 287 287 285 284 286 283 281 279 277 278 278 278 278 278 278 277 277 276 276 277 276 276 276 276 276 276 276 275 275 274 274 272 272 272 271 271 271 270 269 268 267 267 267 267 267 267 267
289 291 290 289 285 286 284 283 282 283 282 280 277 276 275 275 275 276 276 276 276 276 275 276 276 276 275 275 275 274 275 274 274 273 273 272 272 271 271 271 271 271 270 269 269 268 268 267 267 266 266 266 266 266
289 291 290 288 288 285 283 283 282 282 281 279 278 276 274 274 274 274 275 275 275 275 274 274 274 274 274 274 274 273 273 273 273 272 272 272 271 271 270 270 270 269 269 267 267 267 266 266 266 265 265 265 265 264
288 288 290 287 287 286 285 285 285 282 281 280 279 278 277 276 274 273 273 273 273 273 272 273 273 273 273 273 272 272 272 272 271 271 271 271 271 270 270 269 269 269 268 268 267 267 266 266 265 265 264 264 264 264
287 287 287 287 287 287 285 287 284 283 282 280 279 278 276 275 273 272 271 272 272 272 273 273 273 273 272 271 271 271 270 270 270 270 270 270 269 269 269 268 268 268 268 267 267 267 266 266 265 264 264 264 264 263

GFSWCAN_850_thetae_060.txt.gz
Theta_e
304 302 300 299 298 298 297 295 295 295 295 295 295 295 296 301 304 303 302 303 305 310 316 318 317 316 315 315 317 319 320 318 315 314 315 315 310 315 315 317 313 313 312 310 309 304 313 314 313 312 311 315 316 316
299 299 298 298 298 297 295 295 294 294 294 294 295 297 300 303 303 303 303 302 305 306 311 314 320 318 315 315 319 321 320 318 319 315 312 313 315 307 313 316 317 316 312 312 313 312 312 314 315 315 315 315 315 315
298 298 298 297 296 295 295 293 293 293 298 299 297 299 302 303 301 301 302 302 304 306 310 316 321 320 318 317 317 320 320 319 320 320 316 315 314 311 312 310 316 318 317 316 316 314 314 314 314 315 315 314 314 314
295 295 294 294 294 295 294 294 294 295 300 300 299 300 301 300 299 300 301 303 305 310 312 318 320 319 322 319 320 321 321 322 324 322 311 310 310 314 310 314 314 315 315 315 314 314 314 314 314 314 314 313 313 312
297 296 296 295 296 296 298 299 299 300 299 299 298 298 298 299 300 301 301 302 309 309 311 318 319 320 322 323 321 322 322 322 321 312 305 313 314 314 311 311 314 314 314 312 311 315 312 313 314 313 312 311 311 312
296 297 298 299 299 299 299 299 297 297 297 297 296 297 298 301 301 302 301 301 305 305 308 311 318 319 321 322 321 321 321 321 318 319 314 316 317 313 308 308 313 315 316 315 315 315 314 311 310 311 311 308 307 308
294 294 295 294 294 294 295 295 295 296 296 297 297 298 300 301 300 302 304 309 307 305 307 309 311 318 319 320 320 320 320 318 316 317 316 314 315 312 304 309 313 314 315 315 315 313 306 308 305 307 308 304 303 302
294 294 295 294 294 294 294 295 295 296 297 298 298 300 301 302 303 304 309 313 311 307 308 307 312 315 316 316 314 317 316 315 314 313 315 310 312 309 309 312 312 313 311 310 311 313 310 306 305 304 304 303 301 299
294 294 295 294 294 296 295 295 296 297 298 299 301 301 303 304 305 305 309 312 312 311 306 306 311 312 314 313 313 312 311 307 310 306 308 309 306 307 310 311 309 312 312 306 308 308 304 304 303 302 301 299 299 297
295 295 295 297 298 298 298 298 298 300 300 301 300 303 305 307 308 305 307 310 310 309 310 305 310 310 311 309 306 307 308 305 311 305 311 303 306 307 310 311 310 309 309 308 304 302 303 302 301 299 299 298 298 296
297 299 299 298 297 298 299 300 300 300 300 301 304 309 310 308 309 307 306 306 306 302 308 310 308 309 311 307 305 307 304 304 309 309 308 308 308 306 308 309 308 308 309 309 308 306 304 302 299 298 298 297 296 295
302 300 300 300 300 300 298 298 299 300 303 308 310 309 309 310 308 307 303 303 305 306 306 307 308 309 309 308 305 304 305 304 309 306 308 310 306 307 307 308 306 306 307 306 305 304 301 300 299 298 297 295 292 290
307 306 305 304 303 303 303 302 303 303 310 310 311 309 308 305 306 305 306 306 305 303 307 307 304 307 307 306 303 304 307 307 303 304 307 304 306 305 305 306 305 304 304 303 302 301 299 297 297 297 293 290 290 289
309 307 306 307 307 306 306 309 307 309 310 310 307 305 305 306 303 302 304 304 303 305 305 304 303 303 305 304 302 307 304 303 301 301 305 304 304 304 304 303 303 302 303 302 300 298 297 297 293 291 290 289 289 288
309 309 310 309 309 310 310 311 310 308 307 303 303 303 301 298 300 300 301 303 305 305 306 304 304 305 302 304 302 302 307 307 304 304 303 304 303 303 301 301 301 300 299 297 296 296 295 292 291 290 289 288 287 287
309 309 309 309 310 310 310 308 308 306 302 300 298 301 300 301 301 300 302 302 306 306 305 305 303 304 305 304 305 305 305 305 305 301 302 302 302 302 300 299 297 296 296 295 294 292 291 290 290 289 287 286 286 285
309 308 309 309 310 310 310 310 306 300 298 298 297 297 298 298 297 298 300 302 304 305 302 297 305 305 301 304 304 301 302 300 299 301 301 301 300 299 298 297 296 295 293 290 290 290 290 289 287 287 286 285 285 284
307 306 307 309 309 310 310 304 299 297 296 296 295 295 296 296 297 298 300 301 302 303 303 301 303 302 303 303 301 298 297 298 298 299 299 298 297 296 296 294 294 292 291 291 290 289 288 286 286 285 285 284 283 282
302 307 307 308 309 308 301 298 297 296 296 296 297 297 296 295 295 297 299 300 301 302 299 296 294 296 296 296 296 296 297 297 296 295 295 295 295 295 295 295 292 291 291 290 288 287 286 285 285 284 283 282 281 280
300 302 306 307 305 300 298 297 297 297 296 296 296 296 296 295 293 293 294 295 295 293 293 293 293 292 293 294 296 296 295 296 296 294 294 294 294 294 294 294 292 291 290 288 286 286 285 285 285 283 281 280 279 278
296 297 301 303 298 297 297 297 297 297 297 296 297 296 295 292 291 290 291 291 291 292 292 290 290 290 293 294 295 295 295 295 294 293 292 291 292 293 291 291 290 289 288 287 287 285 284 284 282 280 279 278 278 277
294 296 296 297 296 296 296 297 297 297 297 297 297 296 296 294 292 290 289 289 289 288 289 288 287 289 291 292 293 294 294 294 293 292 291 291 290 289 288 288 288 286 285 284 283 283 281 279 278 278 278 277 277 276
293 293 294 294 295 295 294 296 296 297 296 297 296 296 295 295 294 290 288 286 284 284 287 287 288 288 288 289 290 291 291 291 291 290 289 288 287 286 286 285 284 284 283 281 280 279 279 278 278 277 276 276 275 275
294 293 294 295 294 291 294 295 296 296 295 294 294 293 293 293 290 288 287 283 281 284 285 285 286 286 287 287 286 286 286 287 286 285 285 285 284 283 283 282 281 281 280 279 279 278 277 277 276 275 275 274 273 273
291 289 291 286 292 290 284 290 289 291 291 291 291 292 292 292 288 286 284 281 280 281 282 283 284 283 282 282 283 283 283 284 284 284 281 281 281 281 280 280 279 279 278 277 276 275 275 274 274 274 273 272 272 271
290 291 290 291 290 290 291 291 289 288 285 290 291 292 290 283 283 283 281 279 278 279 280 280 281 281 281 280 281 281 280 281 281 282 279 279 279 279 279 278 278 277 276 275 274 274 274 273 273 272 272 271 270 270
288 287 291 291 292 293 289 291 290 284 284 286 287 285 281 279 280 281 279 278 278 278 279 279 280 279 279 278 279 279 279 280 280 279 278 278 278 276 275 275 274 274 274 273 273 273 273 272 271 271 270 269 269 268
291 291 288 290 289 288 281 279 282 284 283 286 283 277 275 275 279 278 278 277 278 278 278 278 277 278 278 278 277 277 278 277 277 277 276 276 276 275 274 274 273 273 273 272 271 271 270 270 269 269 268 267 268 267
290 290 289 283 287 285 284 282 282 283 281 283 274 275 276 275 276 277 277 277 277 277 277 276 275 275 275 276 276 276 276 275 275 275 274 274 273 273 272 272 272 271 271 270 270 269 268 267 267 267 266 266 265 265
289 289 289 286 277 280 282 281 279 278 278 277 275 274 274 274 275 276 276 276 276 276 276 275 275 275 275 275 274 275 274 274 273 273 273 272 272 272 271 271 270 270 270 269 269 269 268 268 267 267 266 265 265 265
288 289 287 286 283 281 280 280 279 279 277 275 275 274 273 273 274 274 274 274 274 274 274 274 274 274 274 274 274 274 274 273 272 272 271 271 270 270 270 269 269 269 269 268 268 268 268 267 267 266 265 265 264 264
288 287 287 281 284 281 283 282 280 279 278 276 276 275 275 274 272 272 271 272 272 273 273 273 273 273 273 273 272 272 272 271 271 270 270 270 269 269 269 269 268 268 268 268 267 267 267 266 266 265 265 264 264 264
286 285 286 286 285 284 285 284 282 280 280 279 278 276 274 273 271 271 271 271 272 272 272 273 273 274 273 271 271 270 270 269 269 269 269 269 269 269 268 268 268 267 267 267 266 266 266 265 265 265 265 264 264 264

GFSWCAN_850_thetae_063.txt.gz
Theta_e
302 299 299 299 300 302 301 300 300 299 297 295 295 295 297 298 299 299 301 304 307 307 311 315 316 316 314 314 314 316 320 318 312 313 313 311 309 315 315 315 313 315 313 308 304 304 316 312 312 311 309 312 314 314
304 303 302 302 301 299 300 299 298 297 295 295 296 297 298 298 299 299 300 303 305 304 308 311 315 316 315 315 314 319 317 318 318 314 310 312 312 308 312 315 314 315 312 313 312 312 312 313 312 314 314 315 315 315
301 301 300 300 300 299 298 298 296 295 295 296 297 297 297 296 297 300 301 303 302 302 307 311 316 317 319 316 315 317 318 319 319 318 314 313 316 310 315 313 316 315 313 312 313 314 313 313 314 314 315 315 315 314
298 298 298 298 298 298 297 296 295 295 296 296 296 296 295 296 298 300 302 303 303 304 309 316 318 319 320 319 316 314 316 319 320 319 311 310 311 314 313 315 314 314 314 314 313 313 313 313 313 314 314 314 314 314
297 297 297 297 296 295 295 294 295 296 295 295 295 295 296 300 300 302 303 302 303 303 308 311 317 319 320 320 317 316 319 320 320 313 306 312 313 313 310 311 313 313 314 313 313 313 313 313 313 312 313 313 313 313
294 295 294 294 294 294 294 293 294 294 294 296 297 298 299 303 302 302 301 302 304 304 304 307 317 318 320 320 319 319 320 321 320 318 311 313 315 311 308 310 312 314 314 315 314 314 314 314 312 310 311 311 310 310
298 296 295 295 295 295 296 296 297 299 298 298 299 300 300 301 301 301 302 303 304 305 304 306 310 318 318 320 319 319 319 318 317 315 315 313 314 311 303 308 312 313 315 314 315 314 308 310 308 308 310 308 307 305
296 296 297 298 298 298 298 298 298 299 299 299 299 299 299 300 301 304 309 307 303 305 306 305 309 313 317 315 314 316 315 315 315 314 314 309 312 309 312 311 312 309 310 310 311 313 312 309 307 305 305 303 302 300
294 294 294 294 295 295 296 297 297 297 298 298 298 300 300 300 299 302 309 310 306 306 305 304 310 313 313 312 312 311 312 307 310 305 305 310 306 313 313 315 311 308 311 307 309 310 307 307 303 302 301 301 301 297
294 294 294 294 294 295 296 296 297 298 298 299 300 300 302 302 302 307 305 308 309 310 310 304 309 310 310 308 305 306 307 306 310 307 310 301 307 308 309 311 312 309 309 309 304 300 302 301 301 300 300 300 300 298
294 294 295 296 295 294 296 297 298 300 299 301 302 302 304 305 305 305 303 301 303 304 307 309 309 309 310 307 305 305 305 303 311 310 310 309 309 305 309 310 310 310 311 309 310 307 304 304 302 300 299 298 296 295
297 296 296 297 296 295 296 296 298 300 301 301 304 307 307 307 304 305 303 300 303 306 305 306 307 309 307 308 304 303 305 303 312 306 309 311 305 306 307 307 308 308 308 307 307 306 304 302 301 299 298 296 295 293
297 298 298 298 298 298 297 299 300 300 300 304 308 308 307 303 306 308 308 304 305 302 305 306 304 307 306 307 302 304 307 306 303 308 310 306 305 305 305 305 305 305 305 305 304 304 304 300 299 298 296 294 292 290
300 299 299 298 298 299 298 298 299 299 299 306 305 305 304 306 303 303 304 304 303 304 304 304 301 301 305 303 302 306 304 304 305 303 302 303 304 303 304 305 305 303 303 304 303 299 299 298 297 295 293 291 289 289
303 302 301 301 300 298 298 298 299 300 302 301 302 302 301 299 300 300 301 303 303 304 305 302 303 304 302 303 300 304 306 308 303 299 302 303 301 301 300 302 303 303 301 299 298 298 296 295 294 291 289 288 288 288
306 305 304 303 302 301 301 299 300 300 301 299 298 301 300 301 301 300 303 302 304 305 305 304 301 304 304 303 304 301 304 305 301 301 302 302 302 302 301 300 299 298 297 296 295 296 295 292 290 289 288 287 286 286
308 307 307 306 305 304 301 301 300 298 298 297 296 296 298 298 297 297 300 302 304 304 301 295 303 305 301 303 303 301 301 299 298 300 300 300 300 298 297 297 296 296 295 295 295 293 291 289 289 290 287 285 285 284
307 306 307 308 307 307 304 299 298 297 297 296 296 295 294 294 296 296 298 302 302 302 302 302 301 301 301 302 300 298 297 296 297 297 297 297 298 296 297 295 294 295 294 292 290 289 289 289 287 285 285 284 284 283
307 308 308 309 309 308 301 298 297 296 296 296 296 296 294 293 292 294 296 296 297 297 295 294 291 293 294 295 296 295 296 295 294 294 294 294 295 295 294 294 292 290 290 290 289 288 288 286 285 284 284 284 282 281
305 307 307 308 308 302 297 297 297 297 296 295 292 291 291 291 291 291 293 293 294 292 292 291 291 290 292 293 295 295 294 294 295 293 292 293 294 294 293 292 291 291 290 289 287 286 285 285 284 284 282 280 280 279
301 301 301 303 298 297 296 296 296 296 296 296 294 293 291 289 288 288 289 290 290 290 289 286 286 287 291 293 293 294 294 295 293 292 290 290 291 292 291 290 290 289 288 286 285 284 284 284 282 281 280 278 278 277
296 298 298 298 297 296 296 296 296 296 297 296 296 294 293 292 290 288 286 285 284 283 286 285 285 286 289 289 290 292 292 293 292 291 291 290 289 289 288 287 288 286 285 284 283 283 282 281 279 278 278 278 277 276
293 294 294 294 295 295 294 296 296 296 296 296 295 295 294 292 289 287 285 283 281 281 284 284 285 286 286 287 289 289 290 291 290 289 288 288 287 286 285 284 284 283 282 281 280 280 280 279 278 278 277 276 275 274
293 292 293 293 293 288 293 294 295 295 294 294 293 293 293 290 287 285 283 281 279 281 283 284 285 285 286 286 285 285 285 287 286 285 284 285 284 283 282 282 281 280 279 279 279 278 278 277 276 275 274 274 273 273
291 289 291 284 292 288 285 287 290 292 292 292 292 292 291 288 286 284 282 279 278 279 280 282 283 282 281 281 282 282 283 284 284 283 281 281 281 280 280 279 279 278 278 277 276 275 274 274 273 273 272 272 271 271
285 290 289 289 288 287 285 284 287 286 287 290 290 288 285 283 282 281 280 278 277 277 278 279 280 280 280 280 280 280 280 280 281 281 279 279 279 279 278 277 276 275 275 274 274 273 273 273 272 272 271 270 270 269
287 287 290 288 290 290 285 286 285 282 283 284 283 280 279 278 279 280 278 277 277 277 278 278 279 279 278 278 278 278 279 279 280 279 277 277 276 275 275 275 274 273 273 273 273 272 272 271 271 270 270 269 269 268
290 289 284 285 285 284 278 276 279 281 281 282 278 273 272 271 277 277 276 276 277 277 277 277 277 277 278 277 277 277 277 276 276 276 276 275 275 274 274 273 272 272 272 271 271 270 270 270 269 269 268 268 267 266
288 287 287 278 282 281 281 279 278 277 277 279 271 271 275 274 275 276 276 276 276 277 276 275 274 275 276 276 276 275 275 275 275 274 274 274 273 273 272 272 271 271 271 270 270 269 268 268 268 267 267 267 266 266
287 286 285 281 275 277 277 276 274 275 275 275 274 273 273 274 274 275 275 276 276 276 275 275 275 274 274 274 274 274 274 274 273 273 273 272 271 271 271 271 270 270 269 269 269 269 268 268 268 267 267 267 266 265
288 286 284 281 279 276 276 275 275 274 274 273 273 273 272 272 272 272 273 273 274 273 274 274 274 274 273 273 273 273 273 272 272 271 271 270 270 270 270 269 269 269 268 268 268 268 267 267 267 267 266 266 265 265
286 285 284 277 280 279 279 279 277 276 276 275 274 274 274 273 271 271 270 271 271 272 273 273 273 273 273 273 272 272 271 271 271 270 270 270 269 269 268 268 268 268 267 267 267 267 266 266 266 266 265 265 265 264
284 285 285 284 281 280 281 282 280 279 278 277 276 275 273 272 271 270 270 270 271 272 272 272 273 273 272 271 271 270 270 270 270 269 269 268 268 268 268 268 268 267 267 267 266 266 266 265 265 265 265 264 264 264

GFSWCAN_850_thetae_066.txt.gz
Theta_e
301 301 300 301 301 300 300 299 304 302 301 301 301 300 298 296 295 297 296 300 299 304 305 311 312 311 311 310 309 310 313 313 309 310 308 309 309 314 314 316 316 317 314 309 304 306 317 311 311 310 309 310 312 312
301 301 300 300 301 300 300 300 302 301 301 300 300 299 297 296 295 297 297 298 303 305 306 308 312 313 311 310 310 313 312 314 314 313 308 309 311 308 313 316 312 318 316 315 314 314 313 312 312 313 312 312 313 313
299 300 300 300 299 299 300 302 301 300 300 300 299 297 296 296 296 296 298 300 303 305 305 307 312 314 313 312 312 315 314 317 317 318 311 313 313 310 313 312 317 313 311 312 313 312 311 313 313 313 313 314 314 314
299 299 300 300 300 301 301 300 299 300 299 298 297 296 296 296 298 299 299 301 303 304 304 311 315 316 315 317 314 314 316 316 319 318 310 310 312 312 312 315 314 313 313 312 311 312 313 314 314 314 314 314 314 314
299 299 299 299 299 299 299 299 299 299 298 296 295 295 297 298 298 299 299 300 303 305 306 306 312 317 318 317 317 315 314 319 319 311 305 311 312 313 309 311 312 313 313 313 314 314 314 314 314 313 314 314 314 314
297 298 298 298 298 298 298 298 297 296 295 296 297 298 297 297 297 300 301 300 302 302 303 304 311 317 317 317 316 317 315 315 316 316 308 313 314 313 309 309 312 315 315 315 314 315 314 314 314 313 314 314 314 313
295 295 296 296 296 296 296 295 295 296 296 297 296 297 295 297 299 301 302 302 302 301 303 303 307 316 317 317 317 318 317 318 318 315 312 313 314 310 302 308 311 313 314 314 314 313 310 311 310 311 312 311 311 310
294 294 294 294 294 294 295 296 296 296 295 295 295 296 297 299 300 302 306 303 302 303 304 303 308 312 315 314 312 315 315 315 313 312 312 307 311 308 311 310 311 309 311 310 309 311 312 310 308 308 308 308 307 305
298 298 297 297 296 295 296 295 295 295 296 298 298 300 300 301 301 302 305 304 304 304 303 303 308 312 313 311 311 312 311 307 310 307 307 312 305 311 313 312 310 309 312 309 310 309 310 311 306 305 304 303 305 301
295 296 298 298 298 299 299 296 297 299 299 300 300 300 300 300 302 305 305 303 304 305 306 304 308 310 310 307 305 306 306 307 310 308 310 307 309 310 314 313 314 312 314 313 309 304 303 301 304 302 304 302 302 300
294 295 296 297 297 298 298 299 300 301 300 300 301 302 301 304 303 302 300 302 303 303 306 308 309 309 308 307 305 304 305 303 311 308 310 309 310 306 310 311 312 311 309 310 310 308 305 304 301 301 299 299 299 299
294 295 294 296 297 298 299 299 300 300 300 302 303 302 303 304 304 303 304 300 302 305 304 306 307 308 307 306 303 303 306 304 311 306 309 311 305 305 307 307 307 309 308 307 308 307 305 303 302 301 299 299 298 296
295 296 295 296 297 298 298 300 300 299 303 304 304 303 305 302 306 305 307 302 305 302 305 306 304 306 305 302 302 304 307 307 303 309 311 305 304 304 305 305 305 305 306 306 304 303 302 301 299 300 299 296 294 293
296 297 296 297 299 298 301 299 299 300 299 301 303 304 304 305 304 304 304 303 302 303 304 304 302 303 303 303 303 307 303 304 306 307 306 300 303 302 303 304 304 303 303 303 302 301 300 301 299 298 294 291 292 290
297 298 298 298 298 297 298 299 298 298 299 299 301 302 301 299 299 299 300 302 302 303 304 303 303 304 301 303 301 304 306 305 301 299 301 300 301 301 301 302 302 301 301 301 302 301 299 297 294 292 291 291 289 287
299 299 298 297 298 298 299 298 298 297 298 298 297 301 300 301 300 299 301 300 303 304 304 303 301 303 303 302 300 301 298 298 301 300 300 298 298 298 298 299 299 300 301 299 297 296 294 293 293 291 287 285 286 288
301 301 301 299 298 298 298 298 299 298 296 297 296 294 297 297 297 296 297 300 302 303 301 297 304 305 301 303 303 300 300 299 297 296 298 298 298 297 297 296 296 295 294 293 293 293 292 291 288 286 287 285 284 283
303 303 302 301 300 298 299 298 297 297 297 296 295 295 292 292 293 293 295 299 302 301 300 299 299 299 299 301 299 298 295 294 295 295 295 295 295 295 295 294 293 293 293 292 292 289 286 286 288 287 286 283 283 283
303 303 303 302 301 301 298 297 297 296 295 295 293 293 292 291 291 292 294 294 294 295 294 292 291 293 293 295 296 295 294 293 291 291 292 292 293 294 294 293 292 292 291 290 289 288 287 287 286 284 284 284 284 283
304 303 302 302 301 299 297 297 297 296 296 292 290 289 289 288 289 289 290 291 291 289 288 288 288 287 288 290 293 293 292 292 292 290 289 290 291 292 292 292 291 290 289 288 287 287 286 285 284 284 283 282 281 280
299 298 298 299 297 297 296 296 296 296 295 293 291 291 290 288 286 286 286 287 286 287 286 284 284 285 287 290 292 293 292 293 290 289 287 287 288 290 289 289 288 288 287 286 285 284 284 283 282 281 281 279 278 277
297 298 298 298 296 296 296 296 296 296 295 294 294 292 291 289 287 285 284 282 282 281 283 283 283 283 286 287 287 289 289 291 290 289 288 288 287 287 286 286 287 285 284 283 283 282 281 281 280 279 279 279 278 278
294 294 294 295 296 296 295 296 296 296 295 294 294 293 290 288 286 284 283 281 280 279 282 282 282 283 284 285 287 288 288 289 288 287 287 286 285 284 284 284 283 283 282 280 280 280 279 279 278 278 277 276 275 274
293 292 292 292 292 286 293 293 294 294 293 293 293 292 290 288 285 283 282 280 278 279 281 282 283 284 285 286 284 284 284 285 285 284 283 284 283 282 282 281 280 280 279 278 278 278 277 276 275 274 274 274 273 273
291 288 290 283 291 285 283 286 290 291 292 292 292 290 288 286 284 282 281 279 277 278 279 280 282 281 280 280 281 282 282 283 283 282 280 280 280 280 279 279 279 278 276 275 275 275 275 274 274 273 273 272 272 271
285 289 288 285 289 285 284 283 285 287 288 289 288 285 283 282 281 280 279 277 276 277 278 278 279 280 279 279 279 280 279 280 281 281 278 278 278 278 276 276 275 275 274 274 274 273 273 272 272 271 271 270 269 269
284 285 287 285 286 286 281 282 283 281 282 282 281 280 280 279 279 279 277 276 276 277 277 278 279 279 278 278 278 278 278 278 279 277 276 276 275 275 274 274 274 273 272 272 271 271 271 271 270 270 269 269 268 268
287 286 280 281 281 281 273 275 277 278 279 279 276 273 272 271 276 276 275 275 276 277 277 277 277 277 277 277 276 276 276 275 275 275 274 274 274 273 273 272 272 271 271 271 270 270 270 269 269 268 268 268 267 266
285 284 283 275 278 277 276 275 274 274 275 276 268 270 272 272 274 274 275 276 276 276 276 276 276 276 276 275 275 275 274 274 274 274 274 273 273 272 271 271 271 270 270 269 269 269 268 268 268 268 267 267 267 266
284 283 281 277 272 273 273 272 272 273 274 273 272 272 271 272 273 274 274 274 275 275 274 274 273 273 274 274 274 274 274 273 273 273 272 272 271 271 270 270 270 270 269 269 269 268 268 268 267 267 267 267 266 266
284 283 280 277 274 273 273 273 273 273 273 272 272 271 271 271 272 272 272 272 273 273 274 273 273 273 273 273 273 273 273 272 271 271 271 270 270 270 269 269 269 269 269 268 268 268 267 267 267 266 266 266 265 265
284 282 280 274 277 276 277 277 276 275 275 274 274 274 273 272 270 270 270 270 271 272 272 272 273 273 273 272 272 271 271 270 270 270 270 270 269 269 269 269 268 268 268 267 267 267 266 266 266 265 265 265 265 265
283 283 282 281 279 277 278 279 278 277 276 276 275 273 272 271 270 270 270 270 271 272 272 273 273 272 272 271 271 270 270 270 270 270 269 269 269 269 268 268 267 267 267 267 266 266 266 265 265 265 265 265 264 264

GFSWCAN_850_thetae_069.txt.gz
Theta_e
300 300 301 300 299 300 300 300 299 299 301 302 302 301 301 300 297 297 297 298 299 301 304 304 307 309 308 309 309 308 311 312 311 312 311 313 314 317 318 317 317 319 318 317 312 316 320 312 309 315 316 310 311 311
300 300 300 300 300 301 300 299 299 299 302 301 301 301 301 300 297 297 297 298 299 300 303 303 306 308 308 309 309 310 310 311 312 313 310 311 312 310 317 319 313 320 318 319 318 320 315 311 315 313 313 313 312 312
300 300 300 300 300 300 300 300 299 301 301 301 301 300 300 299 298 298 297 296 297 298 299 300 304 308 309 309 309 311 311 312 312 314 312 314 314 313 316 316 317 314 312 317 316 316 313 313 312 313 312 312 313 313
299 300 301 300 300 299 300 299 301 302 301 300 300 300 300 299 298 297 297 297 297 301 301 304 307 306 310 310 310 309 311 314 315 315 310 309 315 312 316 318 318 315 314 314 315 313 313 314 314 313 313 312 313 313
299 300 299 299 299 299 302 302 302 301 300 300 300 300 299 298 298 297 296 296 297 303 304 303 304 310 313 313 310 309 311 314 315 313 306 315 313 314 311 313 315 314 315 317 318 315 316 317 318 317 314 313 313 313
299 300 301 301 301 302 301 301 300 300 300 300 299 299 298 297 296 296 297 297 298 300 302 304 306 311 314 314 314 312 310 314 317 314 310 313 314 314 315 318 314 315 315 315 315 315 315 315 315 314 313 313 313 312
298 298 299 299 300 300 299 299 299 299 299 299 298 297 296 296 297 299 300 300 298 299 302 302 304 312 315 316 315 315 314 314 315 315 310 313 313 311 308 316 312 312 313 314 314 314 312 313 312 312 312 312 311 310
296 297 298 298 298 298 298 298 298 297 296 296 296 297 297 298 298 300 303 302 300 300 303 302 306 310 313 313 312 315 314 315 313 312 310 312 311 307 314 311 311 311 312 312 313 311 312 312 310 310 310 311 309 306
294 295 296 296 296 296 296 295 296 297 297 297 297 296 297 299 300 302 303 302 301 302 302 302 306 313 312 309 310 312 313 309 309 309 309 313 310 315 314 312 311 313 316 315 313 311 309 309 308 307 307 306 309 304
296 295 295 295 295 295 296 297 296 296 297 296 296 298 298 299 302 303 303 302 301 303 304 303 307 309 309 307 305 308 306 307 312 310 310 311 310 310 314 315 316 314 314 315 309 304 304 304 305 304 304 304 306 303
299 300 299 296 295 295 295 295 295 295 296 299 300 300 300 301 302 303 301 301 302 303 304 305 308 308 307 308 306 305 305 304 313 312 313 312 312 308 309 311 312 311 311 308 308 309 309 308 306 306 301 300 301 299
297 299 299 297 295 295 297 296 296 298 299 301 302 302 303 302 302 302 303 301 304 306 304 305 307 308 306 306 305 303 307 304 313 306 311 313 307 304 306 306 308 308 308 307 307 306 304 303 303 302 301 300 298 297
296 297 299 299 299 299 299 299 300 302 302 302 302 303 304 301 304 304 304 304 305 302 304 305 304 305 305 304 301 303 308 309 304 310 312 306 304 303 303 304 304 304 305 305 303 303 302 301 299 300 298 296 297 296
295 296 297 298 298 300 300 299 299 302 303 301 301 304 304 304 304 304 301 303 302 304 305 305 301 303 303 303 302 308 304 304 309 311 307 304 300 301 301 301 301 299 301 301 300 299 299 298 296 296 297 296 295 293
297 297 297 298 299 299 299 299 299 299 299 298 300 303 301 299 299 299 300 300 301 303 305 303 303 303 302 303 302 305 307 307 305 305 302 298 297 298 299 299 299 298 298 298 297 297 296 296 295 293 292 292 291 288
297 297 298 298 298 299 299 299 298 298 298 297 295 299 299 301 299 298 299 300 301 303 303 303 303 304 304 302 304 304 303 304 302 300 297 297 297 296 296 297 296 296 296 295 294 294 292 292 292 290 290 287 285 286
297 297 297 298 298 298 298 298 298 298 296 296 295 292 294 295 295 294 295 296 301 302 301 301 305 305 302 303 302 299 300 298 296 294 295 294 294 294 294 294 293 293 292 291 291 291 290 290 289 285 284 285 287 283
301 299 297 297 297 297 298 298 297 296 296 295 294 293 291 290 291 291 292 295 300 300 297 298 297 298 298 300 298 297 294 292 293 292 291 291 291 292 293 292 292 292 291 290 290 289 289 288 288 287 287 285 283 282
301 300 299 299 299 299 298 297 296 295 292 292 290 290 290 289 288 290 291 292 292 293 292 290 290 291 291 292 293 293 292 291 289 288 289 289 290 290 290 290 290 290 290 289 289 288 287 287 285 284 283 282 283 283
300 300 300 299 299 298 296 296 295 294 293 290 289 288 287 286 286 286 287 287 288 287 286 287 286 285 286 287 290 291 290 289 289 287 286 287 288 290 290 290 289 289 288 287 286 286 285 284 283 283 282 282 281 280
298 298 298 299 298 296 296 296 295 294 292 291 290 289 288 287 285 284 283 284 283 284 285 283 283 283 285 287 290 291 290 290 287 286 285 285 286 288 288 287 287 287 286 285 284 283 283 282 281 281 280 279 279 279
298 299 298 297 296 296 296 296 296 295 294 293 293 291 289 287 286 284 282 281 281 280 281 281 281 282 283 285 285 287 287 289 287 287 286 286 286 285 285 284 285 284 283 282 282 282 281 280 279 279 279 279 278 277
294 294 294 294 296 296 295 295 295 295 293 293 292 290 289 286 284 283 281 280 278 278 280 281 281 281 281 282 285 285 286 287 286 285 285 285 284 283 283 283 282 282 281 279 279 279 279 278 278 277 275 275 274 274
293 292 291 291 291 288 293 292 293 293 293 293 292 291 289 286 284 282 281 279 277 278 280 281 281 282 283 284 283 282 283 284 284 283 282 283 283 281 281 280 280 279 278 278 277 276 275 275 274 274 273 273 273 272
290 287 289 284 290 284 282 284 287 290 292 292 289 287 286 284 283 282 280 278 277 277 278 279 280 280 279 280 280 281 282 283 283 281 279 280 280 279 279 277 276 276 274 274 274 274 273 273 272 272 271 271 271 270
284 286 283 283 285 283 283 282 284 284 285 286 285 284 282 281 280 280 279 277 276 276 277 278 278 279 279 279 279 280 279 280 280 281 277 277 276 276 276 275 275 274 273 273 272 272 272 271 271 270 270 269 269 269
281 282 283 282 282 283 280 281 281 279 279 280 280 280 280 279 279 278 276 276 276 276 277 278 279 279 278 278 277 277 277 277 278 277 275 275 275 274 274 274 273 272 271 271 271 271 270 270 269 269 269 268 268 268
283 282 277 278 277 276 274 274 275 276 277 277 276 274 274 275 276 275 275 275 276 276 277 277 277 277 276 276 275 276 276 275 275 274 274 274 273 272 272 272 271 270 270 270 270 270 269 269 269 268 268 268 267 267
281 280 279 271 273 273 272 272 272 272 273 274 271 272 272 271 273 273 274 275 276 276 276 276 275 275 275 275 275 274 274 274 273 273 273 272 271 271 271 270 270 270 270 269 269 269 269 268 268 268 267 267 267 266
281 279 276 273 269 271 272 271 271 272 272 272 271 271 270 271 272 273 274 274 274 274 274 273 273 273 274 274 274 273 273 272 272 272 272 271 271 270 270 270 270 270 269 269 269 268 268 267 267 267 267 266 266 266
282 280 276 274 272 273 273 272 272 272 272 271 271 270 270 270 271 271 272 273 273 274 273 273 273 273 272 273 272 272 272 271 271 271 271 271 270 270 269 269 269 269 269 268 268 268 268 267 267 267 266 266 265 265
281 279 277 271 275 275 275 276 275 274 274 274 273 273 272 272 270 270 270 271 271 272 272 272 272 272 272 272 271 271 271 271 271 270 270 270 269 269 269 269 268 268 268 268 267 267 267 267 266 266 266 265 265 265
281 280 279 278 276 275 276 277 276 275 275 274 273 273 272 271 270 270 270 270 271 271 272 272 272 271 271 271 270 270 270 270 270 269 269 269 268 268 268 268 268 268 267 267 267 266 266 266 266 265 265 265 265 265

GFSWCAN_850_thetae_072.txt.gz
Theta_e
299 300 300 300 300 300 299 300 304 302 301 300 300 301 301 302 301 300 300 300 302 303 305 306 306 307 307 307 312 311 313 314 317 318 319 319 321 319 316 316 320 322 324 324 323 330 328 315 314 320 321 318 317 316
301 300 300 299 300 300 301 302 303 303 301 301 300 303 301 302 301 300 299 299 301 302 304 304 304 306 307 308 309 311 312 313 314 316 319 316 322 321 319 320 318 322 322 324 322 323 323 315 319 317 318 319 316 316
299 300 300 300 300 300 302 303 304 301 301 300 299 302 301 301 301 299 299 298 299 301 302 302 304 304 305 306 308 310 311 310 313 314 317 320 323 320 323 320 319 319 317 321 321 321 320 319 317 314 314 315 315 315
299 300 300 300 299 299 300 300 300 299 299 300 300 302 301 301 300 298 298 299 299 299 302 303 301 302 303 307 308 310 310 312 313 315 318 318 322 317 320 317 320 320 319 320 321 321 317 317 317 317 315 314 315 313
300 299 299 299 299 300 299 299 299 300 302 302 301 301 301 300 298 298 297 297 298 300 303 301 301 303 305 305 308 310 312 313 315 316 311 317 317 320 319 319 321 318 320 322 323 321 320 320 320 318 317 317 316 314
301 301 301 300 300 299 299 301 302 302 302 302 301 300 300 299 298 297 298 297 298 299 301 306 305 303 302 306 309 311 310 312 314 315 318 316 317 319 323 323 318 318 318 319 320 315 316 316 317 315 315 316 315 312
301 302 302 302 302 302 301 301 302 301 301 300 300 300 299 299 298 298 298 299 297 297 300 304 306 306 306 310 311 311 311 311 314 316 316 318 318 316 317 321 318 318 318 316 315 315 316 315 315 314 313 313 311 308
299 300 300 301 301 301 301 300 300 300 300 299 299 299 299 298 297 298 301 301 297 298 301 305 306 305 311 313 312 312 312 312 313 314 313 318 314 314 320 318 317 316 313 313 314 314 315 314 312 310 310 307 306 303
298 298 299 300 300 300 300 300 299 299 299 299 299 298 298 298 298 300 302 300 298 300 302 302 306 309 310 310 310 311 313 312 311 314 316 318 315 321 320 318 317 315 313 315 310 309 311 308 308 308 306 304 303 301
296 296 297 297 298 298 298 298 298 297 297 297 296 298 298 299 298 300 302 302 301 301 303 303 302 304 307 306 305 310 309 310 311 313 314 317 319 316 315 313 314 314 312 311 308 306 305 306 305 304 304 303 301 300
295 296 296 296 296 296 296 296 297 297 297 298 299 299 300 302 302 302 301 302 302 303 303 304 303 304 304 304 306 307 309 308 317 316 318 318 318 314 308 309 310 311 310 310 310 310 308 307 303 302 301 301 302 298
294 295 296 297 297 297 297 297 297 297 298 299 300 300 301 302 303 303 304 303 304 307 307 307 307 304 304 303 305 304 310 304 314 309 318 317 310 305 305 305 305 306 305 305 306 307 304 304 302 300 297 296 296 296
296 295 295 295 295 295 297 296 297 300 301 301 300 302 303 302 304 305 306 305 306 305 305 306 307 306 305 305 303 306 311 310 304 309 311 307 304 302 301 301 300 300 301 301 299 299 300 299 298 298 297 295 295 294
296 295 297 297 296 295 295 297 299 301 302 301 302 305 308 303 305 307 307 307 305 305 305 306 304 307 303 306 304 312 305 305 313 316 308 304 298 298 298 297 297 295 297 297 296 296 297 296 295 294 294 293 294 292
299 299 299 299 299 299 299 300 301 302 300 298 301 306 304 300 299 299 300 301 301 303 305 305 305 304 304 306 305 306 310 309 306 305 302 297 296 295 295 295 295 295 295 294 294 294 293 293 293 292 291 292 292 290
297 298 299 299 299 299 299 299 300 300 298 297 295 299 296 300 299 297 297 299 300 302 303 304 304 307 307 306 307 305 307 304 301 298 295 294 292 292 292 292 292 293 293 292 291 292 292 292 291 290 289 289 288 288
296 297 298 298 298 299 298 299 299 297 296 296 296 291 293 295 293 293 293 294 299 302 303 304 308 307 305 305 302 299 299 297 295 292 291 291 290 290 290 290 290 290 289 289 289 290 289 288 288 287 286 286 285 284
296 296 296 297 297 298 299 298 297 296 295 293 293 292 289 288 289 289 289 292 297 298 298 299 299 299 299 300 299 297 293 290 290 289 289 289 289 289 289 288 288 289 289 288 288 287 287 287 285 283 283 282 282 283
299 298 297 298 297 298 297 296 296 294 291 291 290 289 289 288 286 286 288 290 291 292 291 291 292 293 293 292 293 293 291 289 288 287 287 287 287 287 287 287 286 286 286 285 285 284 284 284 283 282 282 282 282 281
298 298 298 298 298 298 296 296 295 294 293 290 289 288 286 286 285 284 284 286 287 287 287 288 287 286 287 287 290 290 288 288 288 287 286 286 286 286 286 286 285 285 285 285 284 283 283 282 282 281 281 280 280 279
298 297 297 298 297 296 295 295 295 294 292 292 290 290 289 287 285 284 283 283 283 284 286 284 284 283 284 286 288 288 288 288 287 287 286 284 284 284 284 284 284 284 283 282 282 281 281 279 279 279 280 280 280 279
298 299 298 298 297 296 295 295 295 294 295 293 293 290 289 288 287 284 283 282 281 281 282 282 282 282 282 283 284 286 286 287 285 285 284 284 283 282 281 281 282 281 280 279 280 281 280 279 279 279 278 277 276 275
295 294 294 294 295 295 295 295 296 295 296 295 291 290 289 287 285 284 283 281 279 278 280 280 280 280 281 282 283 284 284 286 285 284 284 283 282 281 281 280 280 281 281 279 279 279 277 276 275 275 275 274 274 273
293 291 291 290 291 292 292 293 294 294 294 293 292 290 288 287 285 283 282 280 278 278 279 280 280 280 281 281 280 280 281 283 283 282 282 283 282 281 281 280 279 278 276 275 275 275 275 274 274 273 273 272 272 271
290 286 288 288 288 290 290 290 290 293 292 291 289 288 287 285 285 283 282 279 277 276 277 278 278 278 278 278 279 280 280 281 282 281 279 280 279 278 277 276 276 275 274 274 274 273 273 272 272 271 271 270 270 269
287 284 285 285 287 287 287 288 287 288 289 287 286 285 284 284 283 282 280 278 276 275 276 277 277 278 278 278 278 279 278 279 280 279 276 276 275 275 275 274 274 273 273 272 272 271 271 271 270 270 269 269 269 268
284 284 282 280 281 283 284 282 282 283 283 283 283 283 283 282 281 279 276 275 275 276 277 278 278 278 278 278 278 277 277 277 277 276 275 275 275 274 273 273 272 272 271 271 271 270 270 270 269 269 268 268 268 268
283 281 280 277 276 276 278 278 278 279 279 278 279 278 279 279 279 276 274 274 275 276 277 278 278 277 277 276 275 275 275 274 274 274 273 273 273 272 272 272 272 271 271 270 270 270 269 269 269 268 268 268 267 267
280 278 277 273 274 274 274 275 275 274 274 276 277 276 274 272 271 273 273 274 275 276 276 276 275 275 275 274 274 274 274 273 273 273 273 272 272 271 271 271 270 270 270 270 269 269 269 269 268 268 268 267 267 267
279 277 275 273 273 274 273 272 272 272 273 273 272 272 271 269 271 272 273 274 275 275 275 274 273 273 273 273 273 273 273 272 272 272 272 271 271 270 270 270 270 269 269 269 268 268 268 268 267 267 267 267 266 266
279 278 276 275 274 274 273 273 272 272 272 272 272 272 271 270 271 272 273 273 273 273 273 273 273 273 273 273 273 272 272 271 271 271 271 271 270 270 269 269 269 269 269 269 268 268 268 267 267 267 267 266 266 266
279 278 276 276 275 274 274 275 275 275 275 274 273 272 272 272 271 271 271 272 272 272 272 272 272 273 272 272 271 271 271 271 271 270 270 269 269 269 269 269 269 269 268 268 268 267 267 267 267 267 266 266 266 266
278 278 278 277 276 276 275 276 276 276 275 275 273 272 272 271 271 270 271 271 272 271 272 272 272 272 271 271 271 270 270 270 270 269 269 269 269 269 268 268 268 268 268 268 267 267 267 267 267 266 266 266 265 265

GFSWCAN_850_thetae_075.txt.gz
Theta_e
299 299 299 300 300 300 300 301 300 300 301 301 300 301 300 301 301 301 301 302 304 304 305 304 307 306 307 307 310 308 312 314 317 317 318 316 317 314 314 313 316 323 324 327 326 331 328 319 318 321 322 321 321 321
300 300 299 301 300 300 300 300 301 300 301 302 301 301 300 301 301 301 301 302 303 304 305 307 308 308 308 307 307 308 311 313 314 316 318 317 322 324 316 318 314 322 322 324 323 324 322 318 320 319 320 321 322 320
300 299 300 300 299 300 300 300 300 302 301 301 302 300 301 302 301 301 301 303 303 304 305 305 306 307 307 308 308 310 312 312 313 313 315 317 318 316 324 320 315 316 316 322 321 320 322 321 321 320 320 320 320 319
300 299 300 300 299 302 302 300 301 300 301 301 301 300 302 302 300 301 302 302 303 303 305 304 304 306 305 306 307 308 311 312 313 313 318 318 321 314 320 316 318 317 318 319 319 319 319 321 321 321 321 319 318 318
302 300 300 300 299 302 302 301 301 303 301 302 300 301 302 300 300 301 302 302 302 303 305 303 304 304 306 307 306 307 309 312 313 318 320 318 315 314 316 318 319 317 317 322 323 319 320 320 320 322 322 320 319 319
302 300 301 299 299 300 302 303 302 302 301 301 300 300 300 300 300 300 300 300 301 302 303 304 304 303 304 306 306 307 309 311 312 313 316 314 311 314 323 319 316 314 314 317 319 319 320 320 317 317 320 320 320 319
302 302 301 301 300 299 300 301 301 301 300 300 302 300 299 299 300 301 301 300 300 301 302 304 306 306 303 304 305 306 308 310 313 313 314 315 314 316 322 321 314 314 316 316 318 319 318 318 319 316 314 314 315 315
301 301 302 302 303 303 301 302 301 301 301 302 301 300 299 300 299 301 299 299 300 301 302 304 306 305 306 306 306 306 309 311 312 314 315 318 317 319 319 315 314 314 317 318 318 317 317 315 313 312 311 310 311 310
300 301 302 302 302 302 302 302 301 301 300 299 298 299 299 299 300 301 301 298 301 301 302 302 306 306 301 308 308 309 310 314 311 315 315 316 319 320 319 317 316 316 316 317 317 315 312 313 312 310 309 309 308 306
299 300 300 300 301 301 301 300 300 299 299 299 299 299 299 300 299 299 299 300 300 302 303 304 304 305 302 300 310 313 311 312 313 314 313 316 319 315 317 316 317 318 317 315 314 313 312 312 310 309 309 308 306 304
299 299 299 300 299 299 300 300 300 299 299 300 301 301 300 299 300 301 300 302 302 304 304 305 305 306 302 304 306 309 310 311 314 316 316 316 317 316 313 314 313 314 314 312 312 311 311 311 309 307 305 304 302 301
297 297 298 299 299 299 299 298 299 300 300 301 300 299 300 300 302 304 306 304 304 306 306 307 306 305 302 302 301 306 312 309 318 314 320 318 309 306 308 309 310 309 308 307 307 307 305 304 302 300 297 297 296 296
297 297 296 297 297 297 298 298 299 300 301 301 301 299 303 302 304 305 305 306 308 307 307 307 307 305 303 300 300 307 311 313 308 314 312 306 303 302 302 303 303 303 302 300 298 298 297 297 297 297 294 293 293 293
296 296 297 297 297 298 299 300 301 300 301 302 303 304 307 304 306 308 308 308 304 305 306 305 304 304 301 302 303 308 306 306 313 315 308 302 297 296 295 295 295 293 294 294 293 294 294 294 292 290 290 290 290 289
295 295 295 296 296 296 297 300 300 301 300 299 302 304 303 300 299 299 300 301 301 304 306 307 306 304 303 306 305 306 309 309 308 306 301 296 294 293 291 291 291 290 290 290 291 291 289 289 289 289 289 290 290 290
298 298 298 299 299 298 299 300 300 299 297 297 296 300 296 303 300 296 296 298 297 301 304 305 305 306 307 307 307 306 308 305 301 298 294 291 290 289 289 289 289 288 289 288 288 288 289 289 289 288 288 289 289 288
299 298 299 299 299 298 299 299 299 296 297 297 296 293 294 296 294 292 290 291 296 300 304 305 307 306 306 305 303 300 299 297 294 292 291 290 289 289 288 288 288 288 287 287 287 287 287 287 288 288 287 286 287 286
297 298 297 297 297 299 300 299 297 296 296 294 295 293 291 289 289 288 288 291 295 297 298 300 300 300 301 302 301 296 292 290 290 290 289 288 288 288 288 288 288 287 287 286 286 285 285 285 285 284 283 282 282 282
298 296 296 297 299 299 297 296 296 295 293 292 292 291 291 289 288 287 288 290 291 292 293 294 294 295 295 293 296 293 292 291 290 289 288 288 288 288 288 287 287 286 286 285 285 284 284 284 284 283 283 282 282 281
298 297 298 298 299 298 296 295 294 294 294 291 291 289 288 287 286 286 285 286 289 288 289 289 289 288 289 291 292 291 289 289 289 289 288 287 286 286 286 285 285 284 284 283 283 283 282 281 280 280 280 280 279 278
297 297 297 298 296 296 295 295 294 293 292 293 291 290 290 288 286 285 285 284 284 286 286 285 286 285 286 288 290 290 290 290 289 288 287 286 285 284 284 284 283 283 282 282 281 279 279 279 278 277 277 276 276 275
297 297 298 297 296 296 296 295 295 294 295 293 293 291 291 289 288 285 284 283 282 283 283 283 284 284 284 284 284 285 286 286 285 284 284 284 283 283 282 282 281 280 279 279 278 277 276 276 276 276 275 275 274 274
295 293 293 294 296 296 295 296 296 296 298 295 293 292 291 289 287 286 284 282 281 281 282 281 282 282 281 282 282 282 283 283 282 281 281 280 280 280 280 279 279 278 277 276 276 276 275 274 274 273 273 273 273 273
293 291 291 292 294 295 294 295 295 295 294 294 293 291 290 289 287 286 284 282 280 281 281 281 282 281 280 280 280 280 280 280 279 279 279 279 278 277 276 276 275 275 275 274 274 273 273 273 273 273 273 272 272 271
290 287 290 291 290 293 294 293 293 294 292 292 291 290 289 288 288 286 284 282 279 279 279 279 280 280 279 278 277 278 278 279 279 278 277 277 276 275 275 274 274 273 273 273 273 273 274 273 273 272 272 271 270 269
288 285 287 287 289 290 290 291 290 290 290 289 288 287 287 288 286 285 283 280 278 277 278 278 277 276 276 276 276 276 277 277 278 277 275 276 277 276 275 274 273 273 273 273 272 272 272 271 271 270 269 269 269 268
287 287 283 281 283 286 287 285 285 286 286 286 286 286 287 286 284 281 278 276 276 274 275 276 276 276 275 276 278 278 277 277 277 276 275 275 275 275 274 274 273 272 272 272 272 270 270 269 269 269 268 268 268 268
284 282 281 280 280 280 281 282 282 282 282 280 283 282 282 282 281 277 276 274 273 275 276 277 277 276 276 275 275 275 275 274 274 274 274 274 274 273 273 273 272 272 272 271 271 270 270 269 268 269 269 268 268 268
282 281 278 275 278 278 276 278 278 276 276 279 281 280 276 274 275 275 274 273 274 274 274 275 276 276 275 275 275 274 273 273 273 273 273 272 272 272 272 272 271 271 270 270 270 270 270 269 269 269 268 268 268 267
281 280 278 276 277 277 275 274 275 276 275 275 274 273 273 272 271 273 273 273 274 274 274 274 273 273 273 273 273 273 273 273 273 272 272 271 271 271 271 270 270 270 270 270 269 269 269 269 268 268 268 267 267 267
282 281 279 278 277 276 276 275 275 275 275 275 275 275 274 273 271 273 273 274 274 274 274 274 273 273 272 272 272 271 272 272 272 272 272 271 271 270 270 270 270 270 269 269 269 269 268 268 268 268 267 267 266 266
281 281 279 279 278 277 276 278 278 278 277 276 276 275 275 276 274 272 272 272 273 273 273 272 272 272 272 272 271 271 271 271 271 271 270 270 270 270 270 269 269 269 269 269 269 268 268 268 267 267 266 266 266 266
282 281 281 280 279 280 278 279 279 278 278 278 276 275 274 275 275 271 272 272 271 271 271 273 272 272 271 271 271 271 271 270 270 270 269 269 269 269 269 269 269 269 269 269 268 268 268 267 267 267 266 266 266 266

GFSWCAN_850_thetae_078.txt.gz
Theta_e
295 297 298 299 299 300 299 299 300 300 300 300 300 300 300 299 299 299 301 301 303 304 305 304 306 306 308 308 310 308 310 311 314 315 315 317 317 315 314 313 320 320 322 324 324 325 325 320 320 321 322 321 322 322
298 300 300 301 300 300 299 300 300 300 300 300 300 300 301 300 300 299 301 301 302 304 305 306 305 307 308 308 308 307 309 310 312 316 317 316 319 317 314 314 316 321 319 322 323 324 324 321 320 320 319 322 321 322
301 301 302 301 299 300 300 300 300 300 300 300 300 300 301 300 300 300 300 301 303 304 304 306 308 308 309 309 310 309 309 309 311 314 315 317 318 314 320 318 315 315 320 323 323 320 320 321 321 321 321 320 322 321
302 301 300 299 300 299 299 299 300 300 300 301 301 301 301 301 300 301 301 302 303 302 306 305 305 306 308 307 310 310 309 309 311 312 316 318 319 315 317 318 317 317 317 319 320 319 318 318 319 322 322 321 320 320
301 300 300 299 302 301 301 301 300 300 301 301 301 301 301 301 300 300 301 302 303 304 305 306 305 306 307 307 308 309 309 310 310 313 314 317 316 318 318 317 317 316 317 319 323 319 320 320 319 321 321 319 319 320
303 301 300 301 302 300 300 300 300 301 301 301 301 302 301 301 300 302 302 303 304 303 305 306 305 305 305 306 307 308 308 309 309 312 315 315 314 317 323 319 316 316 316 316 318 319 320 322 319 319 319 322 321 320
303 301 300 302 302 301 301 301 301 301 301 300 301 301 302 300 302 302 302 302 302 304 305 306 306 306 305 306 306 307 307 308 308 312 314 316 316 315 320 318 314 314 314 314 314 314 319 319 319 317 316 317 317 318
302 303 300 301 301 302 302 302 302 300 301 302 302 300 301 301 301 301 302 302 302 303 304 304 305 306 305 306 307 306 307 309 309 312 314 316 316 316 317 314 314 315 314 314 319 319 319 317 315 314 313 313 313 313
301 302 302 301 301 301 300 300 300 301 300 300 300 300 301 301 300 300 301 302 302 303 303 302 306 307 302 304 305 306 307 309 309 312 314 315 317 317 316 315 315 314 314 313 314 318 316 315 314 312 311 311 310 309
301 301 302 301 301 301 301 301 300 299 299 300 300 301 299 300 299 300 301 300 301 303 304 304 305 305 301 301 306 310 309 310 311 312 313 312 317 315 315 317 318 319 318 318 317 315 314 314 312 311 311 309 307 306
300 300 300 300 299 299 299 299 299 299 300 300 301 301 299 300 301 302 301 301 302 304 304 305 305 305 301 304 303 308 309 311 313 313 313 316 316 316 316 315 315 315 314 313 313 312 313 313 311 308 306 305 304 303
299 299 299 298 298 298 299 299 300 301 301 302 300 300 300 301 301 305 304 302 304 305 306 307 306 305 302 302 304 304 311 308 312 313 315 315 308 308 310 311 311 309 309 309 308 306 306 306 305 303 301 301 300 299
299 299 299 298 299 299 300 300 300 300 301 302 301 301 302 301 304 306 304 304 307 307 306 306 306 305 301 301 302 304 309 311 309 316 314 305 301 300 301 301 300 300 300 300 299 298 298 297 298 298 297 296 296 294
298 298 298 299 299 299 301 302 302 302 302 303 303 302 304 303 306 305 307 308 304 307 307 305 303 302 300 301 302 308 306 308 312 312 307 300 296 294 294 295 295 293 294 292 292 293 293 292 291 290 291 291 291 289
297 297 297 298 298 299 300 300 301 301 301 300 302 304 302 299 298 297 299 301 299 302 306 306 303 301 302 304 303 306 309 310 307 305 300 294 292 291 290 290 289 289 289 288 288 288 288 288 288 288 288 289 289 288
296 296 298 298 297 299 300 300 301 299 298 297 295 299 296 301 298 294 292 295 295 299 303 305 302 305 306 306 307 306 307 304 300 297 293 291 289 289 288 288 288 288 287 287 287 287 287 287 287 287 288 288 287 287
298 299 298 298 298 299 300 301 299 297 297 297 296 293 295 295 293 290 289 290 293 297 303 303 305 305 305 305 301 297 297 295 293 292 290 289 288 288 288 288 288 287 287 287 287 287 286 287 287 287 286 285 285 284
299 298 298 298 298 300 299 299 296 296 294 294 294 293 290 289 290 289 289 290 293 296 298 299 299 297 297 300 297 293 292 291 290 290 289 289 289 289 288 288 288 287 287 286 286 285 285 285 284 283 283 282 282 281
299 297 297 297 299 299 297 296 297 295 293 293 292 291 291 289 288 287 288 291 291 292 293 293 292 292 294 294 294 292 292 291 290 290 289 289 288 288 287 287 286 286 286 285 285 284 284 284 283 283 283 282 282 281
297 296 297 299 300 297 296 295 296 295 295 293 291 290 289 289 288 287 286 288 289 289 289 289 289 288 289 292 291 290 289 289 289 288 287 287 286 286 285 285 284 284 284 283 283 282 282 282 281 281 281 280 279 279
298 298 298 299 297 296 295 295 295 295 294 293 292 292 291 289 287 285 285 285 286 286 286 287 286 286 287 290 290 290 290 289 288 287 286 286 285 285 284 284 283 282 282 281 280 280 279 279 278 277 277 277 277 276
297 298 297 297 296 296 296 295 295 294 294 293 293 292 291 289 288 285 284 283 283 284 283 284 284 284 285 286 286 287 287 286 286 285 285 284 283 283 282 281 281 280 279 279 278 278 277 277 277 276 276 275 275 275
295 294 294 296 296 296 296 296 297 297 297 295 294 293 291 289 287 286 284 282 282 282 282 283 283 283 283 283 284 284 284 283 283 282 282 282 281 281 280 280 279 278 277 276 276 276 275 274 274 275 274 274 274 273
293 292 292 293 295 296 295 295 296 296 294 294 293 292 290 290 288 286 284 282 281 281 282 283 282 281 281 281 281 281 281 281 280 280 279 279 278 277 277 277 277 276 276 275 275 274 274 273 273 273 272 272 272 272
290 287 291 292 291 294 294 293 294 294 292 293 292 291 290 290 289 287 285 282 280 281 280 281 280 280 279 278 278 279 279 279 279 278 278 278 277 276 275 275 275 274 274 274 274 273 272 272 272 271 271 271 270 270
288 285 287 288 289 291 291 291 291 291 291 290 289 289 289 289 287 285 283 280 278 278 279 279 278 277 277 277 277 277 277 278 279 278 277 278 277 276 275 274 274 274 274 273 273 272 271 271 271 270 270 270 270 269
287 287 284 284 285 287 288 287 287 286 286 287 288 288 289 287 284 281 278 277 276 276 276 276 276 275 275 275 276 277 278 278 279 277 276 277 276 275 274 273 272 272 272 272 272 271 271 271 270 270 270 270 270 269
284 282 282 282 281 282 283 283 282 282 282 281 285 283 283 282 281 278 276 275 274 275 275 274 274 274 274 274 274 274 274 274 274 274 274 274 273 273 273 272 271 272 272 272 272 271 271 270 270 270 270 270 269 268
283 282 279 278 280 279 278 280 279 279 278 280 283 281 277 276 276 276 275 275 275 275 275 275 275 275 276 276 275 275 274 274 274 274 273 272 271 271 272 272 272 271 271 271 271 271 271 270 270 270 269 269 268 267
283 282 280 278 279 278 276 277 278 277 276 276 275 274 274 273 273 274 274 274 275 274 274 274 274 275 274 274 274 274 274 274 274 274 273 271 271 271 271 272 272 271 271 271 271 270 270 270 269 268 268 268 267 267
284 283 281 280 279 277 277 277 277 277 277 277 276 275 274 273 272 273 273 273 274 274 274 274 274 274 273 273 272 272 272 272 272 272 272 272 272 272 271 271 271 271 271 270 270 270 269 267 267 266 267 267 268 267
284 283 281 280 279 278 278 280 280 279 279 278 277 277 277 277 275 273 273 273 273 273 273 274 274 273 272 272 272 272 272 272 272 272 271 271 271 271 271 271 270 270 270 270 269 269 268 268 268 267 267 267 268 267
284 283 282 281 280 281 280 282 281 280 280 279 278 277 276 277 275 272 272 273 273 272 274 274 273 272 272 272 272 272 271 271 271 271 271 270 270 270 270 270 270 270 269 269 269 269 268 268 268 268 268 268 268 267

GFSWCAN_850_thetae_081.txt.gz
Theta_e
298 296 295 297 298 299 299 299 299 299 299 300 299 298 298 298 298 298 298 298 300 302 304 303 305 305 306 307 306 306 306 307 308 308 309 312 309 314 314 314 316 317 317 316 315 317 320 319 319 319 317 319 319 320
295 297 298 300 300 301 301 300 301 300 300 300 300 300 299 298 298 297 298 298 299 302 303 304 305 305 306 306 308 308 306 307 309 311 308 309 308 307 311 310 316 319 316 318 318 317 319 321 321 320 320 321 321 321
299 300 301 301 299 300 301 302 301 300 300 299 300 300 300 300 299 298 298 300 299 302 304 304 305 304 305 306 308 308 308 307 309 309 311 311 310 310 308 310 311 316 316 316 317 316 316 319 319 320 319 319 321 321
300 301 302 301 300 300 300 299 299 299 300 300 300 300 300 300 300 299 299 301 299 300 302 304 305 306 305 306 308 309 308 309 309 310 311 309 307 311 309 312 314 312 316 317 318 319 318 316 317 318 318 318 321 320
302 301 300 302 300 300 300 301 300 300 300 300 300 300 300 300 300 300 299 300 301 303 304 305 306 306 307 307 306 308 309 309 309 306 306 311 311 311 311 313 313 314 314 316 316 317 317 317 317 317 317 318 318 320
301 301 302 300 300 300 301 301 299 299 299 300 300 300 300 300 300 300 301 301 302 303 305 304 305 305 307 306 306 307 309 308 308 308 307 311 311 313 306 311 314 314 313 314 314 316 318 320 319 318 319 319 320 321
300 302 301 300 301 301 300 299 299 299 300 300 301 301 301 300 299 300 302 302 302 303 304 303 303 305 306 306 306 307 307 308 308 308 307 309 310 313 303 309 313 313 313 314 316 316 319 319 317 317 316 316 318 318
301 301 302 300 301 301 301 301 301 301 301 301 300 300 300 300 301 303 303 302 303 304 303 300 302 305 305 306 306 306 307 307 308 308 309 310 310 311 311 312 313 312 312 314 316 318 318 315 315 315 314 314 314 313
301 300 302 302 302 301 301 301 301 301 300 300 300 300 301 300 301 302 302 303 303 302 299 300 301 303 303 304 306 306 306 300 307 303 307 309 309 312 312 312 313 313 313 313 313 317 316 314 312 312 311 311 310 309
300 300 300 300 301 301 301 301 301 300 300 300 301 301 300 301 301 302 302 302 302 303 302 298 303 300 302 301 301 303 306 302 308 306 309 307 309 313 313 316 316 316 316 316 315 314 313 312 311 310 308 308 307 306
300 299 299 299 299 300 300 300 300 301 301 301 300 300 300 301 301 301 300 300 301 301 303 304 304 300 302 301 302 302 304 302 308 309 309 310 308 312 314 311 311 311 312 313 314 314 313 312 309 308 306 304 304 303
298 298 298 299 299 300 300 300 301 301 301 300 300 300 301 301 302 302 301 300 299 301 302 301 303 304 301 303 300 300 305 305 304 307 304 307 306 302 302 304 306 307 309 309 310 309 308 308 306 305 303 301 301 299
298 298 299 300 300 300 300 300 300 301 302 302 301 302 302 300 301 297 302 298 302 300 305 305 303 303 301 302 301 302 305 306 304 302 305 303 300 298 298 298 301 301 303 303 302 302 302 300 300 301 298 296 296 295
299 299 299 301 300 301 302 302 302 303 303 302 301 302 302 303 302 301 303 302 302 305 305 305 303 302 300 300 302 305 305 305 307 310 305 298 294 292 294 295 300 296 297 297 296 296 295 295 293 293 293 293 293 292
297 298 298 299 300 300 301 301 301 301 300 298 300 300 299 298 296 294 296 298 296 300 305 302 301 300 300 303 302 305 306 308 302 299 295 292 291 291 290 291 291 291 291 290 291 291 290 290 290 288 288 289 289 289
297 297 297 299 300 300 300 301 301 299 297 294 293 296 295 297 293 291 290 292 294 297 302 302 302 304 305 304 304 301 304 299 297 293 290 289 289 288 288 288 288 288 287 287 287 287 286 286 287 286 286 286 286 286
297 298 298 298 299 300 300 299 297 295 296 296 292 290 292 293 290 289 289 290 292 294 302 301 301 300 301 302 297 294 293 293 291 289 289 288 288 288 287 287 286 286 286 286 286 286 285 286 286 286 284 283 284 284
298 299 298 297 300 300 298 297 295 295 293 293 293 290 289 288 288 288 289 291 292 295 297 297 296 295 294 296 294 292 291 290 290 289 289 288 288 288 287 287 286 286 285 285 285 285 285 285 285 283 282 282 282 282
298 297 297 298 299 298 296 296 295 293 292 292 291 291 289 288 287 287 288 290 290 291 291 290 290 289 290 293 291 291 290 290 289 288 288 288 287 287 287 286 286 285 285 285 284 284 283 283 282 282 281 281 280 279
297 297 298 299 299 297 295 295 295 294 294 291 290 288 287 286 285 285 285 286 287 287 288 288 287 287 288 290 290 289 288 288 287 287 286 286 285 285 285 284 284 284 284 283 283 283 283 282 282 281 281 280 279 277
298 298 298 297 296 296 295 295 294 294 293 293 292 291 290 286 284 283 283 284 284 284 285 285 285 285 289 290 289 289 288 287 286 286 285 284 284 284 283 283 283 283 282 282 281 281 281 280 280 280 279 278 277 276
297 297 297 297 296 296 296 295 295 294 294 292 292 291 290 288 286 284 283 283 283 283 284 283 283 284 286 286 287 287 286 286 285 284 284 283 282 282 281 281 282 281 280 279 279 278 277 276 276 276 276 276 275 274
294 294 294 295 296 296 295 296 296 295 296 294 293 292 290 288 286 284 282 282 282 282 282 282 282 282 283 284 285 285 285 284 283 282 282 281 280 280 280 279 279 279 278 277 277 277 276 275 275 275 274 274 273 273
292 292 292 293 294 295 295 295 296 294 293 293 292 291 290 289 286 284 282 281 281 281 282 282 281 281 282 282 281 281 281 282 281 280 280 280 279 278 278 277 277 277 276 275 275 275 275 274 274 273 273 272 272 272
289 285 289 289 289 293 293 292 291 292 289 290 289 288 289 289 287 284 283 281 278 280 280 280 279 279 278 279 279 279 280 280 280 279 278 279 278 277 276 275 275 274 275 275 275 274 273 273 273 273 272 272 271 271
284 285 284 285 286 288 288 288 289 288 288 288 288 289 288 283 281 281 280 277 277 277 278 278 278 278 277 277 278 278 278 278 278 278 276 276 276 276 276 275 275 274 273 273 273 273 273 273 273 271 271 271 270 270
282 284 284 283 284 286 285 284 284 281 280 282 283 282 284 280 279 279 276 276 275 275 276 276 277 277 276 276 277 278 278 279 280 278 277 277 276 275 275 275 275 274 273 273 273 273 272 272 272 271 271 270 270 269
282 280 278 281 279 280 279 279 278 278 279 280 282 277 276 277 277 276 275 275 275 275 275 275 275 275 275 275 274 274 274 274 274 275 275 274 273 273 273 273 273 273 273 273 273 272 272 271 271 271 270 269 269 269
283 280 279 274 279 277 277 277 278 278 276 278 278 276 276 276 276 275 275 275 275 275 275 275 275 275 275 275 276 276 275 275 274 274 274 273 273 272 273 273 273 273 272 272 271 271 270 270 270 270 270 270 270 269
282 281 279 278 274 275 277 278 277 276 275 275 274 274 273 274 274 275 275 275 275 274 274 274 275 275 275 275 275 275 275 274 274 274 274 273 273 272 272 272 272 272 272 272 271 270 270 270 269 269 269 269 269 268
283 282 280 279 277 277 277 277 276 276 275 274 274 273 273 273 273 273 274 274 274 274 274 274 274 274 275 274 273 273 273 273 273 273 273 273 272 272 271 271 272 271 271 271 271 270 270 270 270 270 270 269 268 268
283 281 280 275 278 278 278 279 279 278 277 276 276 276 276 276 274 273 273 273 274 274 274 275 275 274 273 273 273 273 273 272 272 272 272 272 271 271 271 271 271 271 271 271 270 270 270 269 269 269 268 268 268 267
282 281 280 279 279 280 280 281 280 280 280 279 277 277 276 275 273 272 273 273 273 274 274 274 274 273 272 272 272 272 271 271 271 270 270 270 270 270 270 270 270 270 270 270 270 270 270 269 269 268 268 268 268 267

GFSWCAN_850_thetae_084.txt.gz
Theta_e
298 298 298 298 297 295 295 295 296 296 296 297 298 298 298 299 299 299 300 299 299 299 300 302 302 305 305 304 305 304 304 304 304 303 303 305 304 310 313 314 314 314 312 309 312 313 317 316 318 318 316 319 319 319
297 296 296 297 298 299 300 300 299 300 300 299 297 296 297 297 298 299 299 298 299 298 300 302 302 303 303 305 306 306 305 304 306 305 303 306 306 306 311 313 311 316 313 313 312 313 314 316 320 319 318 319 319 320
298 298 299 300 301 302 302 302 301 300 300 300 300 299 298 298 297 298 300 299 298 299 298 299 302 302 304 304 306 307 307 307 307 307 307 307 306 308 308 309 312 314 314 314 315 316 316 316 319 319 319 319 318 320
299 300 300 300 301 301 301 301 300 299 300 300 301 299 299 299 299 298 300 299 299 298 299 301 301 304 303 304 304 305 306 307 308 308 306 305 304 310 309 310 310 310 314 314 314 315 317 316 317 317 318 317 318 318
300 300 301 301 300 300 300 300 300 300 300 301 301 300 299 300 299 298 299 299 298 299 301 302 303 305 304 304 305 305 306 308 308 305 303 308 309 309 309 309 310 310 313 314 314 315 316 314 316 316 316 316 317 318
300 302 300 301 301 300 300 301 300 300 300 300 299 299 299 301 299 299 299 298 298 298 302 303 304 304 304 304 304 304 307 308 308 308 305 309 310 310 309 308 310 312 312 313 313 314 316 316 318 319 317 317 318 318
301 301 300 301 300 300 300 300 300 299 299 300 299 300 299 300 299 299 300 299 300 299 300 303 304 306 305 305 304 305 307 307 308 307 305 306 308 309 307 309 310 311 312 314 315 318 317 317 316 317 318 318 319 319
301 301 301 301 300 298 299 300 299 300 300 300 300 300 300 300 299 300 302 302 300 301 300 302 304 303 304 305 305 306 306 307 307 306 307 304 306 307 306 309 310 311 311 312 312 317 318 316 314 314 314 315 316 315
301 301 301 301 301 300 300 300 300 300 300 300 300 300 300 300 300 300 302 300 300 301 299 296 299 304 303 304 306 306 306 301 305 300 302 306 305 306 308 310 311 312 312 312 315 316 314 313 312 311 312 312 312 307
300 300 301 301 301 301 301 301 300 300 300 300 299 300 300 301 302 302 301 300 301 301 300 294 300 301 302 301 302 303 304 298 302 304 307 301 304 306 311 308 307 309 313 313 314 311 311 310 309 308 308 307 307 304
300 300 300 300 300 300 300 301 300 300 300 301 300 299 301 302 301 300 299 300 300 300 302 302 300 301 301 300 301 301 302 297 304 302 305 307 307 307 307 306 307 306 309 312 313 312 311 310 307 306 303 302 302 301
300 300 300 300 300 301 301 301 301 301 301 301 301 301 301 301 301 300 299 299 298 299 299 300 301 301 301 302 298 299 301 303 305 303 302 309 305 301 301 303 301 303 306 305 308 309 305 305 304 303 300 299 298 297
299 300 300 300 301 301 301 301 301 302 302 302 302 301 301 298 297 294 298 300 296 300 302 303 302 300 300 301 299 301 303 305 303 303 303 303 298 297 295 295 298 300 304 299 301 303 302 300 298 299 297 295 294 293
299 300 300 300 300 300 301 302 303 302 302 302 298 299 298 299 299 298 302 302 298 300 302 303 301 301 300 300 301 303 300 304 307 308 305 298 294 292 293 295 296 297 300 298 294 297 296 296 294 293 293 293 293 291
298 299 300 300 300 300 301 301 301 301 299 297 297 296 296 294 292 291 293 295 294 298 302 302 301 301 300 301 301 302 306 307 302 301 295 293 291 291 291 291 291 290 291 290 291 293 292 291 291 289 290 290 290 289
297 299 299 300 300 300 300 299 299 297 295 293 290 292 292 291 290 290 290 291 293 295 300 302 301 302 303 302 301 297 300 297 294 290 290 289 289 289 289 290 289 289 289 288 287 288 287 287 286 286 286 287 287 287
298 298 297 299 299 300 300 300 296 294 294 292 288 289 290 289 289 289 289 289 292 295 301 300 298 297 298 298 293 293 291 290 290 289 288 288 287 287 287 287 286 287 286 285 285 286 285 285 286 287 285 284 285 284
298 297 297 299 299 299 299 295 294 293 291 291 288 289 287 286 286 286 287 290 292 295 294 294 293 294 293 294 291 291 290 289 289 288 288 287 286 286 285 285 285 284 284 284 284 284 285 286 285 283 283 283 283 282
296 297 297 299 299 298 296 296 293 290 290 290 289 289 287 285 284 285 286 289 289 290 289 289 288 289 288 291 290 289 289 288 287 286 286 286 286 286 285 285 284 284 284 284 284 283 283 284 283 283 282 282 281 280
298 298 298 299 299 296 295 295 294 292 290 288 286 285 284 283 283 284 285 286 286 286 287 286 286 285 286 288 288 287 287 286 286 285 284 284 284 284 284 284 284 284 284 284 284 284 283 283 282 282 281 281 280 278
298 297 297 297 296 296 295 294 294 293 292 291 288 288 285 284 283 283 283 284 284 284 285 283 283 286 288 288 287 287 286 286 285 284 283 283 283 284 283 283 284 284 284 283 283 282 282 281 280 280 279 278 277 276
297 297 297 296 296 296 295 294 294 294 292 292 291 289 288 285 283 282 282 282 283 282 282 282 282 284 286 285 286 286 285 285 284 283 283 283 283 283 282 283 284 283 282 281 281 281 280 279 279 278 277 275 275 274
296 295 294 295 295 295 295 296 295 294 293 292 291 289 287 286 284 282 281 281 281 282 282 281 281 282 283 283 284 284 285 285 283 283 283 282 282 282 282 282 282 282 280 279 278 278 277 276 276 275 275 274 273 273
293 291 291 290 292 292 294 293 294 293 292 292 291 289 289 286 283 281 281 279 278 280 280 281 282 282 282 282 281 281 281 283 282 281 281 282 281 280 281 280 280 279 279 277 277 276 275 275 274 274 273 273 273 272
288 283 286 282 288 289 289 288 288 289 288 288 287 287 289 287 284 282 280 278 277 278 278 279 280 279 278 278 279 279 280 280 281 280 279 280 280 278 277 277 276 275 275 276 275 274 274 274 273 273 273 273 273 272
281 283 281 281 282 284 285 282 283 282 281 284 284 285 284 278 278 278 278 276 276 276 277 278 278 278 278 278 278 279 278 279 280 280 277 278 278 277 276 275 275 274 273 274 275 274 273 273 273 273 272 272 271 271
277 277 281 280 281 283 280 280 280 276 276 277 278 276 276 275 276 277 276 275 274 275 276 277 278 278 277 277 277 278 278 279 280 278 276 276 276 276 276 276 276 275 274 274 274 273 274 273 272 271 271 270 270 270
280 279 274 277 278 278 272 273 275 276 276 277 277 273 272 272 274 275 274 274 274 274 275 275 276 277 277 277 277 277 277 277 277 276 275 274 274 274 274 274 274 273 273 273 273 273 272 272 271 271 271 270 270 270
280 279 278 271 275 276 277 273 273 275 275 276 269 271 274 274 275 274 274 274 274 274 275 275 275 275 275 275 275 274 274 273 273 274 274 273 273 272 272 272 272 272 272 272 271 271 271 271 271 271 270 270 270 269
280 279 277 275 269 272 277 276 275 274 274 274 273 273 273 274 274 275 275 274 274 274 274 275 274 275 275 275 275 275 275 274 274 273 274 273 273 273 273 272 272 272 271 271 271 271 271 270 270 270 270 270 269 269
281 279 278 277 275 276 276 275 274 274 274 274 274 273 273 273 273 273 274 274 274 274 275 275 275 275 275 275 274 274 274 274 273 273 273 273 272 272 271 271 271 271 271 271 271 271 270 270 270 270 269 268 268 268
280 279 277 270 277 277 277 278 276 275 275 275 275 275 275 274 272 273 273 273 274 274 274 274 274 275 274 273 273 272 272 272 272 271 271 271 271 271 271 271 271 271 271 270 270 270 270 269 269 269 269 269 268 268
280 280 279 278 278 278 279 280 279 279 278 277 277 276 274 273 271 272 272 273 273 273 274 274 274 273 272 272 271 271 271 271 271 271 271 270 270 270 270 270 270 270 270 270 270 269 269 269 269 269 269 268 268 268

GFSWCAN_850_thetae_087.txt.gz
Theta_e
296 297 297 298 298 298 298 298 298 298 297 298 298 298 299 299 299 299 299 300 299 299 301 301 302 303 303 303 303 303 304 303 301 301 298 302 302 305 307 310 312 314 314 314 313 312 314 313 318 318 315 318 319 318
296 297 297 296 296 297 297 297 297 296 295 296 298 298 298 298 299 299 299 299 299 299 300 301 301 302 303 302 303 304 305 304 304 302 300 301 301 300 307 308 311 312 312 314 313 311 310 313 319 317 318 318 318 317
297 296 297 298 299 299 300 300 300 299 300 300 297 296 296 298 299 299 299 300 298 298 298 300 301 301 302 303 304 304 305 304 305 306 303 304 304 303 303 307 309 310 312 314 314 313 312 313 314 317 318 318 318 318
297 298 299 300 300 301 301 300 300 300 300 301 300 299 299 297 298 299 299 299 298 298 298 298 299 300 301 302 303 305 305 306 306 307 305 302 302 306 305 306 310 309 313 314 312 312 312 313 313 315 316 318 317 318
299 300 300 301 300 300 300 300 299 300 301 300 300 301 300 299 298 297 299 299 299 298 296 297 298 299 300 302 302 304 305 305 305 306 304 306 305 307 305 307 308 308 310 311 311 312 312 313 314 315 316 316 317 318
300 301 300 300 301 300 299 299 299 300 300 301 301 300 300 299 298 298 298 298 299 299 299 300 301 299 300 304 303 304 304 304 305 306 305 307 308 307 303 307 307 310 310 310 311 312 312 312 314 315 316 316 316 317
301 301 300 300 298 299 299 300 300 300 300 300 300 300 301 299 298 298 299 298 299 299 299 299 302 303 302 304 304 305 305 305 305 305 305 306 307 308 304 305 308 309 309 309 309 310 314 315 316 316 317 315 314 315
301 301 301 298 299 299 299 299 299 299 299 300 300 300 299 299 298 299 300 300 299 299 299 299 303 304 304 304 304 304 304 304 305 305 304 304 304 304 304 305 306 306 306 307 307 309 311 314 314 313 316 314 316 315
301 302 300 299 299 300 300 300 300 299 299 299 299 299 300 298 299 300 301 299 299 299 299 299 302 303 303 303 305 304 305 303 303 301 302 304 301 304 305 306 309 309 309 311 312 312 314 312 310 310 312 314 309 303
300 301 301 301 300 300 299 300 300 299 300 299 299 299 299 300 300 300 300 300 300 300 300 298 300 302 303 301 300 301 301 298 303 303 305 302 302 304 307 309 310 311 311 312 312 310 311 310 308 306 305 306 303 302
300 300 300 300 300 300 299 299 299 299 300 300 300 302 301 300 300 301 298 300 299 300 300 300 299 302 301 300 302 300 301 297 302 301 303 305 305 304 307 308 307 307 306 309 310 312 313 311 307 304 299 299 299 299
300 300 300 300 300 300 300 300 300 301 301 301 301 300 301 301 299 299 299 299 298 301 298 300 299 301 301 302 299 300 298 301 303 300 304 305 303 301 301 299 301 303 306 307 305 305 306 305 303 302 298 295 295 294
300 300 301 301 300 301 302 302 302 302 302 302 302 301 300 297 295 296 299 301 298 294 299 300 299 299 300 300 297 298 301 301 300 306 304 303 299 296 296 296 297 297 299 306 299 297 299 298 296 298 295 292 292 291
300 300 300 301 301 301 302 301 301 302 302 301 296 294 291 292 296 295 298 300 296 298 300 300 299 300 299 298 299 301 298 303 305 303 303 298 294 293 294 293 292 292 296 298 295 292 291 292 291 291 294 290 291 291
300 300 300 301 300 300 300 300 300 301 298 295 295 294 293 292 291 291 292 293 292 297 301 301 300 301 300 298 299 300 303 303 303 301 295 293 291 292 291 290 289 290 293 292 292 291 288 289 290 289 290 290 291 289
298 299 300 300 300 300 299 299 300 297 294 291 288 291 289 290 289 289 289 290 292 295 301 301 301 301 299 298 300 297 298 295 292 291 290 290 289 289 289 288 288 288 290 289 287 287 287 287 286 285 286 287 287 287
298 298 299 299 299 299 299 298 294 293 292 289 287 286 287 286 286 287 287 288 291 294 300 298 297 296 297 295 293 293 291 290 289 288 288 288 287 287 287 287 286 286 286 285 285 285 285 285 286 286 285 284 285 285
297 297 299 299 299 298 296 294 293 291 290 288 286 287 284 284 283 284 286 288 291 293 292 292 292 292 292 293 291 290 289 288 288 287 286 286 286 286 285 285 284 284 284 283 283 283 284 285 285 283 283 283 283 282
297 297 299 300 298 298 295 294 292 288 287 288 286 285 284 283 284 285 286 288 288 289 289 288 287 288 288 290 289 288 287 286 285 285 285 285 285 284 284 284 283 283 283 283 283 283 283 284 283 283 283 283 283 281
298 297 298 299 298 296 294 294 292 290 286 285 284 283 283 283 283 284 285 285 286 285 285 285 284 284 286 287 287 286 285 285 284 283 282 283 283 283 283 283 283 283 284 283 284 284 284 283 283 283 283 282 281 279
298 297 297 297 296 295 294 294 293 290 288 288 286 286 285 283 282 282 283 284 283 283 283 282 282 285 287 287 286 286 285 284 283 282 282 281 282 283 283 283 284 284 285 284 284 283 283 282 281 281 280 279 277 276
297 297 297 296 296 296 295 294 293 292 291 290 289 287 286 284 282 282 281 282 282 281 281 280 281 283 285 285 284 285 284 284 283 283 282 283 282 283 283 283 284 284 283 283 283 282 281 280 279 278 278 277 276 275
296 295 294 295 295 295 294 295 294 293 292 291 290 287 285 283 282 281 280 279 278 278 280 280 280 281 282 282 283 283 283 284 283 283 283 283 282 282 283 283 283 284 283 281 281 281 279 278 277 277 276 275 275 274
293 290 289 289 291 291 292 291 291 290 290 291 290 289 287 284 282 281 279 278 277 278 280 281 281 281 282 282 281 280 281 283 283 281 281 283 282 281 282 282 282 282 281 279 278 277 276 276 275 275 274 274 273 273
287 282 284 282 286 286 285 284 283 287 286 287 286 286 287 284 282 280 278 276 276 276 277 278 280 280 278 278 278 279 280 281 281 280 279 281 281 281 280 279 278 277 277 277 276 276 275 274 274 273 273 272 272 271
280 281 281 281 281 283 283 279 279 279 278 280 280 281 280 276 276 277 277 275 275 275 276 277 278 278 278 278 278 279 279 279 281 281 279 279 280 278 277 276 276 275 275 275 275 275 274 273 273 273 272 271 271 271
276 275 279 278 279 281 277 278 278 276 276 275 275 272 271 271 274 276 275 274 274 274 275 276 277 277 277 277 277 277 278 279 280 279 277 276 276 276 276 276 276 275 274 273 273 273 274 273 272 272 271 271 270 270
279 278 274 275 277 277 271 272 273 274 274 276 275 271 271 270 274 274 274 274 274 274 275 276 276 276 277 276 276 277 277 277 277 277 276 276 275 275 275 275 274 274 273 273 272 272 272 272 272 271 271 271 270 270
278 277 277 269 274 275 275 270 272 274 274 275 266 268 273 273 274 273 273 274 274 274 275 275 275 275 275 275 276 276 276 275 275 275 275 275 274 273 273 273 273 273 272 272 272 272 271 271 271 270 270 270 270 270
278 277 275 273 269 272 273 273 273 273 273 273 273 273 272 273 274 274 274 274 274 274 274 274 274 275 275 276 276 275 274 274 274 273 274 274 273 273 273 272 272 272 272 271 271 271 271 270 270 270 270 270 269 269
279 278 276 276 274 274 273 273 273 274 274 273 273 273 273 272 273 273 273 273 274 274 274 274 274 274 274 274 274 274 274 274 273 273 273 273 272 272 271 271 271 271 271 271 270 270 270 270 270 270 269 269 269 269
279 277 276 270 276 276 276 276 275 274 275 274 274 275 274 273 272 272 272 272 273 274 274 274 274 274 274 273 273 272 272 272 272 272 271 271 271 271 271 271 271 271 271 270 270 270 269 269 269 269 269 268 268 268
279 278 278 277 276 276 277 277 277 277 276 276 276 275 273 272 271 271 271 272 273 273 273 273 273 272 272 271 271 271 271 271 271 271 271 270 270 270 270 270 270 270 270 270 270 269 269 269 269 269 268 268 268 268

GFSWCAN_850_thetae_090.txt.gz
Theta_e
294 294 295 296 296 297 297 298 298 298 298 297 298 297 298 298 298 298 298 298 298 299 300 300 300 301 301 301 302 302 304 302 302 303 302 302 302 304 304 304 307 308 313 314 314 316 316 312 315 318 314 316 317 317
295 295 295 296 296 296 297 297 296 296 297 298 297 298 298 299 299 299 298 298 298 299 299 300 300 300 301 301 302 302 303 303 302 303 299 300 300 298 304 306 306 309 310 312 313 313 312 311 312 312 315 316 316 317
295 296 297 297 297 297 297 298 298 298 298 297 297 298 297 298 299 299 299 299 298 299 298 300 300 301 301 302 302 302 303 304 304 304 304 303 301 300 301 303 306 306 309 310 311 311 311 311 312 313 314 316 317 318
297 297 298 298 299 299 299 300 300 300 300 300 299 297 297 298 298 299 300 298 299 298 299 298 300 300 301 302 302 303 303 303 304 304 304 305 301 303 302 303 304 305 308 309 311 312 312 312 311 313 314 315 315 317
298 299 300 299 300 300 300 300 300 300 300 300 300 299 298 296 297 298 298 299 299 299 298 297 298 299 301 301 301 302 302 303 304 305 303 305 305 305 303 304 304 306 306 307 308 310 310 310 312 313 314 314 315 315
299 299 300 300 300 300 300 299 299 299 300 300 300 300 299 299 296 298 299 299 300 299 298 298 299 299 299 301 301 301 302 303 305 304 302 304 305 306 304 303 304 305 306 307 308 309 308 309 313 315 316 314 316 316
300 300 300 300 298 298 298 298 299 299 299 300 300 300 301 300 298 298 298 299 299 298 299 296 295 301 301 299 298 301 302 303 304 304 305 305 306 306 298 306 304 307 307 308 309 307 306 308 312 313 314 314 314 316
301 299 299 298 299 299 299 299 300 300 299 299 299 300 300 299 298 298 299 299 299 298 299 295 293 303 302 302 302 303 304 304 303 303 303 305 305 303 305 304 306 306 305 305 305 305 307 309 311 312 313 313 315 314
300 301 299 300 299 299 299 299 300 300 300 299 300 299 300 297 298 299 300 298 299 299 298 297 294 303 302 303 303 303 304 302 302 302 302 304 304 305 304 304 305 304 306 306 308 310 311 311 308 309 309 306 308 300
300 300 300 299 299 299 299 300 299 299 300 299 299 298 299 299 300 299 299 299 299 300 299 294 300 302 301 302 302 301 302 303 304 303 303 304 304 303 305 305 305 305 307 309 308 308 309 308 306 306 304 300 303 300
300 299 300 299 299 300 299 299 298 298 299 300 300 300 299 299 300 300 298 298 299 299 298 298 299 301 301 301 302 300 302 300 300 300 302 303 303 301 304 304 306 306 306 306 308 310 309 309 306 304 300 299 297 296
300 300 299 300 301 300 299 300 300 301 301 300 300 299 299 299 299 297 295 298 299 299 299 298 299 301 300 300 300 299 300 301 302 299 303 303 300 300 301 300 301 301 302 303 304 305 305 305 302 300 297 296 295 294
300 299 299 299 301 301 301 300 301 300 300 301 301 300 300 296 297 299 294 299 299 297 298 298 299 299 299 299 297 299 300 301 298 304 305 301 298 296 297 297 298 297 297 297 297 297 297 298 296 296 293 291 292 290
300 300 301 301 302 301 301 302 301 302 302 300 295 294 291 286 291 294 297 299 294 297 299 299 298 299 298 299 298 299 294 300 305 303 303 298 295 293 294 293 294 292 292 293 292 291 289 290 288 288 288 288 290 288
300 300 300 301 301 300 300 301 301 301 297 293 293 291 292 291 290 290 291 292 292 297 299 299 300 300 299 299 299 299 302 302 302 295 292 292 291 291 291 290 289 288 288 288 288 288 286 285 285 284 285 286 288 288
300 300 300 300 299 299 298 297 297 296 291 289 286 288 287 289 287 287 287 289 291 295 300 300 299 299 298 296 301 298 298 296 288 288 289 289 289 289 288 288 288 288 287 285 285 285 286 287 285 285 285 286 285 285
299 299 299 299 297 297 298 296 294 290 289 287 285 284 285 284 285 285 285 287 291 293 298 296 297 294 294 293 293 292 289 289 288 287 287 287 287 286 286 286 285 285 284 284 283 284 283 283 285 285 283 282 283 284
298 299 299 299 299 298 296 293 291 289 289 287 285 284 283 283 283 284 286 288 290 292 292 291 291 291 291 292 291 290 288 287 286 286 285 285 286 285 285 284 284 283 283 282 282 282 282 283 283 281 283 283 283 282
297 298 299 299 299 298 294 292 290 286 285 285 283 283 283 283 284 284 286 288 288 289 288 287 287 287 287 288 288 286 286 285 284 284 284 284 284 284 283 283 283 282 282 282 282 282 282 283 282 283 283 283 283 281
296 296 298 299 298 295 293 292 290 287 283 284 283 283 283 282 282 283 284 284 285 284 283 283 283 283 285 286 286 285 284 284 284 283 282 282 283 283 282 282 282 282 282 282 282 283 283 283 282 283 283 282 281 279
296 296 296 296 295 294 293 292 289 287 286 286 285 285 284 283 282 281 281 282 282 281 282 280 281 282 284 285 285 285 284 284 283 282 281 281 281 282 281 281 282 283 283 283 284 283 283 283 282 282 281 280 278 277
296 296 296 296 296 295 293 292 291 290 290 288 287 286 285 282 282 281 280 279 279 278 278 279 280 281 283 283 283 283 283 283 282 282 281 282 281 281 281 282 284 283 283 283 283 283 282 281 280 279 278 276 276 275
296 295 295 295 294 294 294 294 293 292 292 290 288 286 283 282 281 280 279 278 277 276 278 279 279 280 280 281 282 282 282 282 282 281 282 282 282 282 282 283 283 283 283 281 282 281 279 278 277 277 276 275 274 273
293 291 288 288 290 288 291 289 290 289 289 290 289 286 284 283 281 280 278 277 276 276 277 279 280 280 281 281 280 279 280 281 282 281 281 282 282 281 282 282 283 283 282 280 279 278 277 276 276 275 275 274 273 273
287 281 283 280 284 284 284 282 282 285 285 285 285 284 283 282 280 279 277 276 275 275 276 277 278 278 278 277 278 278 279 280 280 280 279 281 281 281 281 280 279 278 278 277 277 276 275 275 274 274 273 273 273 272
277 279 278 279 279 280 280 278 278 278 277 278 278 278 278 275 275 276 276 274 274 274 275 276 276 277 277 277 278 278 278 279 280 281 278 279 280 280 278 277 276 275 275 275 276 275 275 274 274 273 273 272 271 271
276 276 277 277 278 279 276 276 276 274 275 275 274 271 272 271 273 275 274 273 273 274 275 276 276 276 276 276 276 277 277 278 280 278 276 276 276 275 276 276 276 275 274 274 274 274 274 273 273 272 272 271 271 270
277 277 272 273 275 275 270 270 271 273 273 275 273 270 270 269 273 273 273 273 273 274 275 275 276 276 276 276 276 276 277 277 277 277 277 276 275 275 274 274 274 274 274 273 273 273 272 272 272 271 271 271 270 270
276 276 275 268 273 273 272 271 272 272 273 273 264 268 272 272 273 273 273 273 273 274 274 275 275 275 275 275 276 276 275 274 275 275 276 275 274 274 273 273 273 273 273 273 272 272 272 271 271 271 270 270 270 269
276 276 274 273 268 270 272 272 272 272 272 272 272 272 272 272 273 273 273 273 274 274 274 274 274 275 275 275 275 275 275 275 275 274 274 274 273 273 272 272 272 272 272 272 271 271 271 271 270 270 270 270 269 269
277 277 275 274 272 273 273 273 273 273 273 273 272 272 272 272 272 272 273 273 273 273 274 274 274 274 274 274 274 274 274 274 273 273 273 273 272 272 272 272 272 271 271 271 270 270 270 270 270 270 269 269 269 269
277 276 274 269 274 275 275 275 274 274 275 275 274 274 273 273 272 272 271 272 272 273 274 273 274 274 274 273 273 272 272 272 272 272 272 271 271 271 271 271 271 271 271 271 270 270 270 269 269 269 269 269 269 269
278 277 277 276 275 275 276 276 276 275 275 274 274 273 272 271 270 270 271 271 272 272 272 273 272 271 271 271 271 271 271 271 271 271 271 271 270 271 271 270 270 270 270 270 270 269 269 269 269 269 269 269 268 268

GFSWCAN_850_thetae_093.txt.gz
Theta_e
292 293 293 294 294 295 295 295 295 296 296 297 297 297 297 297 297 296 297 297 296 297 298 299 299 299 300 301 301 302 302 302 303 305 305 304 304 304 304 304 304 310 309 309 309 311 311 313 315 316 314 313 314 316
293 294 294 295 295 295 296 296 296 297 297 298 298 298 298 297 298 297 297 297 297 297 298 299 300 300 300 300 301 301 302 302 303 304 303 303 304 303 305 305 305 306 309 313 312 310 313 312 311 311 313 313 314 316
294 294 295 295 296 297 296 296 297 297 297 297 296 298 298 298 298 298 298 298 297 298 298 299 299 299 300 300 300 301 301 302 302 303 304 303 303 303 307 306 306 306 307 310 310 310 311 311 310 311 312 312 315 316
295 296 296 297 297 298 298 298 298 298 298 297 298 297 297 298 298 298 297 298 298 297 299 299 298 299 299 300 301 301 301 301 302 303 304 305 305 304 305 305 306 305 308 309 309 308 310 310 310 309 311 313 314 315
298 298 299 299 299 299 299 299 299 299 299 298 298 298 297 298 298 298 298 299 298 299 299 298 299 300 300 300 300 301 301 302 302 303 302 304 304 306 305 305 307 306 307 308 308 307 308 309 309 309 313 313 314 315
300 300 300 300 300 301 301 301 300 300 299 299 299 299 299 298 298 298 299 298 298 299 298 299 298 299 300 300 301 301 302 302 302 302 303 304 304 305 306 306 306 306 306 305 306 305 307 307 308 310 310 312 314 315
300 301 300 300 298 298 298 298 298 298 299 300 299 300 300 299 297 299 298 299 298 298 298 299 297 299 299 299 300 300 301 301 302 301 301 303 304 305 304 306 305 305 306 306 306 306 307 308 306 306 310 311 311 313
300 300 298 298 299 299 299 298 298 298 298 298 300 300 298 299 297 298 299 299 298 299 298 296 296 300 301 299 299 299 300 301 302 302 302 304 304 305 306 305 305 305 306 305 306 305 305 305 307 308 309 309 306 311
300 300 299 300 299 298 299 299 299 300 299 298 299 300 299 298 298 298 299 299 298 299 299 297 296 300 300 301 300 301 301 302 302 302 303 304 305 305 306 305 305 306 305 305 305 306 309 309 309 308 307 307 302 299
299 299 299 299 299 299 300 299 299 300 299 299 300 298 297 298 298 298 299 298 299 298 298 297 297 299 301 301 300 300 301 303 302 302 302 304 305 304 304 305 305 305 304 304 306 307 308 307 306 304 303 304 302 297
299 300 300 299 299 299 299 299 299 300 300 299 299 299 299 298 299 299 297 298 298 299 297 298 299 300 300 302 302 300 303 301 303 304 305 305 305 303 303 303 302 303 304 305 306 307 307 307 306 304 301 300 295 292
299 300 299 299 299 300 300 299 299 299 299 300 299 299 299 299 299 298 298 298 297 299 298 299 299 300 299 300 301 299 301 301 303 301 305 304 302 299 299 300 300 300 301 302 303 304 303 304 303 301 299 294 289 288
299 301 301 300 300 299 299 299 299 299 300 300 300 300 299 294 294 292 298 299 299 297 299 298 300 298 298 299 299 300 302 303 300 304 304 302 297 296 297 297 297 297 298 297 298 299 298 296 294 295 293 289 286 286
300 301 301 299 300 300 301 301 300 301 301 298 293 289 288 289 291 292 295 297 294 296 299 299 298 299 298 299 299 300 299 301 304 305 304 296 293 293 293 293 292 291 292 292 291 292 292 292 290 288 287 285 286 285
300 301 300 299 298 298 299 299 300 301 297 291 290 289 288 289 288 289 290 292 292 295 299 299 299 299 298 299 300 299 301 303 303 299 292 290 290 290 290 290 290 288 288 288 287 287 286 286 286 284 283 283 286 286
299 300 300 297 299 300 298 297 300 297 290 287 284 286 285 288 286 286 286 288 290 294 298 299 299 298 298 299 300 297 300 299 292 289 288 288 288 287 287 287 287 286 286 285 284 284 283 283 283 282 282 283 283 285
300 299 299 298 296 297 297 295 292 288 287 286 284 283 284 283 283 284 284 286 289 292 297 295 295 294 294 295 292 291 290 290 288 287 286 286 286 285 285 285 285 284 284 282 282 281 281 280 280 280 280 280 283 284
299 299 299 299 299 297 294 291 289 288 285 284 284 283 283 283 283 283 285 287 289 291 291 291 291 290 290 291 290 290 287 285 285 285 285 284 284 284 284 283 283 283 282 281 281 280 280 280 280 278 279 281 281 280
297 298 299 298 298 296 293 290 288 285 283 283 283 283 283 282 283 283 285 287 287 288 287 287 286 286 286 288 288 286 285 285 283 283 284 284 283 283 283 282 282 281 281 280 280 280 280 280 280 280 280 282 282 281
296 296 298 298 298 295 291 290 287 285 283 283 283 283 282 282 281 281 282 283 283 282 282 282 282 282 283 283 285 285 284 283 283 282 282 282 282 282 282 281 281 281 280 280 280 280 281 281 281 282 283 282 282 279
296 296 296 296 294 293 291 289 287 285 285 285 285 284 283 282 281 280 279 280 279 279 281 279 279 280 281 283 284 284 283 283 282 281 280 280 281 281 281 280 280 281 281 281 282 281 282 282 281 281 281 279 278 277
296 296 296 295 294 293 291 290 289 288 288 287 286 284 283 282 281 280 279 278 277 276 276 277 278 279 279 281 281 282 282 282 281 281 281 280 280 280 280 280 282 281 281 282 282 283 282 281 280 279 278 276 275 274
296 297 294 294 294 293 293 292 292 291 289 289 287 285 283 282 281 280 278 277 276 275 276 277 278 279 279 279 280 281 281 281 280 280 280 280 280 280 281 281 282 283 282 281 282 282 280 279 277 277 276 275 274 273
295 291 287 287 288 284 289 286 288 288 288 289 287 285 284 282 281 279 278 276 275 275 276 277 279 279 279 279 279 278 279 280 280 280 280 281 281 280 281 281 282 282 282 281 279 278 277 276 276 276 275 274 273 272
287 279 282 279 282 282 281 280 281 284 283 283 284 282 281 281 280 278 277 275 274 274 275 276 277 277 277 276 277 278 279 280 281 280 279 280 280 280 280 280 280 279 278 278 277 276 275 275 274 274 273 273 273 273
277 277 278 278 278 279 279 278 278 278 277 278 278 276 277 276 276 276 275 273 273 273 274 275 275 276 276 276 277 277 277 278 280 280 278 279 280 281 279 278 277 276 276 276 276 276 275 274 274 273 273 272 272 272
274 273 276 276 277 277 274 275 275 275 275 275 274 272 273 273 274 275 273 273 273 273 274 275 275 275 275 276 276 276 277 278 279 278 277 276 276 276 276 277 276 276 275 274 274 274 274 274 273 272 272 271 271 270
276 276 273 273 273 273 269 270 271 273 273 274 272 271 271 270 273 273 272 272 273 273 274 274 275 275 275 275 275 275 276 276 277 277 277 276 275 275 275 275 275 274 274 274 273 273 272 272 272 272 271 271 271 270
275 274 274 268 271 271 270 270 270 271 271 272 266 269 271 271 272 272 272 273 273 274 274 274 274 274 274 275 275 275 275 275 276 276 276 275 274 273 273 273 273 273 273 273 272 272 272 271 271 271 271 270 270 270
275 274 272 270 267 269 271 271 271 272 272 272 271 271 271 271 271 272 273 273 273 274 274 274 274 274 274 275 275 275 275 275 274 274 274 273 273 272 272 272 272 272 272 271 272 272 271 271 271 270 270 270 269 269
276 276 273 272 271 272 272 272 272 273 273 272 272 272 271 271 272 272 272 272 272 273 273 274 274 274 274 274 274 274 274 274 274 273 273 272 272 272 272 271 271 271 271 271 271 270 270 270 270 270 270 269 269 269
276 275 273 269 273 274 274 274 274 274 275 274 274 273 273 272 271 271 271 272 272 273 273 273 273 273 273 272 272 272 271 271 271 271 271 271 271 271 271 271 271 270 270 270 270 270 270 270 269 269 269 269 269 269
277 277 276 275 274 274 274 275 274 274 274 273 273 272 271 271 270 270 270 271 271 272 271 271 271 270 270 270 270 270 270 270 270 270 270 270 270 270 270 270 270 270 270 270 270 270 270 269 269 269 269 269 269 268

GFSWCAN_850_thetae_096.txt.gz
Theta_e
291 291 291 293 293 294 294 294 294 294 295 295 295 295 295 295 294 293 294 294 294 295 296 296 296 297 299 300 302 302 302 303 304 305 305 305 305 305 305 306 309 310 310 309 308 310 310 310 314 315 313 313 314 313
291 292 293 293 294 294 294 295 295 295 295 295 295 295 296 296 296 295 295 294 295 295 296 296 296 297 299 298 300 300 301 302 303 305 306 306 306 306 305 306 306 307 307 309 310 309 308 309 311 310 311 312 311 313
292 293 293 294 294 295 295 295 296 296 296 296 297 297 297 297 297 297 297 297 295 296 296 296 297 298 298 299 299 300 301 301 302 303 305 306 306 305 306 307 306 307 307 309 310 308 311 309 308 309 310 311 314 315
293 294 295 296 296 296 296 296 296 297 296 296 297 297 298 298 298 298 298 297 297 297 298 299 298 298 299 299 300 300 300 301 301 302 303 306 306 306 306 307 307 307 307 307 308 308 307 308 309 308 309 312 312 314
296 298 298 299 299 299 299 298 298 297 298 297 297 297 298 298 298 298 298 297 297 298 300 300 300 299 299 300 301 301 301 301 302 303 304 305 304 305 306 307 308 307 308 308 309 308 308 307 306 307 308 311 310 313
298 299 300 300 300 300 299 299 299 299 299 298 298 298 298 298 298 297 298 297 298 298 298 301 300 300 299 301 301 300 301 301 302 301 304 303 305 306 307 307 307 306 306 307 308 307 307 307 307 308 310 309 310 310
300 300 299 298 300 300 300 300 300 301 299 299 298 299 298 298 298 298 298 298 298 298 298 300 302 300 300 301 301 301 302 302 302 300 302 304 304 305 306 307 305 305 306 306 305 306 307 307 307 308 307 307 309 308
300 300 299 298 298 298 298 298 298 298 298 300 300 299 299 299 298 298 299 298 298 298 298 301 301 302 300 301 302 301 302 302 302 302 302 305 304 304 308 306 305 305 305 305 306 307 307 307 306 306 306 306 304 301
300 300 299 298 299 299 299 299 299 298 298 299 299 299 298 298 298 299 299 298 298 299 300 300 302 303 301 301 301 301 301 303 302 303 303 303 304 305 304 304 304 305 306 306 307 307 307 307 309 307 304 304 301 297
299 299 299 298 299 299 299 299 299 298 298 299 300 299 296 297 298 298 298 298 299 298 299 301 300 302 301 301 302 302 302 302 302 302 303 305 305 303 303 303 304 305 305 306 306 307 307 309 307 303 303 300 298 300
299 299 299 299 299 299 300 299 299 298 298 299 299 299 298 298 298 299 297 300 299 301 298 300 301 303 301 303 304 301 303 303 303 304 304 304 304 305 304 304 304 302 301 301 302 303 304 305 305 300 299 297 294 294
300 300 300 300 299 299 298 300 299 299 299 299 299 298 298 299 299 301 301 300 300 301 299 299 300 301 300 301 303 301 304 303 306 304 305 305 304 299 300 299 298 298 299 299 300 299 301 302 301 298 295 293 292 290
300 299 299 299 298 300 299 299 299 299 299 299 300 299 300 297 302 301 299 300 300 300 299 299 301 299 298 300 303 302 304 305 304 306 306 303 296 295 294 294 295 296 296 296 296 296 295 295 295 295 295 291 290 286
299 300 300 299 298 299 299 299 299 299 300 297 297 294 298 298 297 298 300 301 297 298 299 299 299 302 300 302 303 303 303 304 305 306 305 295 293 292 292 291 291 291 292 292 292 291 291 291 290 289 290 290 289 287
299 298 298 298 299 299 299 300 300 299 295 292 293 294 293 291 291 291 292 295 292 295 298 300 300 299 301 303 302 302 303 305 304 302 295 292 291 290 290 289 288 288 288 288 288 287 286 286 286 284 284 284 285 284
300 300 296 296 297 298 296 297 298 295 289 287 287 291 289 293 291 290 291 292 290 292 297 299 302 300 301 302 302 301 304 302 296 293 290 289 289 288 287 286 286 286 286 285 284 284 283 283 282 281 280 280 280 281
299 300 299 297 297 297 297 298 294 288 288 287 287 286 287 287 287 287 287 288 288 291 301 301 301 298 298 298 296 294 294 292 290 289 288 287 287 286 284 284 284 284 283 282 282 282 281 280 280 280 278 277 279 280
299 299 299 299 300 298 295 291 288 287 286 286 287 285 285 285 286 286 286 287 290 294 294 294 293 293 293 294 293 291 289 287 287 286 286 285 285 284 284 283 282 282 281 280 280 279 279 279 279 277 277 278 279 279
298 299 298 298 297 295 291 289 288 286 285 285 285 284 284 284 283 283 284 285 286 287 288 288 288 288 288 288 288 289 288 287 286 284 283 283 283 283 282 282 281 280 280 279 279 278 278 278 277 278 279 281 281 280
296 296 297 297 296 293 290 288 287 286 287 285 285 284 283 283 282 282 281 282 283 283 282 283 283 282 282 282 283 285 285 284 284 284 283 282 282 282 281 280 280 279 279 279 278 278 278 277 278 279 280 281 281 280
296 295 295 294 292 292 291 289 287 286 286 286 286 285 284 283 281 280 280 280 279 279 281 279 279 279 280 281 282 283 283 283 284 283 282 282 280 280 280 279 279 279 278 278 278 278 279 280 279 281 282 281 280 276
296 296 295 294 293 292 291 290 289 288 289 287 287 285 285 284 282 280 279 278 277 276 276 277 277 278 279 279 280 280 281 281 281 280 280 280 280 279 279 279 279 278 278 278 280 280 280 280 280 280 279 276 275 275
297 296 293 293 293 293 291 291 292 291 291 289 287 286 285 284 282 280 279 277 276 275 275 276 277 278 278 278 279 279 280 279 279 279 279 279 278 278 279 279 279 280 280 280 281 280 280 279 278 277 276 275 274 273
293 290 287 286 289 289 288 288 289 289 289 289 287 286 285 283 281 280 279 277 276 274 275 275 276 278 277 277 277 277 277 278 279 279 278 279 279 279 279 280 280 281 281 281 281 279 277 277 276 276 275 274 273 273
288 280 282 283 282 285 285 284 284 286 286 286 284 283 282 282 282 280 279 276 275 274 274 274 275 275 276 276 275 277 278 278 278 278 278 279 280 280 280 280 281 280 279 278 277 277 276 276 275 275 274 274 273 273
279 278 280 280 281 282 282 282 281 281 282 281 280 279 279 280 279 278 277 274 274 273 273 273 274 275 274 275 276 277 277 277 278 279 278 278 278 279 279 278 277 276 276 276 276 276 275 275 274 274 273 273 272 272
279 278 277 275 277 278 278 277 277 279 279 279 278 277 278 277 277 276 275 273 273 272 272 273 273 273 273 274 275 276 277 278 278 278 277 277 277 277 277 276 276 275 275 275 274 274 274 274 273 273 272 271 271 271
277 276 276 273 274 274 274 275 275 276 276 275 275 275 275 275 276 274 273 272 272 273 273 274 274 274 274 275 275 275 275 276 276 277 277 276 276 275 275 275 275 274 274 274 273 273 273 273 273 272 272 272 271 271
275 274 274 271 273 273 272 274 274 273 272 274 275 274 273 272 270 272 272 272 273 273 273 273 273 274 274 274 275 275 275 275 275 276 276 275 274 274 274 273 273 273 273 273 273 273 272 272 272 272 271 271 271 270
275 273 273 272 273 274 272 271 272 270 271 272 272 272 271 270 270 272 272 273 273 273 273 274 274 274 274 274 274 275 275 275 275 275 274 274 273 273 273 272 272 273 272 272 272 272 272 271 271 271 270 270 270 270
275 275 274 274 274 273 272 272 273 272 272 272 272 272 271 270 271 272 272 272 272 273 273 273 274 274 274 274 273 273 274 273 273 273 273 273 272 272 272 272 272 272 271 271 271 271 271 270 270 270 270 270 269 269
274 274 275 275 274 273 274 274 274 274 274 274 273 272 272 272 271 271 271 271 272 272 273 272 272 272 271 271 271 271 271 271 271 271 271 271 271 271 271 271 271 271 271 270 270 270 270 270 269 269 269 269 269 268
275 275 275 275 275 275 274 275 275 275 274 274 271 271 271 271 270 269 270 271 271 271 270 270 270 270 270 270 270 270 270 270 270 270 270 270 270 270 270 270 270 270 270 270 270 270 269 269 269 269 269 268 268 268

GFSWCAN_850_thetae_099.txt.gz
Theta_e
291 291 292 291 291 291 292 293 294 294 294 294 294 294 294 293 293 293 295 296 296 296 296 297 297 299 299 300 302 302 303 304 306 306 305 305 307 306 307 307 310 311 312 311 309 312 313 309 310 313 314 313 313 313
291 290 290 290 291 292 293 294 294 294 294 294 295 295 295 295 294 293 294 295 295 296 297 297 297 297 298 298 300 300 302 302 302 306 305 307 307 307 307 309 308 310 310 311 311 311 309 309 311 311 310 310 312 312
290 290 291 292 293 293 294 294 295 295 295 295 295 295 295 295 295 295 294 295 295 296 296 296 297 298 298 297 298 299 300 301 302 303 305 305 308 307 308 308 308 309 309 309 310 310 310 309 310 307 308 309 310 312
291 291 292 293 295 295 296 296 296 296 296 296 296 296 296 295 296 296 296 296 296 296 297 298 297 298 297 298 299 298 299 300 301 303 303 306 305 305 307 308 308 308 309 310 310 309 309 308 309 309 308 309 309 311
292 292 294 296 297 298 298 298 297 297 296 296 297 297 296 296 296 296 297 297 297 296 300 299 299 299 299 299 298 300 300 301 301 303 304 306 305 306 306 307 308 307 308 310 310 309 309 309 308 308 308 309 311 311
294 297 298 299 300 300 300 300 300 299 298 296 297 297 297 297 298 297 298 297 297 297 298 300 301 301 301 301 301 301 301 301 302 301 304 303 303 305 307 307 307 307 307 308 308 307 307 307 307 308 308 311 308 310
299 299 300 299 300 298 300 300 299 299 299 297 296 297 297 298 298 297 298 299 298 297 298 301 301 302 302 302 301 302 302 302 302 301 302 303 304 305 307 307 306 306 306 306 306 306 307 307 308 308 308 309 306 305
300 300 300 299 299 298 298 298 300 300 299 298 298 298 298 298 298 297 300 299 297 297 298 302 303 303 302 302 303 302 302 302 302 302 302 304 304 304 306 305 304 305 306 306 306 307 308 308 308 307 308 308 307 303
300 300 299 299 298 298 299 299 298 298 298 299 299 298 298 298 298 298 299 298 298 298 300 301 304 304 302 303 303 302 302 303 302 304 304 303 305 305 305 304 304 304 305 306 307 307 308 309 308 309 308 308 307 300
299 299 298 298 299 299 298 298 299 298 298 299 298 298 296 298 299 298 298 298 298 299 300 302 302 304 303 303 303 303 303 303 304 305 303 304 305 304 303 304 304 304 305 306 306 306 307 309 309 309 308 306 305 298
299 300 300 299 299 298 298 299 299 299 298 299 298 298 298 299 298 299 297 300 299 302 300 301 301 304 302 304 304 303 305 304 304 304 304 305 305 306 304 304 304 303 304 304 304 303 304 305 306 307 304 302 298 296
299 299 299 299 300 300 300 299 299 298 299 299 299 299 298 298 299 301 302 302 302 302 302 302 302 302 302 303 304 303 303 305 305 305 305 306 302 298 299 299 299 298 298 299 299 299 300 300 303 305 301 297 293 293
299 299 299 298 300 299 299 299 299 299 299 299 299 299 300 299 304 303 302 301 303 302 300 300 303 300 301 302 304 304 305 304 305 305 306 302 297 295 295 295 295 294 295 295 296 296 296 296 296 297 294 292 291 290
299 299 299 299 299 299 299 299 299 299 299 298 299 298 302 301 301 302 303 304 300 301 300 300 301 302 302 303 304 302 305 305 305 305 305 297 293 293 293 292 292 292 290 291 291 291 292 292 292 292 290 288 287 286
299 297 298 299 299 299 299 299 299 296 294 294 297 297 295 293 294 294 295 298 295 297 300 301 301 301 303 304 303 306 305 306 306 303 297 293 291 290 290 289 289 288 287 287 287 287 287 287 287 286 284 283 283 282
301 299 296 297 296 299 298 298 297 293 291 290 290 294 294 296 295 294 295 294 292 294 298 299 303 303 303 304 305 304 305 304 297 294 291 290 289 288 287 287 286 285 285 284 283 283 283 283 283 282 281 280 280 281
299 299 294 294 295 295 295 295 292 290 290 290 290 289 291 291 291 291 291 291 291 294 303 303 305 303 301 303 300 297 297 294 291 290 289 288 287 287 286 285 284 284 283 282 281 281 280 280 280 280 278 277 278 278
299 299 298 297 297 295 293 290 290 290 289 289 289 289 287 287 289 288 289 289 292 296 297 296 296 297 298 298 296 293 291 290 289 287 287 286 285 285 285 284 283 283 282 281 280 279 278 278 277 276 277 277 277 278
298 299 300 299 298 295 291 290 290 289 288 288 288 287 287 286 285 285 286 287 288 289 291 291 291 292 291 288 288 288 289 288 287 286 285 284 283 283 283 282 282 281 281 280 280 280 279 278 277 276 276 276 277 278
297 297 297 296 295 293 291 290 290 289 289 287 287 286 286 285 285 284 284 284 285 285 284 285 285 284 283 283 283 285 286 286 286 287 285 284 283 282 282 282 281 280 279 279 278 278 277 276 276 276 276 277 278 277
295 294 294 294 293 293 291 291 290 289 288 288 287 287 286 284 283 283 282 282 281 280 282 280 280 280 280 280 281 282 283 284 285 285 285 284 282 282 281 280 280 280 279 278 277 276 276 275 276 277 278 279 279 279
295 295 295 293 293 292 292 291 290 290 290 289 288 287 287 286 284 281 280 279 278 278 277 278 278 278 279 279 280 280 281 282 282 282 282 282 282 282 281 280 279 278 278 277 277 276 276 277 278 278 280 279 277 275
296 294 293 293 293 293 292 292 293 292 292 290 289 288 287 285 283 281 280 279 278 277 277 278 278 279 279 279 279 279 279 281 281 281 280 280 279 279 279 278 278 278 277 277 277 277 277 278 278 278 275 274 274 273
293 290 287 289 291 291 290 290 291 291 291 290 289 287 286 285 283 282 281 279 278 277 277 277 278 280 280 279 278 277 277 279 279 279 279 278 278 277 277 277 278 278 278 278 277 277 276 275 275 274 273 273 272 272
288 281 285 287 286 289 289 288 288 289 288 288 286 286 285 285 284 283 281 279 278 277 276 277 278 277 278 279 278 277 277 276 277 277 277 277 277 276 277 277 277 277 277 278 276 275 274 274 274 273 273 272 272 272
283 280 283 284 284 286 286 286 286 286 286 285 283 283 283 284 282 281 279 277 277 276 275 275 276 278 276 275 275 275 275 276 276 277 277 277 277 277 277 277 277 276 275 276 275 275 274 274 274 273 273 273 273 273
283 282 279 278 280 282 282 281 282 283 283 282 282 281 282 282 280 278 277 275 275 274 274 274 275 275 275 274 274 275 277 278 278 277 277 278 278 278 277 277 277 276 275 275 275 275 275 274 274 273 273 272 271 271
278 278 278 277 278 278 279 280 280 279 280 278 279 279 279 279 278 276 275 274 274 274 274 273 273 273 273 273 274 274 274 275 276 276 277 277 277 276 275 276 275 275 275 275 274 274 274 274 273 273 273 272 272 272
278 277 276 275 277 277 276 278 278 275 274 278 279 278 276 274 273 274 273 273 273 274 274 274 274 273 273 274 275 275 275 275 275 275 275 273 274 274 274 274 274 274 273 273 273 273 273 273 272 272 272 271 271 271
278 278 277 276 277 277 275 275 275 275 275 275 274 274 273 272 271 272 272 273 273 272 272 272 272 272 273 273 273 274 275 275 275 274 274 272 273 272 272 272 272 272 271 272 272 272 272 271 271 271 271 271 270 270
279 279 278 277 277 275 275 274 275 275 276 276 276 275 274 273 271 270 270 271 271 272 272 271 273 273 272 273 272 271 272 273 274 274 273 273 272 272 272 272 271 271 271 271 271 271 271 270 270 270 270 270 270 269
279 279 278 277 276 275 275 278 277 277 277 277 276 275 275 276 275 271 271 271 271 270 271 270 271 271 271 271 271 271 271 271 271 271 271 271 271 271 271 271 271 271 271 271 271 270 270 270 269 269 269 269 269 269
279 279 279 278 277 278 277 279 279 278 278 277 275 275 274 275 274 270 270 271 270 270 270 270 270 270 270 270 270 270 270 270 270 270 270 270 270 271 271 271 271 270 270 270 270 270 270 270 269 269 269 269 269 269

GFSWCAN_850_thetae_102.txt.gz
Theta_e
291 291 291 291 291 292 292 292 292 292 292 293 293 294 294 294 293 293 295 296 297 297 297 297 298 298 299 300 301 301 303 303 304 304 305 305 306 306 307 307 311 310 311 310 310 310 310 311 311 313 314 311 312 313
291 291 291 292 292 291 291 291 291 292 293 294 294 294 294 295 294 293 294 296 296 297 297 298 298 298 298 299 300 300 301 301 300 305 306 307 306 308 308 309 308 311 309 311 310 310 311 311 312 312 311 311 311 311
290 290 290 290 290 291 291 291 292 293 294 295 295 295 294 294 295 294 294 295 296 296 296 296 297 297 298 299 298 300 299 299 301 302 303 306 306 306 310 309 310 309 309 310 311 311 311 310 309 309 309 308 308 309
290 291 289 290 291 291 291 292 294 295 295 295 295 295 295 295 295 295 295 295 296 296 297 297 297 299 298 298 299 299 300 299 299 300 301 305 305 304 307 308 308 308 308 309 310 311 310 310 310 309 309 307 308 309
291 292 292 292 292 292 293 295 295 296 296 296 296 296 296 295 295 295 295 295 295 296 299 298 298 298 299 300 299 298 299 301 301 302 302 305 303 305 306 307 307 306 307 309 311 310 309 309 309 308 308 308 311 311
293 293 293 294 295 297 298 298 298 298 297 296 296 296 296 296 295 296 297 296 296 296 297 298 299 301 300 300 300 300 300 300 301 302 303 303 303 304 306 305 306 307 308 307 308 307 307 307 307 308 308 310 309 309
295 296 297 298 299 299 299 299 299 300 299 298 297 297 297 297 296 296 297 298 297 296 297 299 299 299 300 302 302 301 301 301 302 301 302 302 303 304 307 306 305 305 306 306 306 306 307 308 309 309 308 308 307 305
298 299 299 299 299 299 298 298 299 300 299 299 297 297 297 297 297 297 298 299 298 297 297 301 302 302 302 303 303 302 302 302 301 302 302 304 304 305 306 305 304 304 305 305 307 307 308 308 309 308 309 309 307 301
299 299 299 299 299 299 299 298 299 300 299 299 298 297 297 297 297 298 298 298 297 298 299 299 302 303 302 303 303 303 303 304 303 304 304 303 304 305 305 304 304 305 305 305 305 307 307 307 309 309 309 309 307 300
299 299 299 299 298 299 298 298 298 299 299 298 297 298 296 298 298 298 297 298 298 298 300 302 301 304 303 304 305 304 303 304 304 305 303 305 305 304 304 304 304 304 305 306 306 307 307 306 306 308 308 307 306 299
299 299 299 299 299 299 299 298 299 299 298 298 298 298 298 298 298 298 297 299 299 301 300 302 302 304 303 305 305 304 304 304 304 304 306 305 305 304 302 301 300 300 302 302 303 303 303 303 304 304 306 303 301 299
299 299 299 299 299 299 299 299 299 298 298 299 299 298 299 298 299 301 302 301 301 301 302 304 303 302 303 303 303 303 303 303 304 306 307 306 300 298 297 297 297 297 296 297 297 297 298 300 300 302 303 298 296 294
298 299 300 300 299 299 299 299 299 299 299 299 299 299 300 299 302 301 302 302 303 304 302 302 304 301 302 302 302 303 302 303 305 306 305 300 295 294 294 294 295 295 291 292 292 293 294 296 297 299 298 295 293 290
298 299 299 300 299 299 299 299 299 299 299 299 299 301 302 301 303 302 303 304 302 303 302 303 303 304 303 303 302 301 304 305 304 305 302 295 293 292 292 291 291 291 289 288 288 289 290 290 291 292 292 291 290 287
298 298 298 298 298 299 299 299 299 298 295 296 298 299 297 295 296 297 298 298 297 300 302 302 302 302 304 303 303 303 304 304 304 300 296 292 291 290 289 289 288 287 287 286 285 286 286 286 286 285 285 285 286 284
297 298 298 298 298 299 299 299 294 295 292 291 293 296 296 297 297 295 296 295 295 298 300 301 301 301 303 303 303 303 304 301 296 294 291 290 289 288 287 287 286 285 284 284 283 283 283 283 283 282 281 281 281 281
298 297 297 298 299 295 295 294 292 291 291 291 292 291 294 293 293 292 293 292 293 296 302 301 304 304 303 303 301 297 295 293 291 290 289 288 287 287 286 285 285 284 283 282 281 281 280 280 279 279 278 277 278 278
298 294 295 294 294 295 294 293 292 290 290 291 291 289 289 290 290 290 290 290 293 296 298 298 298 300 298 299 296 293 292 291 289 288 286 286 285 285 285 284 284 283 282 281 280 280 279 278 277 276 277 277 277 277
298 298 296 297 296 295 292 292 292 290 290 290 289 289 288 287 286 287 287 289 289 291 292 293 291 291 290 288 287 287 288 288 288 287 286 284 284 284 283 283 282 282 281 281 281 280 279 278 277 276 276 276 275 276
297 298 297 296 295 293 292 291 291 290 291 289 288 287 287 287 286 285 285 285 287 286 285 286 285 283 283 283 283 284 285 285 287 288 286 285 284 283 283 282 282 281 280 280 279 278 278 277 277 276 276 276 276 276
295 294 294 295 294 293 293 292 290 290 290 289 289 288 286 285 284 284 283 283 281 281 282 281 281 280 280 281 281 282 283 283 284 284 285 285 283 282 281 281 281 281 280 279 278 278 277 276 275 275 275 275 275 276
295 296 295 294 294 293 292 291 291 291 290 289 289 289 288 286 284 282 281 280 279 279 279 279 279 280 280 280 280 280 281 283 283 283 283 283 283 282 281 280 280 279 279 278 277 276 275 275 276 277 277 277 277 276
295 294 293 294 293 293 292 293 294 293 293 291 290 289 288 286 283 282 281 280 279 278 278 279 280 280 280 280 279 279 280 281 281 281 281 281 280 280 280 279 279 278 277 276 276 276 276 276 277 277 277 276 275 273
293 290 289 291 292 292 291 291 292 292 291 291 290 288 288 286 284 283 281 280 279 278 278 279 279 281 281 280 278 278 279 280 279 279 280 279 278 278 278 278 277 277 277 277 276 276 276 276 276 276 274 273 273 273
289 283 287 288 289 291 291 290 290 290 289 288 287 287 286 287 286 284 282 280 278 277 277 278 279 278 278 279 278 277 277 277 277 277 278 278 277 276 276 276 277 277 277 277 276 276 275 275 274 274 274 273 273 273
284 282 285 286 286 288 288 288 288 288 287 286 286 285 286 286 284 282 280 278 277 276 276 276 277 278 276 275 275 275 277 277 277 277 277 278 278 277 277 276 276 276 276 276 276 275 275 274 274 274 273 273 272 273
284 283 281 281 283 285 285 284 284 284 284 284 284 284 285 284 281 279 277 276 276 275 275 275 275 275 275 275 275 275 276 277 277 276 276 277 277 277 277 276 275 275 275 275 275 274 274 274 273 273 273 272 272 272
280 280 281 280 280 281 282 282 281 281 281 280 282 281 281 280 279 277 276 275 275 276 275 275 275 275 275 274 275 275 276 276 276 276 276 276 275 276 276 276 276 276 275 275 274 274 274 273 273 273 272 272 272 271
281 279 278 279 279 278 279 279 279 277 276 280 281 279 276 275 275 275 274 275 275 275 274 274 275 275 274 274 275 275 276 276 276 275 274 273 273 273 273 273 274 274 274 273 273 273 273 273 273 272 272 272 271 271
281 281 279 278 278 278 277 278 277 276 276 275 275 274 274 273 273 273 274 274 274 273 273 273 273 273 274 273 273 274 275 275 275 274 273 272 272 272 272 272 272 272 272 273 273 272 272 272 272 272 271 271 271 271
282 281 280 279 278 277 277 277 277 277 277 277 276 276 274 273 272 271 272 272 273 273 272 271 270 271 272 273 272 271 272 273 273 273 272 272 272 272 272 271 271 271 271 271 271 271 271 270 271 271 270 270 270 269
282 280 279 279 278 277 278 280 280 279 279 278 278 276 277 278 276 272 272 272 272 271 270 270 269 270 269 270 270 271 271 271 271 271 272 272 271 271 271 271 271 271 271 270 270 270 270 270 270 269 269 269 269 268
281 280 280 279 279 280 279 281 280 280 280 279 277 277 276 276 275 271 270 270 270 269 269 269 269 270 270 270 269 270 271 271 271 271 271 271 270 270 271 271 270 270 269 269 269 270 269 269 269 269 269 269 269 269

GFSWCAN_850_thetae_108.txt.gz
Theta_e
290 291 291 290 290 290 291 291 291 291 292 292 293 294 294 293 294 294 294 293 294 295 295 295 295 296 296 298 297 299 298 300 300 297 300 300 301 303 304 305 306 307 305 303 304 301 304 308 310 310 309 310 310 310
290 290 290 291 291 291 290 290 290 291 291 291 292 292 293 293 293 294 294 294 293 294 295 296 296 296 297 297 298 298 299 300 299 299 299 299 304 303 305 306 304 307 307 305 301 303 306 309 309 310 309 308 308 308
290 290 290 290 290 291 292 292 292 292 293 292 291 291 292 292 292 293 294 294 294 294 294 295 295 295 295 296 298 298 298 299 300 299 298 298 300 302 303 304 304 305 304 308 307 307 307 309 309 309 309 308 307 308
290 290 290 290 291 291 291 290 290 290 291 291 290 291 292 292 294 294 294 294 294 294 296 295 296 296 296 297 297 297 297 298 298 299 298 298 298 301 302 303 304 304 304 306 307 305 306 307 307 308 308 308 308 310
290 290 291 290 291 291 291 291 290 291 290 290 291 291 292 294 294 294 295 294 294 294 294 296 295 296 296 299 298 299 297 298 299 299 300 300 300 301 300 303 304 306 306 305 306 306 306 307 307 308 308 308 309 309
290 290 290 291 291 290 289 289 290 292 292 292 292 293 293 295 295 295 295 294 294 294 295 295 296 297 296 299 301 299 299 298 298 299 300 300 301 302 303 304 304 304 303 302 304 304 305 306 308 309 309 308 307 306
291 291 291 290 290 291 291 291 292 292 293 293 294 294 294 296 295 296 295 295 295 295 296 295 295 297 298 298 297 299 299 300 299 299 299 300 301 302 300 301 302 302 303 304 306 305 307 308 308 307 307 305 305 305
290 290 289 290 290 292 293 294 295 294 295 295 295 295 296 296 296 295 296 297 295 295 295 295 295 298 299 299 300 300 301 300 300 300 301 301 302 301 303 302 301 301 304 305 305 307 306 306 308 308 308 305 305 304
289 289 290 292 294 295 296 297 297 297 298 297 297 296 296 296 296 295 297 297 295 296 294 295 297 297 301 301 301 301 301 301 300 300 302 302 301 303 301 298 297 297 297 298 302 304 304 302 303 306 306 306 305 303
290 291 294 295 296 297 298 298 298 298 298 298 297 296 296 296 297 295 296 295 297 297 297 296 297 296 301 302 301 300 301 299 302 301 301 301 302 298 298 296 294 294 295 296 297 297 298 299 300 301 302 303 302 300
294 295 297 298 298 298 298 299 298 297 299 296 297 297 297 296 297 296 296 296 296 297 296 297 298 297 300 297 297 301 296 297 299 299 301 302 302 297 295 294 293 294 293 292 293 292 294 295 297 299 299 298 298 297
298 298 298 298 298 298 299 298 298 298 297 297 297 297 297 297 297 297 297 296 297 297 297 297 298 299 301 302 298 297 296 296 297 300 303 303 295 292 292 291 290 290 290 288 288 288 291 293 293 295 296 296 295 294
297 297 297 298 298 298 299 299 298 298 297 297 298 298 298 297 298 297 298 295 295 296 300 301 297 301 302 301 299 298 295 294 297 291 299 295 291 290 289 289 288 288 287 287 287 289 289 290 291 292 293 293 293 292
297 297 297 299 298 298 298 298 298 298 298 299 298 299 297 296 297 295 296 296 299 302 301 301 299 301 301 296 294 292 294 299 300 296 295 291 289 288 288 287 286 285 285 285 285 286 287 288 288 288 289 289 289 288
299 299 298 298 298 298 298 298 298 298 298 296 297 293 292 296 297 298 299 298 298 301 301 300 299 300 298 295 298 295 300 299 297 290 288 288 288 287 287 286 285 285 284 283 283 284 284 285 285 285 285 285 285 285
299 299 299 299 298 298 298 298 297 296 293 292 292 294 296 296 294 295 296 295 297 300 300 299 297 295 292 291 298 298 298 294 287 285 288 287 286 286 286 285 285 284 283 282 282 282 282 282 282 282 282 282 282 282
298 296 298 298 298 298 298 298 296 292 291 291 289 290 292 291 290 291 291 293 297 299 298 299 298 294 293 298 294 292 286 286 288 287 286 286 285 285 285 284 283 283 282 281 281 280 280 280 280 280 280 279 279 279
295 296 297 297 297 297 297 292 290 290 290 289 288 287 286 287 287 287 290 292 295 296 296 294 293 289 284 288 283 283 285 287 287 287 286 285 284 284 283 283 282 282 281 280 279 279 278 278 278 278 277 277 277 277
296 297 297 297 298 298 292 290 290 290 289 287 287 286 285 284 285 286 289 289 290 291 289 285 280 280 280 282 282 282 283 283 284 285 286 285 284 283 284 283 282 282 281 280 279 279 278 277 277 276 276 276 277 276
297 295 295 296 294 292 291 290 290 289 288 287 286 285 285 284 283 284 286 287 286 282 280 279 277 280 281 281 281 282 282 283 284 284 285 284 283 282 282 282 281 280 280 279 278 277 277 276 276 276 276 276 276 275
296 295 294 292 292 291 290 290 289 288 288 286 285 284 283 282 281 280 280 280 279 279 279 280 280 280 280 281 281 281 282 283 284 283 283 283 283 282 281 281 281 280 279 278 278 277 277 276 276 275 275 275 275 276
295 294 293 292 292 291 290 290 289 289 289 287 288 286 284 282 281 280 279 278 278 278 279 279 280 280 280 280 280 281 281 282 282 282 282 282 282 281 280 280 280 279 279 278 277 277 276 275 275 275 275 275 275 275
294 293 293 292 292 291 290 291 291 290 287 288 288 286 283 283 282 280 279 279 278 278 279 279 280 280 279 279 280 280 280 280 280 280 280 280 280 279 279 279 278 278 277 276 276 276 275 275 275 275 275 274 274 274
292 291 290 291 291 288 291 291 291 290 289 287 285 285 284 283 281 280 279 278 277 278 278 279 280 279 278 278 278 278 278 278 279 278 278 278 278 278 277 277 277 277 277 276 276 276 276 275 275 275 275 275 275 275
289 283 286 282 287 285 285 286 287 287 286 287 285 284 286 284 282 280 279 277 276 276 277 277 277 277 277 276 277 277 277 278 278 277 277 277 277 277 276 276 276 276 277 277 276 276 276 275 275 275 275 275 275 275
279 282 281 281 281 283 285 284 283 282 281 280 282 284 283 277 276 277 277 276 276 275 276 276 276 276 275 275 276 277 277 277 278 278 277 277 277 277 277 276 276 276 276 276 276 276 275 274 274 273 273 273 273 272
276 275 281 281 282 284 280 281 281 277 276 278 276 277 276 273 275 276 276 276 275 275 275 275 275 276 275 275 275 275 276 276 277 277 276 276 276 276 276 276 276 276 276 276 275 275 275 275 274 274 273 273 272 272
280 279 275 278 278 279 276 275 274 274 275 278 277 272 271 272 274 276 275 276 276 276 275 275 275 275 275 275 276 275 275 275 275 275 275 275 275 275 275 275 275 275 275 275 275 274 274 274 274 274 273 273 272 272
279 279 278 272 277 278 277 273 275 276 276 278 270 269 274 274 275 274 275 275 275 275 275 275 274 274 275 275 275 276 276 275 274 275 274 273 273 273 273 274 274 274 274 274 274 274 274 273 273 272 272 272 272 272
280 278 277 276 272 275 276 275 274 275 276 275 273 273 273 273 273 274 274 274 274 274 274 274 274 274 274 274 274 274 275 274 274 274 273 273 272 272 272 273 273 273 273 272 273 273 273 272 272 272 271 271 271 271
279 278 277 277 276 277 275 274 274 274 274 273 273 272 272 272 272 272 272 272 272 272 272 273 273 273 273 273 273 273 273 273 273 273 272 272 272 272 272 272 272 272 272 271 271 271 271 271 270 270 270 270 270 269
279 278 277 272 277 276 278 278 276 275 275 275 274 274 274 273 271 271 270 271 271 272 272 271 271 271 271 271 271 271 271 271 271 271 271 271 271 271 271 271 271 271 271 271 271 271 271 270 270 270 270 269 269 269
277 277 277 278 277 277 278 279 280 279 278 277 276 275 274 273 271 271 270 270 271 271 270 270 270 271 270 270 270 270 270 270 270 270 270 270 270 270 270 270 270 270 270 270 270 270 270 270 270 269 269 269 269 268

GFSWCAN_850_thetae_111.txt.gz
Theta_e
293 293 291 291 291 291 291 291 291 291 291 292 292 293 294 294 294 294 293 293 293 293 294 294 294 295 295 296 295 297 294 297 296 300 297 299 301 303 305 304 305 305 305 304 303 299 301 307 308 309 309 308 310 310
291 291 291 290 290 291 289 290 291 291 292 291 291 292 292 294 294 294 294 294 294 294 293 294 294 295 296 296 296 297 297 298 298 298 298 299 300 302 302 305 304 304 305 305 302 301 304 307 309 308 308 308 308 308
292 291 290 291 290 290 291 292 291 290 291 290 291 291 292 292 293 293 293 294 294 294 293 293 294 295 295 295 295 296 297 298 299 299 298 297 298 299 301 303 303 303 302 307 305 306 305 307 307 308 309 309 308 308
292 291 290 290 290 290 291 291 291 292 292 291 292 292 291 291 292 292 293 294 293 294 294 295 295 295 295 296 296 296 296 297 298 298 298 296 298 299 302 302 302 302 304 304 307 304 304 306 305 306 306 307 307 308
290 290 289 290 290 291 290 291 291 291 290 290 290 291 291 291 292 293 293 293 294 294 292 294 293 294 295 296 295 296 297 296 296 298 299 299 299 300 299 301 304 304 304 304 304 303 303 304 305 306 307 307 306 306
290 289 290 290 291 291 290 291 291 291 291 290 291 291 291 292 293 294 294 294 294 294 294 294 295 294 295 296 297 299 297 297 297 298 298 299 300 301 302 302 303 302 303 304 303 304 305 307 306 306 306 304 304 304
290 290 289 290 290 289 289 290 290 290 289 290 292 292 292 293 294 295 295 294 294 294 295 294 293 297 297 297 297 298 299 298 297 297 298 298 299 300 300 299 300 299 301 302 305 306 306 306 304 305 307 306 303 303
290 290 290 290 291 292 291 291 290 291 291 292 292 293 294 294 294 295 295 296 295 294 294 294 294 297 297 298 300 300 299 299 299 299 299 300 300 300 302 300 297 296 299 302 300 302 302 303 304 304 303 303 303 302
290 291 291 291 291 290 289 290 291 292 293 294 294 294 295 294 295 296 295 295 295 295 294 294 295 296 300 301 300 301 301 300 300 299 300 301 301 302 300 297 294 293 294 293 296 297 299 299 300 301 301 302 301 299
290 290 290 290 290 289 291 292 294 295 296 296 295 294 295 296 296 295 296 296 295 295 296 295 296 294 300 301 301 300 299 299 301 301 301 301 301 296 295 293 292 291 292 292 292 293 292 292 295 296 297 298 298 297
289 290 289 289 290 291 294 294 295 297 297 296 295 296 296 296 295 295 294 294 295 295 295 296 297 295 298 298 298 299 297 298 299 299 301 302 301 295 292 292 290 289 289 289 288 288 288 288 290 292 295 296 296 295
289 290 291 292 293 295 296 297 297 297 297 297 297 296 296 296 296 295 294 294 296 296 296 296 297 297 299 301 297 298 298 294 297 299 302 301 293 290 290 289 288 288 287 287 287 286 288 289 289 290 291 293 293 293
293 294 295 295 296 297 298 298 298 298 297 296 297 298 297 296 297 294 295 297 296 295 296 298 298 298 299 300 297 298 299 295 295 296 300 294 290 289 288 288 287 286 286 286 286 287 287 288 288 289 290 290 290 290
297 297 298 298 298 298 298 298 297 297 297 298 298 298 297 295 296 294 295 296 297 297 299 300 298 300 300 295 295 296 294 297 299 297 295 289 289 288 287 286 286 285 285 285 285 285 285 285 286 286 287 287 287 287
297 297 297 298 298 298 298 298 297 297 298 296 297 296 295 294 296 297 298 297 297 298 300 299 299 299 297 294 298 294 298 299 295 289 284 287 287 287 286 286 285 284 283 283 283 284 284 284 284 284 284 284 284 284
297 297 297 298 298 298 298 297 297 298 293 292 292 294 295 296 294 295 296 296 297 299 299 299 294 290 296 291 298 297 297 293 284 283 287 286 286 285 285 284 284 283 282 282 281 281 281 281 281 281 281 281 281 281
298 298 297 298 298 297 297 296 297 292 291 290 287 289 291 290 289 290 291 293 296 298 297 296 298 291 292 296 292 288 282 282 286 287 286 285 285 284 284 283 283 282 281 281 280 280 280 279 279 279 280 279 279 279
298 298 298 298 298 297 296 295 291 290 289 288 286 286 285 286 287 286 288 292 295 296 295 293 290 289 284 287 282 279 283 284 285 285 285 286 284 284 284 283 283 282 281 281 280 279 279 278 278 278 278 277 277 277
297 298 298 298 297 296 292 290 289 289 287 287 286 285 284 284 284 285 288 288 290 290 288 283 279 278 277 280 280 281 282 283 283 284 285 285 284 283 283 283 282 281 281 280 279 278 278 277 277 276 276 276 276 276
296 296 297 297 297 292 290 289 289 288 287 286 285 284 283 282 283 284 285 286 286 282 279 279 276 279 280 280 281 281 282 282 283 283 284 284 283 283 282 281 281 280 280 279 279 278 277 276 276 275 275 276 276 276
296 295 298 295 293 290 289 289 288 287 286 285 284 284 282 282 280 280 280 281 279 279 278 279 280 280 280 280 280 281 282 282 283 283 282 283 283 282 281 281 280 280 279 279 278 277 276 276 276 275 275 275 275 275
294 294 293 292 291 290 289 289 288 288 287 286 286 284 282 281 280 279 279 278 278 278 278 279 280 280 280 280 280 281 281 281 281 281 281 281 281 281 280 280 279 279 279 278 277 277 276 275 275 274 274 274 274 274
293 293 292 292 291 290 289 291 290 289 284 286 287 283 281 282 281 280 278 278 277 277 278 279 280 280 279 279 279 280 279 279 280 279 279 279 279 279 278 278 277 277 277 277 276 276 275 275 275 274 274 274 274 273
294 291 290 290 290 288 291 291 290 289 288 285 284 283 281 281 280 279 277 277 276 277 278 279 278 279 278 278 278 278 278 278 278 278 277 277 277 277 277 277 277 277 276 276 275 275 275 275 275 274 274 274 273 274
290 283 285 282 287 284 282 283 284 284 283 284 282 282 283 283 279 278 278 276 276 276 277 277 277 277 277 276 277 277 277 278 278 277 277 276 276 277 276 276 276 276 276 276 276 276 276 275 275 274 274 274 274 274
281 281 281 280 281 283 283 283 282 283 283 283 282 282 280 277 275 276 277 275 275 275 276 276 276 276 276 276 276 277 277 277 277 277 277 277 277 276 276 276 276 276 276 276 276 276 276 275 275 274 274 274 274 273
277 276 280 280 282 282 278 279 279 277 276 277 277 276 274 272 272 275 276 275 275 275 275 275 275 276 276 275 275 276 276 276 277 276 276 276 276 276 276 276 276 275 275 275 275 275 275 274 274 274 273 273 272 272
279 278 276 277 277 277 274 273 272 272 274 278 275 270 268 268 273 275 275 275 275 275 275 275 275 275 275 275 275 275 275 275 275 275 275 275 275 275 274 274 274 275 275 275 275 275 274 274 274 273 273 273 273 272
278 278 277 271 276 275 274 270 272 275 275 276 267 267 273 273 274 274 274 275 275 275 275 275 275 274 274 275 275 275 275 275 274 274 274 274 274 274 273 274 274 274 274 274 274 274 274 274 273 273 272 272 272 272
278 277 276 275 272 272 274 273 273 274 274 274 272 272 272 272 273 273 273 273 273 274 274 274 274 273 274 273 274 274 274 274 274 273 273 273 273 272 272 273 273 273 273 273 273 273 273 273 273 273 272 272 271 271
278 277 277 276 274 273 273 273 273 273 273 272 272 272 271 271 271 271 272 272 272 272 272 273 273 273 273 273 273 273 273 273 273 273 272 272 272 272 272 272 272 272 272 272 272 271 271 271 271 271 270 270 270 270
278 277 275 271 275 275 276 276 275 274 274 274 274 273 273 272 271 271 270 270 271 271 272 272 271 271 271 271 271 271 271 271 271 271 271 271 271 271 271 271 271 271 271 271 271 271 271 270 270 270 270 269 269 269
277 277 277 277 275 275 277 278 278 276 276 276 275 274 273 272 271 271 271 271 271 271 271 271 270 270 270 270 270 271 271 270 270 270 270 270 270 270 270 270 270 270 270 270 270 270 270 270 270 269 269 269 269 268

GFSWCAN_850_thetae_114.txt.gz
Theta_e
292 291 292 295 293 292 293 293 292 291 291 291 292 292 292 293 293 293 293 293 293 293 293 293 293 294 295 295 294 295 293 295 293 297 297 299 301 302 303 302 303 304 304 304 304 302 299 305 306 306 308 307 307 308
292 293 292 293 293 291 292 291 291 291 291 291 291 292 292 294 293 294 293 293 293 293 293 293 293 294 293 293 296 296 295 297 297 291 293 297 298 300 301 302 303 303 303 304 303 301 303 304 306 307 306 307 308 306
292 293 293 293 292 290 290 290 291 290 291 291 291 291 291 292 293 294 294 293 293 293 294 294 294 294 294 294 294 294 295 296 298 299 298 298 297 298 300 302 303 302 301 304 304 305 304 303 305 305 306 305 307 307
292 292 292 292 290 290 291 290 290 291 291 291 291 290 291 292 292 293 294 293 293 293 293 293 293 293 294 295 296 296 295 296 297 298 297 297 297 298 300 300 301 302 303 303 304 304 303 306 306 305 305 306 306 306
291 292 292 292 291 290 290 290 291 291 291 292 292 291 292 292 291 293 293 292 292 293 292 293 293 294 294 294 294 295 296 295 295 295 296 298 298 298 299 299 303 302 303 304 304 302 302 304 304 304 303 301 301 302
290 291 291 292 291 290 290 290 291 291 292 292 291 290 290 291 291 293 293 293 293 292 294 293 293 294 294 294 295 296 295 295 296 296 297 298 298 300 301 302 300 298 298 299 300 301 304 301 301 302 303 301 299 301
290 291 291 291 290 289 290 291 291 291 291 291 291 290 291 291 291 293 294 294 294 293 294 293 292 296 297 297 295 296 297 296 297 297 297 297 298 298 299 299 299 297 297 298 299 301 300 300 301 301 300 299 299 298
290 290 290 290 290 290 290 291 291 290 290 290 289 291 292 291 292 293 294 295 294 294 294 293 292 294 296 298 298 298 298 297 298 298 298 299 299 299 301 299 296 294 297 297 296 295 295 296 299 299 298 298 298 297
290 290 290 290 290 290 290 290 290 290 290 291 290 292 293 293 293 294 294 296 294 295 293 293 293 293 298 300 299 299 299 299 298 299 300 300 300 302 298 295 293 291 291 291 292 293 293 293 292 293 296 296 296 295
289 289 290 290 290 290 291 291 291 291 290 291 293 293 294 294 294 294 295 294 295 295 294 294 294 293 298 300 300 300 299 301 301 301 300 301 299 295 293 292 291 290 289 289 290 290 289 289 289 290 291 292 293 293
288 289 289 290 291 291 291 290 289 290 291 293 294 294 295 294 295 295 294 295 295 295 294 295 295 295 297 296 298 299 299 298 300 300 301 302 299 294 291 290 289 288 287 287 287 287 286 286 287 288 290 290 290 291
289 289 290 290 290 290 290 289 290 292 295 295 295 296 295 296 295 294 294 292 293 295 295 295 296 296 297 298 298 298 300 295 299 298 301 301 292 289 289 288 287 287 286 286 285 286 286 284 286 287 288 289 289 288
289 289 289 289 289 289 289 291 293 294 295 296 296 296 296 295 296 292 293 294 295 295 295 295 297 297 297 299 297 298 299 296 295 297 300 293 290 288 287 287 286 286 285 285 285 285 285 285 285 286 286 287 287 287
289 289 289 290 291 292 292 293 294 294 296 297 297 297 294 294 295 294 294 294 296 296 296 298 296 297 299 294 296 297 294 296 300 298 295 289 287 287 286 286 286 285 284 284 284 283 283 283 283 284 284 284 285 285
291 292 292 293 293 294 295 295 296 296 297 297 297 294 295 293 295 295 296 296 296 296 297 298 296 299 294 295 296 293 297 298 294 289 284 287 286 286 285 285 284 283 283 283 283 283 282 282 281 282 282 282 282 282
295 295 296 297 296 296 297 295 296 297 294 292 292 293 294 296 294 295 296 295 296 297 298 299 292 293 296 293 298 296 296 291 284 284 286 286 285 285 284 283 283 282 282 281 281 281 280 280 280 280 280 280 280 280
296 297 297 298 297 296 296 297 297 292 290 289 286 289 290 290 289 289 291 293 295 297 295 294 291 293 292 294 290 285 281 281 285 286 285 285 284 284 284 283 283 282 282 281 280 280 279 279 278 278 279 279 278 279
297 297 297 298 297 296 296 296 291 289 287 287 285 285 285 286 286 287 288 291 294 295 295 291 291 293 291 292 282 278 282 284 284 285 285 285 284 284 283 283 282 281 281 281 280 279 278 277 277 277 277 277 277 277
297 298 298 297 297 296 293 290 289 287 286 286 285 284 284 283 284 285 287 288 289 289 288 283 280 279 275 279 279 281 282 282 283 284 284 284 284 283 283 282 281 281 280 280 279 278 277 277 276 276 275 275 276 276
296 296 297 296 297 294 290 289 288 287 286 285 285 284 282 282 283 284 286 287 287 283 280 279 276 279 280 280 280 281 281 282 282 283 283 283 283 283 282 281 281 280 280 279 278 278 277 276 276 275 275 275 275 275
296 296 294 296 293 290 289 288 287 286 285 284 284 283 282 282 281 280 280 281 280 278 278 279 280 280 280 280 280 281 281 282 282 282 281 281 281 281 281 280 280 279 278 278 277 277 276 275 275 274 274 274 274 274
294 297 296 294 290 289 289 288 287 286 286 285 284 283 281 280 279 279 279 278 277 277 278 279 279 280 279 279 280 280 280 280 280 280 280 280 280 280 279 279 278 278 277 277 276 276 275 275 274 274 274 274 274 273
295 296 293 292 291 289 288 289 289 288 282 285 285 281 278 281 280 279 277 277 277 277 278 279 279 279 279 279 279 279 279 279 279 278 278 278 278 277 277 277 277 276 276 276 275 275 275 274 274 274 273 273 273 273
295 291 290 290 290 286 290 290 289 288 287 282 281 279 278 280 279 277 273 276 276 277 278 278 278 278 278 278 278 278 278 278 277 277 277 277 277 276 276 276 276 276 276 276 276 275 275 274 274 274 273 273 273 273
290 283 285 280 286 283 279 279 281 283 282 281 281 280 280 281 276 275 273 276 276 276 277 277 277 277 277 276 277 277 277 277 277 277 277 276 276 276 276 276 276 276 276 276 276 275 275 274 274 274 274 274 274 273
280 280 280 279 281 282 282 279 279 279 280 280 281 280 279 276 276 276 276 275 275 275 276 276 276 276 276 276 276 276 277 277 276 277 276 276 276 276 276 276 276 276 275 275 275 275 275 274 274 274 274 274 274 273
278 277 279 279 281 280 278 279 279 279 279 279 278 274 273 272 271 275 275 275 275 275 275 275 275 275 275 275 275 276 276 276 276 276 275 275 276 276 275 275 275 275 275 275 275 274 274 274 274 273 273 272 272 272
278 278 276 276 276 276 273 273 272 272 275 277 274 269 268 269 272 274 275 275 275 275 275 275 275 275 275 275 275 275 275 275 274 274 274 274 274 274 274 274 274 274 274 275 274 274 274 274 273 273 273 273 272 272
277 277 277 271 274 273 272 270 271 274 274 275 268 268 271 272 273 273 274 275 274 274 274 274 274 274 274 275 275 274 274 274 274 274 274 274 274 274 273 273 273 274 274 274 274 274 274 273 273 273 273 272 272 272
277 277 275 273 269 270 272 271 272 273 273 273 272 271 271 271 272 273 273 273 273 273 273 274 274 274 274 274 274 274 274 274 274 273 273 273 272 272 272 272 273 273 273 273 273 273 273 273 273 273 272 272 272 271
277 277 275 273 271 272 272 272 272 272 272 272 272 272 271 271 271 271 272 272 272 273 273 273 273 273 273 273 273 273 273 273 273 273 273 272 272 272 272 272 272 271 271 272 272 271 271 271 271 271 270 270 270 270
276 276 273 270 273 273 275 275 274 274 274 273 273 272 272 272 271 271 271 272 272 271 272 272 271 271 271 271 271 271 271 271 271 271 270 270 270 270 270 270 270 270 270 270 270 270 270 270 270 270 270 270 269 269
276 276 276 276 274 274 275 276 276 275 275 275 274 273 273 272 271 271 271 271 271 270 271 271 271 271 271 271 271 271 270 271 270 270 270 270 271 270 270 270 270 270 270 270 270 270 270 270 269 269 269 269 269 269

GFSWCAN_850_thetae_117.txt.gz
Theta_e
294 294 293 293 294 294 294 292 292 293 293 292 291 292 292 293 293 293 292 292 293 292 292 292 293 293 293 293 295 294 295 295 295 297 298 298 299 298 299 300 301 304 304 306 304 304 303 305 305 306 307 305 304 306
292 292 293 292 292 294 293 292 293 293 292 291 291 292 292 293 293 293 293 293 293 293 293 293 293 293 293 293 294 294 295 295 296 297 296 297 298 299 299 301 303 303 302 303 304 303 303 304 304 306 307 305 305 307
293 293 292 292 292 293 293 292 293 292 291 291 291 292 292 292 294 294 293 294 293 293 293 293 293 293 293 293 293 293 294 294 297 298 298 298 298 298 299 300 301 301 301 304 304 305 305 303 304 305 305 305 305 304
293 293 292 293 293 293 293 291 290 291 291 291 291 291 292 292 292 293 293 293 293 293 292 292 293 293 293 293 293 295 294 294 297 296 297 297 298 298 299 299 300 302 302 303 304 303 301 303 301 302 301 301 301 301
292 292 292 293 293 293 292 290 290 291 291 291 291 291 291 291 292 293 293 293 293 292 293 293 292 293 294 294 293 293 294 295 294 295 296 297 298 299 299 300 302 300 301 301 303 298 299 298 299 298 301 301 300 297
292 291 292 292 292 292 291 290 290 290 291 291 291 291 291 292 292 291 292 292 293 292 292 293 293 293 294 294 294 294 294 294 295 295 296 297 297 298 299 301 300 298 296 295 296 296 297 299 298 298 299 299 300 298
291 291 291 292 292 292 291 290 290 290 291 291 292 291 291 290 291 292 293 294 294 292 293 293 292 294 295 296 295 294 295 294 295 296 297 297 298 298 299 299 298 295 294 294 293 295 296 295 295 296 296 297 297 297
291 290 291 291 292 292 291 290 290 291 291 292 291 291 291 291 291 292 292 294 294 293 293 293 293 293 295 297 297 296 296 295 296 297 297 298 298 298 300 297 294 292 292 292 291 292 291 292 292 293 293 294 295 295
290 290 290 291 291 291 290 290 291 291 291 291 291 290 292 292 293 292 292 293 294 294 292 292 293 294 297 299 299 299 298 299 298 298 299 300 300 302 297 294 291 290 289 289 289 290 289 289 290 291 291 290 290 292
290 290 290 290 291 290 290 290 291 291 290 290 290 291 293 292 292 293 294 294 293 294 294 293 292 294 296 298 299 299 298 301 301 301 299 301 298 294 292 290 289 288 288 287 287 287 287 287 287 287 288 289 288 289
290 290 290 290 290 290 290 291 291 291 291 291 292 294 294 294 294 294 295 295 294 294 293 293 293 294 295 297 298 298 300 300 301 301 303 302 298 293 290 289 288 287 286 286 285 285 285 284 284 285 286 288 289 289
290 289 290 290 290 290 290 291 291 291 290 291 294 294 295 295 295 295 293 293 293 295 294 294 294 294 295 296 298 299 301 298 300 298 302 302 292 289 288 287 287 286 285 285 285 285 285 284 285 285 286 286 287 287
289 288 289 290 291 291 291 291 291 290 291 294 295 295 295 295 295 294 294 293 294 294 294 295 296 296 296 297 297 298 299 299 296 298 300 293 289 287 287 286 285 285 284 284 284 283 283 283 283 284 284 285 285 285
288 288 289 289 291 291 291 290 290 289 292 294 295 296 296 293 295 294 295 296 294 295 295 296 296 296 297 298 298 298 297 297 300 300 297 290 287 286 286 285 284 284 283 282 282 282 282 282 282 282 282 283 283 283
288 289 289 290 290 290 290 290 290 292 293 295 296 295 294 293 294 294 295 295 295 295 296 297 297 297 296 297 297 295 297 298 296 294 288 288 286 285 285 284 284 283 283 282 281 281 281 280 280 280 281 281 281 281
289 289 289 289 289 289 290 291 293 293 294 292 292 293 293 295 295 296 296 294 295 295 298 298 294 297 297 296 298 298 297 296 289 287 286 285 285 284 284 283 283 282 282 281 281 280 280 279 279 279 279 279 279 279
291 292 291 291 291 292 292 293 293 293 291 289 287 289 291 291 290 290 292 292 296 297 299 294 294 296 294 296 294 287 289 285 285 285 285 285 285 284 283 283 282 282 281 280 280 279 278 278 278 277 277 278 277 278
292 294 295 294 293 293 292 293 291 289 286 286 285 284 285 286 286 288 288 292 294 295 295 294 292 294 291 297 287 282 282 283 284 284 284 285 284 283 283 282 282 281 281 280 279 279 278 277 276 276 276 276 276 276
297 297 296 295 293 294 293 290 289 287 285 285 284 284 283 283 283 285 286 288 291 290 290 286 285 283 281 279 279 280 281 282 283 283 283 283 283 283 282 282 281 281 280 279 279 278 277 276 276 275 275 275 275 275
296 295 295 296 296 295 290 288 288 287 285 284 285 284 282 282 283 283 286 287 287 284 280 280 279 278 279 280 280 281 281 282 282 282 282 282 282 282 281 281 280 280 279 278 278 277 276 276 275 275 274 274 274 274
295 296 296 297 291 289 288 288 286 285 285 283 283 283 282 282 281 281 281 282 280 278 279 279 279 279 280 280 280 280 281 281 281 281 280 280 280 280 280 279 279 278 278 277 277 276 275 275 274 274 274 274 274 274
294 294 294 293 289 289 288 287 286 286 285 284 283 282 281 279 279 279 279 278 277 277 278 279 279 279 279 279 279 280 280 280 279 279 279 279 279 278 278 278 277 277 276 276 276 275 275 274 274 274 273 273 273 273
295 296 295 292 290 289 287 289 288 287 283 283 283 281 279 279 279 279 276 276 276 277 278 279 279 279 278 278 278 279 279 278 278 278 277 277 277 277 276 277 276 276 276 276 275 275 274 274 274 274 273 273 273 272
296 293 290 289 289 286 289 289 288 287 285 282 281 278 278 279 278 276 274 275 276 277 277 278 278 278 278 278 278 278 278 277 277 277 277 276 276 276 276 276 276 276 276 276 275 275 275 274 274 274 273 273 273 273
292 284 286 280 285 283 278 277 279 282 279 279 279 278 279 279 275 274 273 275 275 276 277 277 277 277 277 276 276 277 277 277 277 277 276 276 276 276 276 276 276 276 275 275 275 275 275 275 274 274 273 273 273 273
280 280 279 278 279 280 280 278 277 278 280 278 279 279 278 276 276 276 276 275 275 275 276 276 276 276 276 276 276 276 276 276 276 276 276 276 276 276 275 275 275 275 275 275 275 275 274 274 274 274 273 273 273 273
278 277 278 279 280 280 277 279 279 279 278 279 279 277 277 275 275 275 275 275 275 275 275 275 275 275 275 275 275 275 275 275 275 275 275 275 275 275 275 275 275 274 275 275 274 274 274 274 273 273 272 272 272 272
278 278 278 275 275 275 274 274 275 276 277 276 274 271 272 272 274 274 275 274 275 275 275 275 275 275 275 275 275 275 275 274 274 274 274 274 274 274 274 273 273 274 274 274 274 274 274 274 273 273 273 272 272 272
276 276 276 271 273 272 271 271 272 273 273 274 271 271 271 271 272 273 274 274 274 274 274 274 274 274 274 274 274 274 274 274 274 273 273 273 273 273 273 273 273 273 273 273 273 273 273 273 273 273 273 272 272 272
276 276 273 271 268 270 271 270 272 272 273 272 271 270 271 271 272 273 273 273 273 273 273 274 274 274 274 274 274 274 274 274 274 273 273 273 273 272 272 272 272 272 273 272 272 272 272 272 272 272 272 272 271 271
276 275 272 271 270 271 271 271 272 272 272 272 272 271 270 270 271 272 272 273 273 273 273 273 274 274 274 274 273 273 273 273 273 273 272 272 271 271 271 271 271 271 271 271 271 271 271 271 271 271 271 270 270 270
275 274 271 268 272 272 273 274 274 273 273 273 272 272 272 272 271 272 272 272 273 273 273 272 272 272 271 271 271 271 271 271 271 271 271 271 271 270 270 270 270 270 270 270 270 270 270 270 270 270 270 269 269 269
275 275 274 274 272 272 274 275 274 274 274 274 273 273 272 272 272 272 272 272 272 271 271 271 271 271 271 271 271 271 271 271 270 270 270 270 270 270 270 270 270 270 270 270 270 270 270 270 269 269 269 269 269 269

GFSWCAN_850_thetae_120.txt.gz
Theta_e
297 296 296 295 295 295 296 295 293 293 296 294 293 291 291 293 294 293 294 291 294 294 295 294 295 295 295 295 297 297 298 298 298 299 300 300 301 300 300 300 302 304 305 307 306 306 306 305 304 306 307 307 305 303
295 296 295 295 294 294 295 295 293 292 293 293 292 291 292 292 293 293 294 292 293 293 295 293 293 294 294 294 295 295 296 296 297 300 300 300 301 300 299 302 302 304 303 304 306 306 306 303 305 305 306 307 305 304
294 294 293 294 293 293 293 294 293 292 293 293 292 291 292 292 293 293 294 293 293 293 293 294 295 295 293 293 294 295 296 295 297 298 298 299 299 299 300 301 301 301 301 305 304 303 301 299 299 301 303 300 299 299
293 293 293 292 293 293 292 293 293 293 293 292 291 292 292 292 293 294 294 293 293 293 295 295 293 293 293 293 294 294 295 296 296 297 297 298 298 298 300 299 300 302 303 302 304 300 300 299 297 297 298 298 298 298
293 293 293 293 292 292 292 293 292 292 292 291 291 292 292 292 293 293 292 294 294 294 295 295 294 295 294 294 294 294 295 295 296 297 298 299 298 299 300 300 303 301 300 301 302 297 297 298 297 297 296 295 295 297
292 293 293 293 292 293 293 293 292 291 290 290 291 292 292 292 292 293 294 293 293 293 294 296 295 295 295 295 295 295 295 295 296 296 297 298 298 299 300 301 300 298 296 293 296 295 297 296 297 295 297 295 294 295
290 292 293 293 293 294 293 293 291 291 291 291 292 291 291 291 292 292 294 294 293 293 293 295 296 295 294 296 296 295 296 296 296 296 297 297 298 299 301 300 297 296 295 294 293 294 296 294 294 294 294 294 294 293
289 291 292 292 292 293 292 291 290 290 290 292 291 292 291 291 292 292 292 294 293 293 293 294 296 296 296 299 299 297 296 295 296 298 299 299 299 299 301 299 296 293 294 293 292 292 292 292 292 292 293 293 294 293
289 291 292 292 292 292 292 291 290 290 292 292 292 291 291 291 292 292 292 292 292 293 294 293 296 298 297 299 299 298 297 299 298 299 300 300 302 302 297 296 293 291 290 289 291 291 291 290 290 290 291 291 291 291
289 291 291 291 292 292 292 291 290 290 291 292 291 291 292 293 292 292 293 294 293 293 294 295 295 298 297 299 300 299 298 302 302 301 300 301 302 294 293 291 290 289 288 287 289 289 288 289 288 288 288 288 288 287
290 291 290 291 291 291 292 291 290 291 292 291 290 292 293 292 293 293 294 295 294 295 295 295 295 297 296 298 298 299 302 302 304 303 303 304 301 294 291 290 289 287 286 285 285 285 285 286 285 286 286 286 286 285
290 290 290 291 291 291 291 291 291 291 291 291 292 293 293 294 294 296 296 296 296 296 297 295 295 295 296 297 299 300 301 301 303 301 303 304 294 290 290 288 287 286 284 284 283 283 283 283 283 283 284 283 284 285
290 290 290 291 291 290 290 291 291 291 291 291 294 295 295 295 298 297 296 295 297 296 296 296 297 296 297 297 299 300 302 301 299 301 302 296 291 289 288 287 286 284 284 283 282 282 282 282 283 283 284 284 284 284
290 290 290 290 290 290 290 291 291 291 291 292 294 297 296 297 298 297 297 297 296 297 297 297 297 298 298 298 300 301 301 299 301 301 300 293 290 288 287 286 285 284 283 283 282 282 282 281 281 281 282 282 283 283
289 289 290 290 291 291 291 292 292 291 291 292 295 298 298 297 296 296 296 296 295 297 297 298 298 299 300 301 300 299 299 300 301 300 294 290 288 286 286 285 284 283 282 282 281 281 280 280 280 280 280 280 281 281
288 289 289 290 291 291 291 291 291 290 291 293 292 296 295 297 297 296 296 295 295 297 298 300 300 300 301 301 300 300 300 300 297 292 289 288 286 284 284 284 283 283 282 281 281 280 280 279 279 279 279 279 279 279
288 290 290 290 291 291 291 291 291 292 292 291 291 289 290 294 296 292 293 292 295 297 300 300 300 301 299 300 300 296 299 292 289 288 287 286 285 284 284 283 283 282 281 281 280 279 279 278 277 277 276 277 277 277
290 290 290 290 290 291 290 292 293 291 289 288 291 287 286 285 288 288 289 293 294 295 298 299 296 299 300 300 298 290 287 286 286 286 285 284 284 283 283 282 282 281 281 280 279 279 278 277 277 276 275 274 275 274
290 290 289 289 290 292 292 291 291 289 287 286 285 284 284 283 284 286 287 289 292 293 292 292 295 296 292 286 287 285 285 285 285 284 283 283 283 282 282 282 281 281 280 279 278 277 276 276 276 275 275 274 274 274
292 292 291 290 291 293 289 288 289 288 288 287 285 284 284 283 283 284 286 286 287 287 286 287 286 283 284 282 282 283 282 282 283 284 284 282 280 280 281 280 279 279 279 277 277 276 276 276 274 274 273 273 274 273
292 292 292 292 292 290 288 288 287 287 286 286 284 284 284 283 283 283 282 283 283 282 284 282 281 279 279 280 280 280 280 281 281 282 281 281 279 279 278 278 278 277 277 277 277 276 275 274 273 273 272 272 272 272
292 292 292 292 290 288 287 287 287 286 287 286 285 284 285 285 284 282 280 281 280 279 279 280 280 279 279 279 280 280 280 280 279 279 279 278 279 278 277 276 277 276 276 275 275 275 274 273 273 272 272 272 272 272
295 295 294 291 289 289 288 288 288 288 288 286 285 285 284 283 281 279 280 279 278 277 277 278 279 279 278 279 279 279 279 278 278 277 277 277 276 276 276 275 275 275 275 275 274 274 273 274 273 272 272 272 272 271
296 293 290 289 290 290 289 289 288 287 287 287 286 284 283 282 280 280 280 279 277 277 278 278 278 278 277 277 277 277 277 277 276 276 276 277 277 276 275 275 275 275 275 274 274 274 273 273 273 272 272 272 272 272
293 285 286 286 286 288 288 288 287 287 287 286 284 284 283 281 282 280 279 278 277 277 277 277 277 277 278 276 276 277 277 276 276 276 276 275 276 276 275 275 274 274 275 274 274 274 275 274 273 272 272 272 272 272
284 280 284 284 285 287 287 286 286 286 286 285 283 282 281 282 281 280 279 277 277 276 276 276 276 275 275 275 275 275 276 276 276 275 276 276 276 275 275 275 275 274 275 275 274 274 274 274 274 273 273 273 273 272
283 282 280 279 282 282 283 282 282 285 284 284 283 281 282 281 280 278 276 275 275 275 276 276 275 275 274 274 275 276 276 276 275 275 275 275 275 275 275 274 274 274 274 274 274 274 273 274 273 273 273 273 273 272
279 279 281 277 277 278 279 280 280 280 281 278 280 279 280 279 278 275 274 274 275 275 275 275 275 275 275 275 275 275 275 275 274 274 274 274 274 274 274 274 274 274 274 274 274 274 274 273 273 273 273 272 272 272
277 276 277 274 275 274 274 276 277 275 274 276 277 276 274 271 272 272 273 274 274 274 274 275 275 275 275 275 274 274 274 274 273 273 273 272 272 273 273 273 273 273 273 273 273 273 273 273 273 273 272 272 272 272
276 275 274 272 273 274 272 270 272 272 272 272 272 271 271 270 272 274 274 274 274 274 274 274 274 274 274 274 274 274 274 274 274 273 272 272 273 273 273 272 272 272 272 272 272 272 272 272 272 272 272 272 271 271
274 274 273 273 273 272 271 272 272 272 272 270 271 272 271 270 272 273 273 274 274 274 274 274 274 274 274 274 273 273 273 273 273 273 272 272 271 271 271 271 271 271 271 271 271 271 271 271 271 271 271 270 270 270
274 273 273 274 273 272 272 273 273 273 273 274 272 272 272 272 273 272 273 273 273 273 274 273 273 273 272 272 272 271 271 271 271 271 271 271 271 271 271 270 270 270 270 270 270 270 270 270 270 270 270 270 269 269
273 273 274 274 274 273 273 274 274 274 274 274 273 272 272 273 273 272 273 273 273 273 272 272 272 272 272 271 271 271 271 271 271 271 270 270 270 270 270 270 270 270 270 270 270 270 270 270 270 269 269 269 269 269